<?xml version="1.0" encoding="UTF-8"?>
<gpx version="1.1" creator="https://www.www-youtrack-es.amenigma.com" xsi:schemaLocation="http://www.topografix.com/GPX/1/1 http://www.topografix.com/GPX/1/1/gpx.xsd http://www.garmin.com/xmlschemas/GpxExtensions/v3 http://www.garmin.com/xmlschemas/GpxExtensionsv3.xsd http://www.garmin.com/xmlschemas/TrackPointExtension/v1 http://www.garmin.com/xmlschemas/TrackPointExtensionv1.xsd" xmlns:gpxtpx="http://www.garmin.com/xmlschemas/TrackPointExtension/v1" xmlns:gpxx="http://www.garmin.com/xmlschemas/GpxExtensions/v3" xmlns:xsi="http://www.w3.org/2001/XMLSchema-instance">
  <metadata>
    <author>
      <name>Joaquim Santos</name>
      <email id="quimis" domain="meo.pt"/>
    </author>
    <link href="https://www.www-youtrack-es.amenigma.com">
      <text>YouTrack.es</text>
    </link>
    <time>2026-08-31T19:31:42Z</time>
  </metadata>
  <trk>
    <src>https://www.www-youtrack-es.amenigma.com</src>
    <link href="https://www.www-youtrack-es.amenigma.com/ruta/6112-7-castelo-novo--penamacor-btt">
      <text>YouTrack.es</text>
    </link>
    <trkseg>
      <trkpt lat="40.0770117" lon="-7.49554926">
        <ele>622.0</ele>
        <time>2010-01-01T00:00:00Z</time>
      </trkpt>
      <trkpt lat="40.0767945" lon="-7.49481286">
        <ele>613.0</ele>
        <time>2010-01-01T00:00:24Z</time>
      </trkpt>
      <trkpt lat="40.0762099" lon="-7.49412186">
        <ele>600.0</ele>
        <time>2010-01-01T00:00:55Z</time>
      </trkpt>
      <trkpt lat="40.0751948" lon="-7.49375761">
        <ele>600.0</ele>
        <time>2010-01-01T00:01:37Z</time>
      </trkpt>
      <trkpt lat="40.0748321" lon="-7.49323897">
        <ele>596.0</ele>
        <time>2010-01-01T00:01:59Z</time>
      </trkpt>
      <trkpt lat="40.0739077" lon="-7.49268658">
        <ele>587.0</ele>
        <time>2010-01-01T00:02:40Z</time>
      </trkpt>
      <trkpt lat="40.0732102" lon="-7.49246333">
        <ele>584.0</ele>
        <time>2010-01-01T00:03:08Z</time>
      </trkpt>
      <trkpt lat="40.0721009" lon="-7.48996023">
        <ele>569.0</ele>
        <time>2010-01-01T00:04:37Z</time>
      </trkpt>
      <trkpt lat="40.0720343" lon="-7.48942657">
        <ele>568.0</ele>
        <time>2010-01-01T00:04:53Z</time>
      </trkpt>
      <trkpt lat="40.0721872" lon="-7.48903848">
        <ele>562.0</ele>
        <time>2010-01-01T00:05:07Z</time>
      </trkpt>
      <trkpt lat="40.0720747" lon="-7.48703314">
        <ele>557.0</ele>
        <time>2010-01-01T00:06:08Z</time>
      </trkpt>
      <trkpt lat="40.0713274" lon="-7.4855256">
        <ele>550.0</ele>
        <time>2010-01-01T00:07:03Z</time>
      </trkpt>
      <trkpt lat="40.0709326" lon="-7.48479239">
        <ele>548.0</ele>
        <time>2010-01-01T00:07:31Z</time>
      </trkpt>
      <trkpt lat="40.0708559" lon="-7.4844161">
        <ele>545.0</ele>
        <time>2010-01-01T00:07:43Z</time>
      </trkpt>
      <trkpt lat="40.0702992" lon="-7.48423045">
        <ele>544.0</ele>
        <time>2010-01-01T00:08:06Z</time>
      </trkpt>
      <trkpt lat="40.0696398" lon="-7.48385555">
        <ele>540.0</ele>
        <time>2010-01-01T00:08:35Z</time>
      </trkpt>
      <trkpt lat="40.0693551" lon="-7.48369855">
        <ele>541.0</ele>
        <time>2010-01-01T00:08:47Z</time>
      </trkpt>
      <trkpt lat="40.0692653" lon="-7.48355479">
        <ele>541.0</ele>
        <time>2010-01-01T00:08:53Z</time>
      </trkpt>
      <trkpt lat="40.0691086" lon="-7.48283906">
        <ele>542.0</ele>
        <time>2010-01-01T00:09:16Z</time>
      </trkpt>
      <trkpt lat="40.0690241" lon="-7.48235178">
        <ele>540.0</ele>
        <time>2010-01-01T00:09:31Z</time>
      </trkpt>
      <trkpt lat="40.0683398" lon="-7.48164322">
        <ele>530.0</ele>
        <time>2010-01-01T00:10:06Z</time>
      </trkpt>
      <trkpt lat="40.0681549" lon="-7.48144215">
        <ele>530.0</ele>
        <time>2010-01-01T00:10:15Z</time>
      </trkpt>
      <trkpt lat="40.0676866" lon="-7.48046438">
        <ele>527.0</ele>
        <time>2010-01-01T00:10:51Z</time>
      </trkpt>
      <trkpt lat="40.0671588" lon="-7.48002356">
        <ele>524.0</ele>
        <time>2010-01-01T00:11:16Z</time>
      </trkpt>
      <trkpt lat="40.0663148" lon="-7.47944339">
        <ele>518.0</ele>
        <time>2010-01-01T00:11:54Z</time>
      </trkpt>
      <trkpt lat="40.065991" lon="-7.47932233">
        <ele>518.0</ele>
        <time>2010-01-01T00:12:07Z</time>
      </trkpt>
      <trkpt lat="40.0651484" lon="-7.47899197">
        <ele>521.0</ele>
        <time>2010-01-01T00:12:43Z</time>
      </trkpt>
      <trkpt lat="40.0641597" lon="-7.47857094">
        <ele>518.0</ele>
        <time>2010-01-01T00:13:24Z</time>
      </trkpt>
      <trkpt lat="40.063476" lon="-7.47834148">
        <ele>515.0</ele>
        <time>2010-01-01T00:13:53Z</time>
      </trkpt>
      <trkpt lat="40.062506" lon="-7.47814087">
        <ele>511.0</ele>
        <time>2010-01-01T00:14:32Z</time>
      </trkpt>
      <trkpt lat="40.0616201" lon="-7.47808753">
        <ele>504.0</ele>
        <time>2010-01-01T00:15:07Z</time>
      </trkpt>
      <trkpt lat="40.060912" lon="-7.47804909">
        <ele>507.0</ele>
        <time>2010-01-01T00:15:36Z</time>
      </trkpt>
      <trkpt lat="40.0605343" lon="-7.4778147">
        <ele>509.0</ele>
        <time>2010-01-01T00:15:52Z</time>
      </trkpt>
      <trkpt lat="40.0596277" lon="-7.47767241">
        <ele>511.0</ele>
        <time>2010-01-01T00:16:29Z</time>
      </trkpt>
      <trkpt lat="40.058834" lon="-7.4775479">
        <ele>508.0</ele>
        <time>2010-01-01T00:17:01Z</time>
      </trkpt>
      <trkpt lat="40.0581447" lon="-7.47738167">
        <ele>506.0</ele>
        <time>2010-01-01T00:17:29Z</time>
      </trkpt>
      <trkpt lat="40.0573087" lon="-7.47730626">
        <ele>506.0</ele>
        <time>2010-01-01T00:18:03Z</time>
      </trkpt>
      <trkpt lat="40.0565172" lon="-7.47723004">
        <ele>509.0</ele>
        <time>2010-01-01T00:18:34Z</time>
      </trkpt>
      <trkpt lat="40.0563841" lon="-7.47722413">
        <ele>509.0</ele>
        <time>2010-01-01T00:18:40Z</time>
      </trkpt>
      <trkpt lat="40.0559746" lon="-7.47715145">
        <ele>509.0</ele>
        <time>2010-01-01T00:18:56Z</time>
      </trkpt>
      <trkpt lat="40.0558008" lon="-7.47721475">
        <ele>509.0</ele>
        <time>2010-01-01T00:19:04Z</time>
      </trkpt>
      <trkpt lat="40.0556967" lon="-7.47720903">
        <ele>509.0</ele>
        <time>2010-01-01T00:19:08Z</time>
      </trkpt>
      <trkpt lat="40.0550541" lon="-7.47698121">
        <ele>512.0</ele>
        <time>2010-01-01T00:19:34Z</time>
      </trkpt>
      <trkpt lat="40.054437" lon="-7.47706623">
        <ele>514.0</ele>
        <time>2010-01-01T00:19:59Z</time>
      </trkpt>
      <trkpt lat="40.0542303" lon="-7.47689405">
        <ele>508.0</ele>
        <time>2010-01-01T00:20:09Z</time>
      </trkpt>
      <trkpt lat="40.0537217" lon="-7.47668251">
        <ele>503.0</ele>
        <time>2010-01-01T00:20:30Z</time>
      </trkpt>
      <trkpt lat="40.0528795" lon="-7.47678504">
        <ele>507.0</ele>
        <time>2010-01-01T00:21:04Z</time>
      </trkpt>
      <trkpt lat="40.0531157" lon="-7.47574336">
        <ele>502.0</ele>
        <time>2010-01-01T00:21:38Z</time>
      </trkpt>
      <trkpt lat="40.0532758" lon="-7.47535886">
        <ele>503.0</ele>
        <time>2010-01-01T00:21:51Z</time>
      </trkpt>
      <trkpt lat="40.0536322" lon="-7.47529951">
        <ele>499.0</ele>
        <time>2010-01-01T00:22:05Z</time>
      </trkpt>
      <trkpt lat="40.0540738" lon="-7.47577771">
        <ele>495.0</ele>
        <time>2010-01-01T00:22:28Z</time>
      </trkpt>
      <trkpt lat="40.0544242" lon="-7.47570634">
        <ele>494.0</ele>
        <time>2010-01-01T00:22:42Z</time>
      </trkpt>
      <trkpt lat="40.0545434" lon="-7.47533475">
        <ele>492.0</ele>
        <time>2010-01-01T00:22:55Z</time>
      </trkpt>
      <trkpt lat="40.0548841" lon="-7.4737381">
        <ele>493.0</ele>
        <time>2010-01-01T00:23:46Z</time>
      </trkpt>
      <trkpt lat="40.0550725" lon="-7.47291319">
        <ele>490.0</ele>
        <time>2010-01-01T00:24:12Z</time>
      </trkpt>
      <trkpt lat="40.0551976" lon="-7.47173969">
        <ele>482.0</ele>
        <time>2010-01-01T00:24:48Z</time>
      </trkpt>
      <trkpt lat="40.0552904" lon="-7.46922228">
        <ele>467.0</ele>
        <time>2010-01-01T00:26:05Z</time>
      </trkpt>
      <trkpt lat="40.0551578" lon="-7.46887676">
        <ele>465.0</ele>
        <time>2010-01-01T00:26:17Z</time>
      </trkpt>
      <trkpt lat="40.0547496" lon="-7.4682748">
        <ele>464.0</ele>
        <time>2010-01-01T00:26:42Z</time>
      </trkpt>
      <trkpt lat="40.0540421" lon="-7.4675835">
        <ele>459.0</ele>
        <time>2010-01-01T00:27:17Z</time>
      </trkpt>
      <trkpt lat="40.0539857" lon="-7.46749481">
        <ele>459.0</ele>
        <time>2010-01-01T00:27:21Z</time>
      </trkpt>
      <trkpt lat="40.0541662" lon="-7.46687786">
        <ele>458.0</ele>
        <time>2010-01-01T00:27:41Z</time>
      </trkpt>
      <trkpt lat="40.0541952" lon="-7.46665718">
        <ele>458.0</ele>
        <time>2010-01-01T00:27:48Z</time>
      </trkpt>
      <trkpt lat="40.0548846" lon="-7.46575556">
        <ele>458.0</ele>
        <time>2010-01-01T00:28:27Z</time>
      </trkpt>
      <trkpt lat="40.0551802" lon="-7.4654942">
        <ele>457.0</ele>
        <time>2010-01-01T00:28:41Z</time>
      </trkpt>
      <trkpt lat="40.0559176" lon="-7.46471497">
        <ele>454.0</ele>
        <time>2010-01-01T00:29:19Z</time>
      </trkpt>
      <trkpt lat="40.0556173" lon="-7.46398629">
        <ele>455.0</ele>
        <time>2010-01-01T00:29:45Z</time>
      </trkpt>
      <trkpt lat="40.0555621" lon="-7.46392073">
        <ele>455.0</ele>
        <time>2010-01-01T00:29:48Z</time>
      </trkpt>
      <trkpt lat="40.0555379" lon="-7.46363015">
        <ele>456.0</ele>
        <time>2010-01-01T00:29:57Z</time>
      </trkpt>
      <trkpt lat="40.0554" lon="-7.46332002">
        <ele>457.0</ele>
        <time>2010-01-01T00:30:08Z</time>
      </trkpt>
      <trkpt lat="40.055127" lon="-7.46300839">
        <ele>455.0</ele>
        <time>2010-01-01T00:30:22Z</time>
      </trkpt>
      <trkpt lat="40.0548893" lon="-7.4626924">
        <ele>455.0</ele>
        <time>2010-01-01T00:30:36Z</time>
      </trkpt>
      <trkpt lat="40.0547361" lon="-7.46248737">
        <ele>455.0</ele>
        <time>2010-01-01T00:30:44Z</time>
      </trkpt>
      <trkpt lat="40.0545298" lon="-7.46211046">
        <ele>455.0</ele>
        <time>2010-01-01T00:30:59Z</time>
      </trkpt>
      <trkpt lat="40.0543721" lon="-7.46144965">
        <ele>453.0</ele>
        <time>2010-01-01T00:31:20Z</time>
      </trkpt>
      <trkpt lat="40.0543474" lon="-7.46122276">
        <ele>453.0</ele>
        <time>2010-01-01T00:31:27Z</time>
      </trkpt>
      <trkpt lat="40.0543341" lon="-7.46078423">
        <ele>454.0</ele>
        <time>2010-01-01T00:31:40Z</time>
      </trkpt>
      <trkpt lat="40.0543969" lon="-7.46063802">
        <ele>455.0</ele>
        <time>2010-01-01T00:31:45Z</time>
      </trkpt>
      <trkpt lat="40.0541802" lon="-7.46024372">
        <ele>452.0</ele>
        <time>2010-01-01T00:32:00Z</time>
      </trkpt>
      <trkpt lat="40.0540872" lon="-7.45980621">
        <ele>449.0</ele>
        <time>2010-01-01T00:32:14Z</time>
      </trkpt>
      <trkpt lat="40.0539976" lon="-7.45945054">
        <ele>447.0</ele>
        <time>2010-01-01T00:32:26Z</time>
      </trkpt>
      <trkpt lat="40.0538162" lon="-7.45918877">
        <ele>444.0</ele>
        <time>2010-01-01T00:32:37Z</time>
      </trkpt>
      <trkpt lat="40.0536591" lon="-7.45903458">
        <ele>442.0</ele>
        <time>2010-01-01T00:32:44Z</time>
      </trkpt>
      <trkpt lat="40.0534075" lon="-7.45921814">
        <ele>439.0</ele>
        <time>2010-01-01T00:32:56Z</time>
      </trkpt>
      <trkpt lat="40.0531803" lon="-7.45888299">
        <ele>436.0</ele>
        <time>2010-01-01T00:33:10Z</time>
      </trkpt>
      <trkpt lat="40.0531023" lon="-7.45879778">
        <ele>434.0</ele>
        <time>2010-01-01T00:33:14Z</time>
      </trkpt>
      <trkpt lat="40.0528002" lon="-7.45856958">
        <ele>428.0</ele>
        <time>2010-01-01T00:33:28Z</time>
      </trkpt>
      <trkpt lat="40.0527036" lon="-7.45851262">
        <ele>427.0</ele>
        <time>2010-01-01T00:33:32Z</time>
      </trkpt>
      <trkpt lat="40.0525878" lon="-7.4583426">
        <ele>425.0</ele>
        <time>2010-01-01T00:33:39Z</time>
      </trkpt>
      <trkpt lat="40.0523931" lon="-7.45846807">
        <ele>424.0</ele>
        <time>2010-01-01T00:33:48Z</time>
      </trkpt>
      <trkpt lat="40.0522292" lon="-7.45854145">
        <ele>423.0</ele>
        <time>2010-01-01T00:33:55Z</time>
      </trkpt>
      <trkpt lat="40.0519809" lon="-7.45863518">
        <ele>423.0</ele>
        <time>2010-01-01T00:34:05Z</time>
      </trkpt>
      <trkpt lat="40.0518582" lon="-7.45863736">
        <ele>423.0</ele>
        <time>2010-01-01T00:34:10Z</time>
      </trkpt>
      <trkpt lat="40.0516381" lon="-7.45856393">
        <ele>422.0</ele>
        <time>2010-01-01T00:34:19Z</time>
      </trkpt>
      <trkpt lat="40.051416" lon="-7.4582223">
        <ele>420.0</ele>
        <time>2010-01-01T00:34:33Z</time>
      </trkpt>
      <trkpt lat="40.0512875" lon="-7.4579845">
        <ele>419.0</ele>
        <time>2010-01-01T00:34:42Z</time>
      </trkpt>
      <trkpt lat="40.0510707" lon="-7.45784146">
        <ele>417.0</ele>
        <time>2010-01-01T00:34:51Z</time>
      </trkpt>
      <trkpt lat="40.0504022" lon="-7.45750451">
        <ele>408.0</ele>
        <time>2010-01-01T00:35:20Z</time>
      </trkpt>
      <trkpt lat="40.0503001" lon="-7.45737503">
        <ele>406.0</ele>
        <time>2010-01-01T00:35:26Z</time>
      </trkpt>
      <trkpt lat="40.0502752" lon="-7.45714441">
        <ele>404.0</ele>
        <time>2010-01-01T00:35:33Z</time>
      </trkpt>
      <trkpt lat="40.0503132" lon="-7.45679155">
        <ele>403.0</ele>
        <time>2010-01-01T00:35:44Z</time>
      </trkpt>
      <trkpt lat="40.0502434" lon="-7.45619811">
        <ele>397.0</ele>
        <time>2010-01-01T00:36:02Z</time>
      </trkpt>
      <trkpt lat="40.0503131" lon="-7.45589515">
        <ele>395.0</ele>
        <time>2010-01-01T00:36:12Z</time>
      </trkpt>
      <trkpt lat="40.0505266" lon="-7.45558789">
        <ele>397.0</ele>
        <time>2010-01-01T00:36:24Z</time>
      </trkpt>
      <trkpt lat="40.0508717" lon="-7.45520684">
        <ele>399.0</ele>
        <time>2010-01-01T00:36:43Z</time>
      </trkpt>
      <trkpt lat="40.0510015" lon="-7.45481349">
        <ele>396.0</ele>
        <time>2010-01-01T00:36:56Z</time>
      </trkpt>
      <trkpt lat="40.0509808" lon="-7.45446551">
        <ele>392.0</ele>
        <time>2010-01-01T00:37:06Z</time>
      </trkpt>
      <trkpt lat="40.0508282" lon="-7.45405146">
        <ele>389.0</ele>
        <time>2010-01-01T00:37:20Z</time>
      </trkpt>
      <trkpt lat="40.0506519" lon="-7.45387661">
        <ele>387.0</ele>
        <time>2010-01-01T00:37:29Z</time>
      </trkpt>
      <trkpt lat="40.0505389" lon="-7.45357638">
        <ele>384.0</ele>
        <time>2010-01-01T00:37:40Z</time>
      </trkpt>
      <trkpt lat="40.0504023" lon="-7.45319594">
        <ele>381.0</ele>
        <time>2010-01-01T00:37:52Z</time>
      </trkpt>
      <trkpt lat="40.0505065" lon="-7.45274711">
        <ele>380.0</ele>
        <time>2010-01-01T00:38:07Z</time>
      </trkpt>
      <trkpt lat="40.050381" lon="-7.45243492">
        <ele>381.0</ele>
        <time>2010-01-01T00:38:18Z</time>
      </trkpt>
      <trkpt lat="40.050241" lon="-7.45210248">
        <ele>382.0</ele>
        <time>2010-01-01T00:38:29Z</time>
      </trkpt>
      <trkpt lat="40.0502277" lon="-7.45178115">
        <ele>381.0</ele>
        <time>2010-01-01T00:38:39Z</time>
      </trkpt>
      <trkpt lat="40.050188" lon="-7.45135876">
        <ele>380.0</ele>
        <time>2010-01-01T00:38:52Z</time>
      </trkpt>
      <trkpt lat="40.0499379" lon="-7.45112203">
        <ele>380.0</ele>
        <time>2010-01-01T00:39:05Z</time>
      </trkpt>
      <trkpt lat="40.0494796" lon="-7.45074854">
        <ele>381.0</ele>
        <time>2010-01-01T00:39:26Z</time>
      </trkpt>
      <trkpt lat="40.0493866" lon="-7.45051134">
        <ele>382.0</ele>
        <time>2010-01-01T00:39:34Z</time>
      </trkpt>
      <trkpt lat="40.0493264" lon="-7.45015496">
        <ele>381.0</ele>
        <time>2010-01-01T00:39:46Z</time>
      </trkpt>
      <trkpt lat="40.0493081" lon="-7.44999036">
        <ele>380.0</ele>
        <time>2010-01-01T00:39:51Z</time>
      </trkpt>
      <trkpt lat="40.049421" lon="-7.44964168">
        <ele>378.0</ele>
        <time>2010-01-01T00:40:02Z</time>
      </trkpt>
      <trkpt lat="40.0496" lon="-7.4494627">
        <ele>378.0</ele>
        <time>2010-01-01T00:40:11Z</time>
      </trkpt>
      <trkpt lat="40.0496741" lon="-7.44912087">
        <ele>377.0</ele>
        <time>2010-01-01T00:40:22Z</time>
      </trkpt>
      <trkpt lat="40.0497659" lon="-7.44877516">
        <ele>375.0</ele>
        <time>2010-01-01T00:40:33Z</time>
      </trkpt>
      <trkpt lat="40.049984" lon="-7.4481335">
        <ele>373.0</ele>
        <time>2010-01-01T00:40:55Z</time>
      </trkpt>
      <trkpt lat="40.0501626" lon="-7.44794043">
        <ele>373.0</ele>
        <time>2010-01-01T00:41:04Z</time>
      </trkpt>
      <trkpt lat="40.0505122" lon="-7.44757518">
        <ele>376.0</ele>
        <time>2010-01-01T00:41:22Z</time>
      </trkpt>
      <trkpt lat="40.0507168" lon="-7.44727462">
        <ele>376.0</ele>
        <time>2010-01-01T00:41:34Z</time>
      </trkpt>
      <trkpt lat="40.0510006" lon="-7.44687368">
        <ele>376.0</ele>
        <time>2010-01-01T00:41:51Z</time>
      </trkpt>
      <trkpt lat="40.0512786" lon="-7.44648847">
        <ele>377.0</ele>
        <time>2010-01-01T00:42:07Z</time>
      </trkpt>
      <trkpt lat="40.05171" lon="-7.44589947">
        <ele>379.0</ele>
        <time>2010-01-01T00:42:32Z</time>
      </trkpt>
      <trkpt lat="40.051817" lon="-7.44565305">
        <ele>379.0</ele>
        <time>2010-01-01T00:42:41Z</time>
      </trkpt>
      <trkpt lat="40.0520458" lon="-7.44505307">
        <ele>380.0</ele>
        <time>2010-01-01T00:43:02Z</time>
      </trkpt>
      <trkpt lat="40.0524026" lon="-7.44385367">
        <ele>379.0</ele>
        <time>2010-01-01T00:43:41Z</time>
      </trkpt>
      <trkpt lat="40.0526329" lon="-7.44295251">
        <ele>381.0</ele>
        <time>2010-01-01T00:44:10Z</time>
      </trkpt>
      <trkpt lat="40.0527919" lon="-7.44228428">
        <ele>382.0</ele>
        <time>2010-01-01T00:44:31Z</time>
      </trkpt>
      <trkpt lat="40.05288" lon="-7.44179818">
        <ele>381.0</ele>
        <time>2010-01-01T00:44:47Z</time>
      </trkpt>
      <trkpt lat="40.0529779" lon="-7.4408858">
        <ele>380.0</ele>
        <time>2010-01-01T00:45:15Z</time>
      </trkpt>
      <trkpt lat="40.0530201" lon="-7.44056052">
        <ele>380.0</ele>
        <time>2010-01-01T00:45:25Z</time>
      </trkpt>
      <trkpt lat="40.0531063" lon="-7.44017218">
        <ele>381.0</ele>
        <time>2010-01-01T00:45:38Z</time>
      </trkpt>
      <trkpt lat="40.0532242" lon="-7.43963917">
        <ele>380.0</ele>
        <time>2010-01-01T00:45:55Z</time>
      </trkpt>
      <trkpt lat="40.0532863" lon="-7.43929679">
        <ele>379.0</ele>
        <time>2010-01-01T00:46:05Z</time>
      </trkpt>
      <trkpt lat="40.0534002" lon="-7.43864031">
        <ele>380.0</ele>
        <time>2010-01-01T00:46:26Z</time>
      </trkpt>
      <trkpt lat="40.0534414" lon="-7.43830061">
        <ele>380.0</ele>
        <time>2010-01-01T00:46:36Z</time>
      </trkpt>
      <trkpt lat="40.0534165" lon="-7.43784682">
        <ele>378.0</ele>
        <time>2010-01-01T00:46:50Z</time>
      </trkpt>
      <trkpt lat="40.0533809" lon="-7.43764404">
        <ele>378.0</ele>
        <time>2010-01-01T00:46:57Z</time>
      </trkpt>
      <trkpt lat="40.0535778" lon="-7.43679916">
        <ele>378.0</ele>
        <time>2010-01-01T00:47:24Z</time>
      </trkpt>
      <trkpt lat="40.0536812" lon="-7.43636888">
        <ele>378.0</ele>
        <time>2010-01-01T00:47:38Z</time>
      </trkpt>
      <trkpt lat="40.0538644" lon="-7.43568192">
        <ele>378.0</ele>
        <time>2010-01-01T00:48:00Z</time>
      </trkpt>
      <trkpt lat="40.0539863" lon="-7.43531938">
        <ele>378.0</ele>
        <time>2010-01-01T00:48:12Z</time>
      </trkpt>
      <trkpt lat="40.0541405" lon="-7.43503114">
        <ele>378.0</ele>
        <time>2010-01-01T00:48:23Z</time>
      </trkpt>
      <trkpt lat="40.0540261" lon="-7.43484678">
        <ele>378.0</ele>
        <time>2010-01-01T00:48:30Z</time>
      </trkpt>
      <trkpt lat="40.053933" lon="-7.43475376">
        <ele>378.0</ele>
        <time>2010-01-01T00:48:35Z</time>
      </trkpt>
      <trkpt lat="40.0538261" lon="-7.43485895">
        <ele>377.0</ele>
        <time>2010-01-01T00:48:40Z</time>
      </trkpt>
      <trkpt lat="40.0536986" lon="-7.43509381">
        <ele>377.0</ele>
        <time>2010-01-01T00:48:49Z</time>
      </trkpt>
      <trkpt lat="40.0535234" lon="-7.43499679">
        <ele>376.0</ele>
        <time>2010-01-01T00:48:57Z</time>
      </trkpt>
      <trkpt lat="40.0531732" lon="-7.43479125">
        <ele>375.0</ele>
        <time>2010-01-01T00:49:12Z</time>
      </trkpt>
      <trkpt lat="40.0528539" lon="-7.43466598">
        <ele>374.0</ele>
        <time>2010-01-01T00:49:25Z</time>
      </trkpt>
      <trkpt lat="40.0525844" lon="-7.43453813">
        <ele>372.0</ele>
        <time>2010-01-01T00:49:37Z</time>
      </trkpt>
      <trkpt lat="40.0521657" lon="-7.43458037">
        <ele>371.0</ele>
        <time>2010-01-01T00:49:54Z</time>
      </trkpt>
      <trkpt lat="40.0520916" lon="-7.43455763">
        <ele>371.0</ele>
        <time>2010-01-01T00:49:57Z</time>
      </trkpt>
      <trkpt lat="40.0517489" lon="-7.43443426">
        <ele>370.0</ele>
        <time>2010-01-01T00:50:11Z</time>
      </trkpt>
      <trkpt lat="40.0515179" lon="-7.43415924">
        <ele>369.0</ele>
        <time>2010-01-01T00:50:23Z</time>
      </trkpt>
      <trkpt lat="40.0513939" lon="-7.43375982">
        <ele>369.0</ele>
        <time>2010-01-01T00:50:37Z</time>
      </trkpt>
      <trkpt lat="40.0513644" lon="-7.43345392">
        <ele>370.0</ele>
        <time>2010-01-01T00:50:46Z</time>
      </trkpt>
      <trkpt lat="40.051255" lon="-7.43327667">
        <ele>370.0</ele>
        <time>2010-01-01T00:50:53Z</time>
      </trkpt>
      <trkpt lat="40.0509322" lon="-7.43326818">
        <ele>368.0</ele>
        <time>2010-01-01T00:51:06Z</time>
      </trkpt>
      <trkpt lat="40.0508377" lon="-7.43317863">
        <ele>368.0</ele>
        <time>2010-01-01T00:51:11Z</time>
      </trkpt>
      <trkpt lat="40.0508226" lon="-7.43276931">
        <ele>368.0</ele>
        <time>2010-01-01T00:51:23Z</time>
      </trkpt>
      <trkpt lat="40.0508425" lon="-7.43237842">
        <ele>369.0</ele>
        <time>2010-01-01T00:51:35Z</time>
      </trkpt>
      <trkpt lat="40.0508418" lon="-7.43194075">
        <ele>369.0</ele>
        <time>2010-01-01T00:51:49Z</time>
      </trkpt>
      <trkpt lat="40.0507714" lon="-7.43125021">
        <ele>368.0</ele>
        <time>2010-01-01T00:52:10Z</time>
      </trkpt>
      <trkpt lat="40.0507954" lon="-7.43096674">
        <ele>368.0</ele>
        <time>2010-01-01T00:52:19Z</time>
      </trkpt>
      <trkpt lat="40.050643" lon="-7.43077264">
        <ele>367.0</ele>
        <time>2010-01-01T00:52:27Z</time>
      </trkpt>
      <trkpt lat="40.0506189" lon="-7.43036813">
        <ele>366.0</ele>
        <time>2010-01-01T00:52:40Z</time>
      </trkpt>
      <trkpt lat="40.0506214" lon="-7.42976478">
        <ele>363.0</ele>
        <time>2010-01-01T00:52:58Z</time>
      </trkpt>
      <trkpt lat="40.0502898" lon="-7.42931989">
        <ele>362.0</ele>
        <time>2010-01-01T00:53:17Z</time>
      </trkpt>
      <trkpt lat="40.0501812" lon="-7.42923033">
        <ele>362.0</ele>
        <time>2010-01-01T00:53:22Z</time>
      </trkpt>
      <trkpt lat="40.0496776" lon="-7.42925519">
        <ele>364.0</ele>
        <time>2010-01-01T00:53:42Z</time>
      </trkpt>
      <trkpt lat="40.0492943" lon="-7.42926422">
        <ele>365.0</ele>
        <time>2010-01-01T00:53:58Z</time>
      </trkpt>
      <trkpt lat="40.0491378" lon="-7.42876127">
        <ele>365.0</ele>
        <time>2010-01-01T00:54:14Z</time>
      </trkpt>
      <trkpt lat="40.0490293" lon="-7.42861069">
        <ele>365.0</ele>
        <time>2010-01-01T00:54:21Z</time>
      </trkpt>
      <trkpt lat="40.0488505" lon="-7.42845297">
        <ele>365.0</ele>
        <time>2010-01-01T00:54:29Z</time>
      </trkpt>
      <trkpt lat="40.048728" lon="-7.42837988">
        <ele>366.0</ele>
        <time>2010-01-01T00:54:35Z</time>
      </trkpt>
      <trkpt lat="40.048728" lon="-7.42826809">
        <ele>367.0</ele>
        <time>2010-01-01T00:54:38Z</time>
      </trkpt>
      <trkpt lat="40.0488933" lon="-7.42782009">
        <ele>367.0</ele>
        <time>2010-01-01T00:54:54Z</time>
      </trkpt>
      <trkpt lat="40.0490035" lon="-7.42735981">
        <ele>366.0</ele>
        <time>2010-01-01T00:55:08Z</time>
      </trkpt>
      <trkpt lat="40.0490373" lon="-7.42675782">
        <ele>366.0</ele>
        <time>2010-01-01T00:55:27Z</time>
      </trkpt>
      <trkpt lat="40.0490371" lon="-7.42595549">
        <ele>364.0</ele>
        <time>2010-01-01T00:55:51Z</time>
      </trkpt>
      <trkpt lat="40.0490198" lon="-7.42520764">
        <ele>365.0</ele>
        <time>2010-01-01T00:56:14Z</time>
      </trkpt>
      <trkpt lat="40.0489114" lon="-7.42485304">
        <ele>366.0</ele>
        <time>2010-01-01T00:56:26Z</time>
      </trkpt>
      <trkpt lat="40.0487218" lon="-7.42453259">
        <ele>366.0</ele>
        <time>2010-01-01T00:56:38Z</time>
      </trkpt>
      <trkpt lat="40.0486416" lon="-7.42433556">
        <ele>366.0</ele>
        <time>2010-01-01T00:56:45Z</time>
      </trkpt>
      <trkpt lat="40.0485176" lon="-7.42401549">
        <ele>367.0</ele>
        <time>2010-01-01T00:56:56Z</time>
      </trkpt>
      <trkpt lat="40.0483979" lon="-7.423464">
        <ele>367.0</ele>
        <time>2010-01-01T00:57:14Z</time>
      </trkpt>
      <trkpt lat="40.0483113" lon="-7.42315485">
        <ele>368.0</ele>
        <time>2010-01-01T00:57:24Z</time>
      </trkpt>
      <trkpt lat="40.0481796" lon="-7.42281528">
        <ele>369.0</ele>
        <time>2010-01-01T00:57:36Z</time>
      </trkpt>
      <trkpt lat="40.0481306" lon="-7.42270842">
        <ele>369.0</ele>
        <time>2010-01-01T00:57:39Z</time>
      </trkpt>
      <trkpt lat="40.0478746" lon="-7.42232618">
        <ele>373.0</ele>
        <time>2010-01-01T00:57:55Z</time>
      </trkpt>
      <trkpt lat="40.0477662" lon="-7.42212319">
        <ele>373.0</ele>
        <time>2010-01-01T00:58:03Z</time>
      </trkpt>
      <trkpt lat="40.0477006" lon="-7.4219258">
        <ele>373.0</ele>
        <time>2010-01-01T00:58:09Z</time>
      </trkpt>
      <trkpt lat="40.0476556" lon="-7.4213863">
        <ele>374.0</ele>
        <time>2010-01-01T00:58:26Z</time>
      </trkpt>
      <trkpt lat="40.04764" lon="-7.42118959">
        <ele>375.0</ele>
        <time>2010-01-01T00:58:32Z</time>
      </trkpt>
      <trkpt lat="40.0479937" lon="-7.42091559">
        <ele>372.0</ele>
        <time>2010-01-01T00:58:48Z</time>
      </trkpt>
      <trkpt lat="40.048509" lon="-7.42061825">
        <ele>370.0</ele>
        <time>2010-01-01T00:59:11Z</time>
      </trkpt>
      <trkpt lat="40.0489606" lon="-7.42042573">
        <ele>368.0</ele>
        <time>2010-01-01T00:59:30Z</time>
      </trkpt>
      <trkpt lat="40.0491628" lon="-7.42033213">
        <ele>366.0</ele>
        <time>2010-01-01T00:59:38Z</time>
      </trkpt>
      <trkpt lat="40.0496112" lon="-7.41979601">
        <ele>366.0</ele>
        <time>2010-01-01T01:00:03Z</time>
      </trkpt>
      <trkpt lat="40.0499054" lon="-7.41941931">
        <ele>365.0</ele>
        <time>2010-01-01T01:00:19Z</time>
      </trkpt>
      <trkpt lat="40.0502136" lon="-7.41901985">
        <ele>364.0</ele>
        <time>2010-01-01T01:00:37Z</time>
      </trkpt>
      <trkpt lat="40.0505506" lon="-7.41843978">
        <ele>363.0</ele>
        <time>2010-01-01T01:00:59Z</time>
      </trkpt>
      <trkpt lat="40.0506805" lon="-7.41793992">
        <ele>363.0</ele>
        <time>2010-01-01T01:01:15Z</time>
      </trkpt>
      <trkpt lat="40.0508724" lon="-7.41752848">
        <ele>363.0</ele>
        <time>2010-01-01T01:01:30Z</time>
      </trkpt>
      <trkpt lat="40.0508679" lon="-7.41735818">
        <ele>363.0</ele>
        <time>2010-01-01T01:01:35Z</time>
      </trkpt>
      <trkpt lat="40.0510178" lon="-7.41710584">
        <ele>362.0</ele>
        <time>2010-01-01T01:01:45Z</time>
      </trkpt>
      <trkpt lat="40.0512945" lon="-7.41683539">
        <ele>361.0</ele>
        <time>2010-01-01T01:01:59Z</time>
      </trkpt>
      <trkpt lat="40.0515059" lon="-7.41677356">
        <ele>361.0</ele>
        <time>2010-01-01T01:02:07Z</time>
      </trkpt>
      <trkpt lat="40.0516117" lon="-7.41689066">
        <ele>361.0</ele>
        <time>2010-01-01T01:02:13Z</time>
      </trkpt>
      <trkpt lat="40.051769" lon="-7.41694599">
        <ele>361.0</ele>
        <time>2010-01-01T01:02:19Z</time>
      </trkpt>
      <trkpt lat="40.0519141" lon="-7.4168567">
        <ele>361.0</ele>
        <time>2010-01-01T01:02:26Z</time>
      </trkpt>
      <trkpt lat="40.0520499" lon="-7.4166704">
        <ele>361.0</ele>
        <time>2010-01-01T01:02:34Z</time>
      </trkpt>
      <trkpt lat="40.0523844" lon="-7.41628264">
        <ele>363.0</ele>
        <time>2010-01-01T01:02:52Z</time>
      </trkpt>
      <trkpt lat="40.0525131" lon="-7.41620442">
        <ele>364.0</ele>
        <time>2010-01-01T01:02:57Z</time>
      </trkpt>
      <trkpt lat="40.0523525" lon="-7.4154308">
        <ele>366.0</ele>
        <time>2010-01-01T01:03:22Z</time>
      </trkpt>
      <trkpt lat="40.0520996" lon="-7.41500659">
        <ele>367.0</ele>
        <time>2010-01-01T01:03:38Z</time>
      </trkpt>
      <trkpt lat="40.0516827" lon="-7.41434692">
        <ele>361.0</ele>
        <time>2010-01-01T01:04:05Z</time>
      </trkpt>
      <trkpt lat="40.0514322" lon="-7.41392582">
        <ele>364.0</ele>
        <time>2010-01-01T01:04:21Z</time>
      </trkpt>
      <trkpt lat="40.0510191" lon="-7.41377867">
        <ele>363.0</ele>
        <time>2010-01-01T01:04:38Z</time>
      </trkpt>
      <trkpt lat="40.0509049" lon="-7.41363993">
        <ele>363.0</ele>
        <time>2010-01-01T01:04:44Z</time>
      </trkpt>
      <trkpt lat="40.0506971" lon="-7.41327232">
        <ele>362.0</ele>
        <time>2010-01-01T01:04:58Z</time>
      </trkpt>
      <trkpt lat="40.0504618" lon="-7.41264715">
        <ele>363.0</ele>
        <time>2010-01-01T01:05:20Z</time>
      </trkpt>
      <trkpt lat="40.0503053" lon="-7.4122996">
        <ele>363.0</ele>
        <time>2010-01-01T01:05:32Z</time>
      </trkpt>
      <trkpt lat="40.0500275" lon="-7.41200946">
        <ele>362.0</ele>
        <time>2010-01-01T01:05:46Z</time>
      </trkpt>
      <trkpt lat="40.0496606" lon="-7.41139526">
        <ele>360.0</ele>
        <time>2010-01-01T01:06:10Z</time>
      </trkpt>
      <trkpt lat="40.0493021" lon="-7.41079909">
        <ele>358.0</ele>
        <time>2010-01-01T01:06:33Z</time>
      </trkpt>
      <trkpt lat="40.0489385" lon="-7.41017009">
        <ele>358.0</ele>
        <time>2010-01-01T01:06:58Z</time>
      </trkpt>
      <trkpt lat="40.0486547" lon="-7.40966552">
        <ele>357.0</ele>
        <time>2010-01-01T01:07:17Z</time>
      </trkpt>
      <trkpt lat="40.0490522" lon="-7.40899096">
        <ele>360.0</ele>
        <time>2010-01-01T01:07:43Z</time>
      </trkpt>
      <trkpt lat="40.0493118" lon="-7.40865641">
        <ele>362.0</ele>
        <time>2010-01-01T01:07:57Z</time>
      </trkpt>
      <trkpt lat="40.0495573" lon="-7.40820939">
        <ele>366.0</ele>
        <time>2010-01-01T01:08:14Z</time>
      </trkpt>
      <trkpt lat="40.0499398" lon="-7.40758249">
        <ele>374.0</ele>
        <time>2010-01-01T01:08:39Z</time>
      </trkpt>
      <trkpt lat="40.0502409" lon="-7.40690584">
        <ele>378.0</ele>
        <time>2010-01-01T01:09:03Z</time>
      </trkpt>
      <trkpt lat="40.0503716" lon="-7.40671672">
        <ele>380.0</ele>
        <time>2010-01-01T01:09:11Z</time>
      </trkpt>
      <trkpt lat="40.0504096" lon="-7.40628903">
        <ele>378.0</ele>
        <time>2010-01-01T01:09:24Z</time>
      </trkpt>
      <trkpt lat="40.0503418" lon="-7.405456">
        <ele>375.0</ele>
        <time>2010-01-01T01:09:49Z</time>
      </trkpt>
      <trkpt lat="40.0503142" lon="-7.40504369">
        <ele>375.0</ele>
        <time>2010-01-01T01:10:02Z</time>
      </trkpt>
      <trkpt lat="40.0502521" lon="-7.40483341">
        <ele>373.0</ele>
        <time>2010-01-01T01:10:09Z</time>
      </trkpt>
      <trkpt lat="40.0502983" lon="-7.40447989">
        <ele>370.0</ele>
        <time>2010-01-01T01:10:20Z</time>
      </trkpt>
      <trkpt lat="40.050333" lon="-7.40358123">
        <ele>367.0</ele>
        <time>2010-01-01T01:10:48Z</time>
      </trkpt>
      <trkpt lat="40.0504724" lon="-7.40282723">
        <ele>363.0</ele>
        <time>2010-01-01T01:11:11Z</time>
      </trkpt>
      <trkpt lat="40.0505172" lon="-7.40241129">
        <ele>360.0</ele>
        <time>2010-01-01T01:11:24Z</time>
      </trkpt>
      <trkpt lat="40.0506083" lon="-7.40180577">
        <ele>358.0</ele>
        <time>2010-01-01T01:11:43Z</time>
      </trkpt>
      <trkpt lat="40.050676" lon="-7.40132526">
        <ele>359.0</ele>
        <time>2010-01-01T01:11:58Z</time>
      </trkpt>
      <trkpt lat="40.0506418" lon="-7.40114695">
        <ele>359.0</ele>
        <time>2010-01-01T01:12:04Z</time>
      </trkpt>
      <trkpt lat="40.0504756" lon="-7.40105725">
        <ele>358.0</ele>
        <time>2010-01-01T01:12:11Z</time>
      </trkpt>
      <trkpt lat="40.0502963" lon="-7.40050479">
        <ele>358.0</ele>
        <time>2010-01-01T01:12:29Z</time>
      </trkpt>
      <trkpt lat="40.0501964" lon="-7.40028593">
        <ele>358.0</ele>
        <time>2010-01-01T01:12:37Z</time>
      </trkpt>
      <trkpt lat="40.0500807" lon="-7.40015648">
        <ele>357.0</ele>
        <time>2010-01-01T01:12:43Z</time>
      </trkpt>
      <trkpt lat="40.049877" lon="-7.4001024">
        <ele>357.0</ele>
        <time>2010-01-01T01:12:52Z</time>
      </trkpt>
      <trkpt lat="40.0494504" lon="-7.39999487">
        <ele>357.0</ele>
        <time>2010-01-01T01:13:09Z</time>
      </trkpt>
      <trkpt lat="40.049366" lon="-7.39999915">
        <ele>357.0</ele>
        <time>2010-01-01T01:13:12Z</time>
      </trkpt>
      <trkpt lat="40.0493406" lon="-7.39981716">
        <ele>358.0</ele>
        <time>2010-01-01T01:13:18Z</time>
      </trkpt>
      <trkpt lat="40.0494759" lon="-7.39888663">
        <ele>362.0</ele>
        <time>2010-01-01T01:13:47Z</time>
      </trkpt>
      <trkpt lat="40.04939" lon="-7.39736825">
        <ele>367.0</ele>
        <time>2010-01-01T01:14:34Z</time>
      </trkpt>
      <trkpt lat="40.0494151" lon="-7.39628534">
        <ele>371.0</ele>
        <time>2010-01-01T01:15:07Z</time>
      </trkpt>
      <trkpt lat="40.0494554" lon="-7.39560772">
        <ele>367.0</ele>
        <time>2010-01-01T01:15:28Z</time>
      </trkpt>
      <trkpt lat="40.0493741" lon="-7.39500805">
        <ele>366.0</ele>
        <time>2010-01-01T01:15:46Z</time>
      </trkpt>
      <trkpt lat="40.0491168" lon="-7.393903">
        <ele>363.0</ele>
        <time>2010-01-01T01:16:22Z</time>
      </trkpt>
      <trkpt lat="40.0490661" lon="-7.39366801">
        <ele>362.0</ele>
        <time>2010-01-01T01:16:29Z</time>
      </trkpt>
      <trkpt lat="40.0490192" lon="-7.39313473">
        <ele>361.0</ele>
        <time>2010-01-01T01:16:46Z</time>
      </trkpt>
      <trkpt lat="40.0490421" lon="-7.39263699">
        <ele>360.0</ele>
        <time>2010-01-01T01:17:01Z</time>
      </trkpt>
      <trkpt lat="40.0493107" lon="-7.39160366">
        <ele>358.0</ele>
        <time>2010-01-01T01:17:34Z</time>
      </trkpt>
      <trkpt lat="40.049343" lon="-7.39143939">
        <ele>358.0</ele>
        <time>2010-01-01T01:17:40Z</time>
      </trkpt>
      <trkpt lat="40.049494" lon="-7.39126507">
        <ele>357.0</ele>
        <time>2010-01-01T01:17:48Z</time>
      </trkpt>
      <trkpt lat="40.0497007" lon="-7.3907581">
        <ele>358.0</ele>
        <time>2010-01-01T01:18:05Z</time>
      </trkpt>
      <trkpt lat="40.0496858" lon="-7.39023052">
        <ele>359.0</ele>
        <time>2010-01-01T01:18:21Z</time>
      </trkpt>
      <trkpt lat="40.0498224" lon="-7.3899624">
        <ele>361.0</ele>
        <time>2010-01-01T01:18:31Z</time>
      </trkpt>
      <trkpt lat="40.0499759" lon="-7.38978214">
        <ele>363.0</ele>
        <time>2010-01-01T01:18:40Z</time>
      </trkpt>
      <trkpt lat="40.0502411" lon="-7.38932232">
        <ele>365.0</ele>
        <time>2010-01-01T01:18:57Z</time>
      </trkpt>
      <trkpt lat="40.0503583" lon="-7.38904797">
        <ele>367.0</ele>
        <time>2010-01-01T01:19:07Z</time>
      </trkpt>
      <trkpt lat="40.0504089" lon="-7.38856766">
        <ele>369.0</ele>
        <time>2010-01-01T01:19:22Z</time>
      </trkpt>
      <trkpt lat="40.0502791" lon="-7.38806993">
        <ele>368.0</ele>
        <time>2010-01-01T01:19:38Z</time>
      </trkpt>
      <trkpt lat="40.0500926" lon="-7.38766785">
        <ele>368.0</ele>
        <time>2010-01-01T01:19:52Z</time>
      </trkpt>
      <trkpt lat="40.0499314" lon="-7.38731081">
        <ele>368.0</ele>
        <time>2010-01-01T01:20:05Z</time>
      </trkpt>
      <trkpt lat="40.0496287" lon="-7.38652905">
        <ele>369.0</ele>
        <time>2010-01-01T01:20:32Z</time>
      </trkpt>
      <trkpt lat="40.0494632" lon="-7.38595698">
        <ele>369.0</ele>
        <time>2010-01-01T01:20:51Z</time>
      </trkpt>
      <trkpt lat="40.0494034" lon="-7.38552217">
        <ele>366.0</ele>
        <time>2010-01-01T01:21:04Z</time>
      </trkpt>
      <trkpt lat="40.0493446" lon="-7.38519571">
        <ele>364.0</ele>
        <time>2010-01-01T01:21:14Z</time>
      </trkpt>
      <trkpt lat="40.049375" lon="-7.38481341">
        <ele>363.0</ele>
        <time>2010-01-01T01:21:26Z</time>
      </trkpt>
      <trkpt lat="40.0495184" lon="-7.384107">
        <ele>362.0</ele>
        <time>2010-01-01T01:21:49Z</time>
      </trkpt>
      <trkpt lat="40.0495527" lon="-7.38364659">
        <ele>362.0</ele>
        <time>2010-01-01T01:22:03Z</time>
      </trkpt>
      <trkpt lat="40.04942" lon="-7.38332003">
        <ele>358.0</ele>
        <time>2010-01-01T01:22:14Z</time>
      </trkpt>
      <trkpt lat="40.049169" lon="-7.38291682">
        <ele>355.0</ele>
        <time>2010-01-01T01:22:30Z</time>
      </trkpt>
      <trkpt lat="40.0490807" lon="-7.38254248">
        <ele>354.0</ele>
        <time>2010-01-01T01:22:42Z</time>
      </trkpt>
      <trkpt lat="40.0489093" lon="-7.38215906">
        <ele>353.0</ele>
        <time>2010-01-01T01:22:56Z</time>
      </trkpt>
      <trkpt lat="40.0487719" lon="-7.3820626">
        <ele>353.0</ele>
        <time>2010-01-01T01:23:02Z</time>
      </trkpt>
      <trkpt lat="40.0486561" lon="-7.38198481">
        <ele>353.0</ele>
        <time>2010-01-01T01:23:07Z</time>
      </trkpt>
      <trkpt lat="40.0485531" lon="-7.38182814">
        <ele>354.0</ele>
        <time>2010-01-01T01:23:13Z</time>
      </trkpt>
      <trkpt lat="40.0484778" lon="-7.38169728">
        <ele>354.0</ele>
        <time>2010-01-01T01:23:18Z</time>
      </trkpt>
      <trkpt lat="40.0484499" lon="-7.38154239">
        <ele>354.0</ele>
        <time>2010-01-01T01:23:23Z</time>
      </trkpt>
      <trkpt lat="40.0486006" lon="-7.381313">
        <ele>355.0</ele>
        <time>2010-01-01T01:23:32Z</time>
      </trkpt>
      <trkpt lat="40.0486685" lon="-7.38099949">
        <ele>356.0</ele>
        <time>2010-01-01T01:23:42Z</time>
      </trkpt>
      <trkpt lat="40.0488531" lon="-7.38079593">
        <ele>356.0</ele>
        <time>2010-01-01T01:23:52Z</time>
      </trkpt>
      <trkpt lat="40.0488511" lon="-7.38048951">
        <ele>358.0</ele>
        <time>2010-01-01T01:24:02Z</time>
      </trkpt>
      <trkpt lat="40.0489059" lon="-7.38010178">
        <ele>361.0</ele>
        <time>2010-01-01T01:24:14Z</time>
      </trkpt>
      <trkpt lat="40.0489744" lon="-7.37998436">
        <ele>363.0</ele>
        <time>2010-01-01T01:24:18Z</time>
      </trkpt>
      <trkpt lat="40.0492491" lon="-7.37971547">
        <ele>366.0</ele>
        <time>2010-01-01T01:24:32Z</time>
      </trkpt>
      <trkpt lat="40.0493175" lon="-7.37940196">
        <ele>368.0</ele>
        <time>2010-01-01T01:24:42Z</time>
      </trkpt>
      <trkpt lat="40.0493517" lon="-7.37847578">
        <ele>371.0</ele>
        <time>2010-01-01T01:25:10Z</time>
      </trkpt>
      <trkpt lat="40.0492889" lon="-7.37806603">
        <ele>371.0</ele>
        <time>2010-01-01T01:25:23Z</time>
      </trkpt>
      <trkpt lat="40.0492305" lon="-7.37750389">
        <ele>371.0</ele>
        <time>2010-01-01T01:25:40Z</time>
      </trkpt>
      <trkpt lat="40.0491761" lon="-7.37662383">
        <ele>376.0</ele>
        <time>2010-01-01T01:26:08Z</time>
      </trkpt>
      <trkpt lat="40.049048" lon="-7.37620997">
        <ele>378.0</ele>
        <time>2010-01-01T01:26:21Z</time>
      </trkpt>
      <trkpt lat="40.048866" lon="-7.37584915">
        <ele>380.0</ele>
        <time>2010-01-01T01:26:34Z</time>
      </trkpt>
      <trkpt lat="40.0488476" lon="-7.37563032">
        <ele>381.0</ele>
        <time>2010-01-01T01:26:41Z</time>
      </trkpt>
      <trkpt lat="40.0489488" lon="-7.37495967">
        <ele>383.0</ele>
        <time>2010-01-01T01:27:02Z</time>
      </trkpt>
      <trkpt lat="40.0491349" lon="-7.37478948">
        <ele>383.0</ele>
        <time>2010-01-01T01:27:11Z</time>
      </trkpt>
      <trkpt lat="40.0494516" lon="-7.37439164">
        <ele>383.0</ele>
        <time>2010-01-01T01:27:29Z</time>
      </trkpt>
      <trkpt lat="40.0501953" lon="-7.37346245">
        <ele>384.0</ele>
        <time>2010-01-01T01:28:10Z</time>
      </trkpt>
      <trkpt lat="40.0501996" lon="-7.37340647">
        <ele>384.0</ele>
        <time>2010-01-01T01:28:12Z</time>
      </trkpt>
      <trkpt lat="40.0500704" lon="-7.37288595">
        <ele>385.0</ele>
        <time>2010-01-01T01:28:29Z</time>
      </trkpt>
      <trkpt lat="40.0499496" lon="-7.37261697">
        <ele>385.0</ele>
        <time>2010-01-01T01:28:38Z</time>
      </trkpt>
      <trkpt lat="40.0496495" lon="-7.37226636">
        <ele>385.0</ele>
        <time>2010-01-01T01:28:54Z</time>
      </trkpt>
      <trkpt lat="40.0495188" lon="-7.3720483">
        <ele>385.0</ele>
        <time>2010-01-01T01:29:03Z</time>
      </trkpt>
      <trkpt lat="40.0494711" lon="-7.37157204">
        <ele>386.0</ele>
        <time>2010-01-01T01:29:17Z</time>
      </trkpt>
      <trkpt lat="40.0494421" lon="-7.37139209">
        <ele>386.0</ele>
        <time>2010-01-01T01:29:23Z</time>
      </trkpt>
      <trkpt lat="40.0495881" lon="-7.37075037">
        <ele>386.0</ele>
        <time>2010-01-01T01:29:44Z</time>
      </trkpt>
      <trkpt lat="40.0495767" lon="-7.3703952">
        <ele>384.0</ele>
        <time>2010-01-01T01:29:54Z</time>
      </trkpt>
      <trkpt lat="40.0496589" lon="-7.36969159">
        <ele>381.0</ele>
        <time>2010-01-01T01:30:16Z</time>
      </trkpt>
      <trkpt lat="40.0497394" lon="-7.36931348">
        <ele>379.0</ele>
        <time>2010-01-01T01:30:28Z</time>
      </trkpt>
      <trkpt lat="40.0499794" lon="-7.36871226">
        <ele>380.0</ele>
        <time>2010-01-01T01:30:49Z</time>
      </trkpt>
      <trkpt lat="40.0507847" lon="-7.36837838">
        <ele>384.0</ele>
        <time>2010-01-01T01:31:23Z</time>
      </trkpt>
      <trkpt lat="40.0507496" lon="-7.36814836">
        <ele>383.0</ele>
        <time>2010-01-01T01:31:30Z</time>
      </trkpt>
      <trkpt lat="40.050364" lon="-7.367461">
        <ele>380.0</ele>
        <time>2010-01-01T01:31:56Z</time>
      </trkpt>
      <trkpt lat="40.0501815" lon="-7.36703426">
        <ele>382.0</ele>
        <time>2010-01-01T01:32:11Z</time>
      </trkpt>
      <trkpt lat="40.0500822" lon="-7.36635251">
        <ele>381.0</ele>
        <time>2010-01-01T01:32:32Z</time>
      </trkpt>
      <trkpt lat="40.0498915" lon="-7.36613281">
        <ele>381.0</ele>
        <time>2010-01-01T01:32:43Z</time>
      </trkpt>
      <trkpt lat="40.0497679" lon="-7.36596533">
        <ele>381.0</ele>
        <time>2010-01-01T01:32:50Z</time>
      </trkpt>
      <trkpt lat="40.0496861" lon="-7.36549019">
        <ele>379.0</ele>
        <time>2010-01-01T01:33:05Z</time>
      </trkpt>
      <trkpt lat="40.0496857" lon="-7.36496875">
        <ele>379.0</ele>
        <time>2010-01-01T01:33:21Z</time>
      </trkpt>
      <trkpt lat="40.0496547" lon="-7.36453442">
        <ele>379.0</ele>
        <time>2010-01-01T01:33:34Z</time>
      </trkpt>
      <trkpt lat="40.049487" lon="-7.36432078">
        <ele>378.0</ele>
        <time>2010-01-01T01:33:43Z</time>
      </trkpt>
      <trkpt lat="40.0492607" lon="-7.36393854">
        <ele>377.0</ele>
        <time>2010-01-01T01:33:58Z</time>
      </trkpt>
      <trkpt lat="40.0490256" lon="-7.36409175">
        <ele>376.0</ele>
        <time>2010-01-01T01:34:09Z</time>
      </trkpt>
      <trkpt lat="40.0486756" lon="-7.36422123">
        <ele>374.0</ele>
        <time>2010-01-01T01:34:23Z</time>
      </trkpt>
      <trkpt lat="40.0483434" lon="-7.36451129">
        <ele>373.0</ele>
        <time>2010-01-01T01:34:39Z</time>
      </trkpt>
      <trkpt lat="40.0481509" lon="-7.36466092">
        <ele>372.0</ele>
        <time>2010-01-01T01:34:48Z</time>
      </trkpt>
      <trkpt lat="40.0478807" lon="-7.36476639">
        <ele>373.0</ele>
        <time>2010-01-01T01:34:59Z</time>
      </trkpt>
      <trkpt lat="40.0477908" lon="-7.36502582">
        <ele>375.0</ele>
        <time>2010-01-01T01:35:08Z</time>
      </trkpt>
      <trkpt lat="40.0476326" lon="-7.36490951">
        <ele>374.0</ele>
        <time>2010-01-01T01:35:15Z</time>
      </trkpt>
      <trkpt lat="40.0474929" lon="-7.36469842">
        <ele>372.0</ele>
        <time>2010-01-01T01:35:24Z</time>
      </trkpt>
      <trkpt lat="40.0469909" lon="-7.36471214">
        <ele>370.0</ele>
        <time>2010-01-01T01:35:44Z</time>
      </trkpt>
      <trkpt lat="40.0466515" lon="-7.36478533">
        <ele>370.0</ele>
        <time>2010-01-01T01:35:58Z</time>
      </trkpt>
      <trkpt lat="40.0463497" lon="-7.36468837">
        <ele>368.0</ele>
        <time>2010-01-01T01:36:10Z</time>
      </trkpt>
      <trkpt lat="40.046106" lon="-7.36442561">
        <ele>366.0</ele>
        <time>2010-01-01T01:36:23Z</time>
      </trkpt>
      <trkpt lat="40.0455183" lon="-7.36412036">
        <ele>365.0</ele>
        <time>2010-01-01T01:36:48Z</time>
      </trkpt>
      <trkpt lat="40.045318" lon="-7.36402391">
        <ele>365.0</ele>
        <time>2010-01-01T01:36:57Z</time>
      </trkpt>
      <trkpt lat="40.0452346" lon="-7.36388487">
        <ele>364.0</ele>
        <time>2010-01-01T01:37:02Z</time>
      </trkpt>
      <trkpt lat="40.0452375" lon="-7.3635999">
        <ele>364.0</ele>
        <time>2010-01-01T01:37:11Z</time>
      </trkpt>
      <trkpt lat="40.0452088" lon="-7.36333532">
        <ele>364.0</ele>
        <time>2010-01-01T01:37:19Z</time>
      </trkpt>
      <trkpt lat="40.0450662" lon="-7.36291358">
        <ele>366.0</ele>
        <time>2010-01-01T01:37:33Z</time>
      </trkpt>
      <trkpt lat="40.0447642" lon="-7.36256525">
        <ele>367.0</ele>
        <time>2010-01-01T01:37:49Z</time>
      </trkpt>
      <trkpt lat="40.0445001" lon="-7.36228462">
        <ele>365.0</ele>
        <time>2010-01-01T01:38:03Z</time>
      </trkpt>
      <trkpt lat="40.0443405" lon="-7.36207865">
        <ele>365.0</ele>
        <time>2010-01-01T01:38:12Z</time>
      </trkpt>
      <trkpt lat="40.0443062" lon="-7.36193105">
        <ele>365.0</ele>
        <time>2010-01-01T01:38:17Z</time>
      </trkpt>
      <trkpt lat="40.0443247" lon="-7.36179232">
        <ele>365.0</ele>
        <time>2010-01-01T01:38:21Z</time>
      </trkpt>
      <trkpt lat="40.0441109" lon="-7.36142557">
        <ele>366.0</ele>
        <time>2010-01-01T01:38:35Z</time>
      </trkpt>
      <trkpt lat="40.0440093" lon="-7.36125677">
        <ele>367.0</ele>
        <time>2010-01-01T01:38:42Z</time>
      </trkpt>
      <trkpt lat="40.043977" lon="-7.36099184">
        <ele>368.0</ele>
        <time>2010-01-01T01:38:50Z</time>
      </trkpt>
      <trkpt lat="40.0439198" lon="-7.36073024">
        <ele>370.0</ele>
        <time>2010-01-01T01:38:58Z</time>
      </trkpt>
      <trkpt lat="40.0438495" lon="-7.36028831">
        <ele>374.0</ele>
        <time>2010-01-01T01:39:12Z</time>
      </trkpt>
      <trkpt lat="40.0438457" lon="-7.35973525">
        <ele>376.0</ele>
        <time>2010-01-01T01:39:29Z</time>
      </trkpt>
      <trkpt lat="40.0438488" lon="-7.35947887">
        <ele>377.0</ele>
        <time>2010-01-01T01:39:37Z</time>
      </trkpt>
      <trkpt lat="40.0439014" lon="-7.35916821">
        <ele>378.0</ele>
        <time>2010-01-01T01:39:47Z</time>
      </trkpt>
      <trkpt lat="40.0439214" lon="-7.35901926">
        <ele>379.0</ele>
        <time>2010-01-01T01:39:51Z</time>
      </trkpt>
      <trkpt lat="40.0438997" lon="-7.35864634">
        <ele>380.0</ele>
        <time>2010-01-01T01:40:03Z</time>
      </trkpt>
      <trkpt lat="40.0438958" lon="-7.35823909">
        <ele>381.0</ele>
        <time>2010-01-01T01:40:15Z</time>
      </trkpt>
      <trkpt lat="40.0439714" lon="-7.35768792">
        <ele>381.0</ele>
        <time>2010-01-01T01:40:32Z</time>
      </trkpt>
      <trkpt lat="40.0436977" lon="-7.35752472">
        <ele>380.0</ele>
        <time>2010-01-01T01:40:45Z</time>
      </trkpt>
      <trkpt lat="40.0435259" lon="-7.35748932">
        <ele>379.0</ele>
        <time>2010-01-01T01:40:51Z</time>
      </trkpt>
      <trkpt lat="40.0433382" lon="-7.35721469">
        <ele>375.0</ele>
        <time>2010-01-01T01:41:03Z</time>
      </trkpt>
      <trkpt lat="40.0431451" lon="-7.35695668">
        <ele>373.0</ele>
        <time>2010-01-01T01:41:14Z</time>
      </trkpt>
      <trkpt lat="40.0429861" lon="-7.35652107">
        <ele>371.0</ele>
        <time>2010-01-01T01:41:29Z</time>
      </trkpt>
      <trkpt lat="40.0428217" lon="-7.35624506">
        <ele>371.0</ele>
        <time>2010-01-01T01:41:39Z</time>
      </trkpt>
      <trkpt lat="40.0426637" lon="-7.35595232">
        <ele>369.0</ele>
        <time>2010-01-01T01:41:50Z</time>
      </trkpt>
      <trkpt lat="40.0425658" lon="-7.35556815">
        <ele>369.0</ele>
        <time>2010-01-01T01:42:03Z</time>
      </trkpt>
      <trkpt lat="40.0422032" lon="-7.35492217">
        <ele>368.0</ele>
        <time>2010-01-01T01:42:27Z</time>
      </trkpt>
      <trkpt lat="40.0419333" lon="-7.35452916">
        <ele>371.0</ele>
        <time>2010-01-01T01:42:43Z</time>
      </trkpt>
      <trkpt lat="40.0415946" lon="-7.35399173">
        <ele>375.0</ele>
        <time>2010-01-01T01:43:05Z</time>
      </trkpt>
      <trkpt lat="40.0416467" lon="-7.35362583">
        <ele>375.0</ele>
        <time>2010-01-01T01:43:16Z</time>
      </trkpt>
      <trkpt lat="40.0416325" lon="-7.35344569">
        <ele>375.0</ele>
        <time>2010-01-01T01:43:22Z</time>
      </trkpt>
      <trkpt lat="40.0417754" lon="-7.35301419">
        <ele>373.0</ele>
        <time>2010-01-01T01:43:36Z</time>
      </trkpt>
      <trkpt lat="40.0419821" lon="-7.35235495">
        <ele>371.0</ele>
        <time>2010-01-01T01:43:58Z</time>
      </trkpt>
      <trkpt lat="40.0419385" lon="-7.35202757">
        <ele>370.0</ele>
        <time>2010-01-01T01:44:08Z</time>
      </trkpt>
      <trkpt lat="40.0418646" lon="-7.35174767">
        <ele>369.0</ele>
        <time>2010-01-01T01:44:17Z</time>
      </trkpt>
      <trkpt lat="40.0418566" lon="-7.35142058">
        <ele>369.0</ele>
        <time>2010-01-01T01:44:27Z</time>
      </trkpt>
      <trkpt lat="40.0414911" lon="-7.35093383">
        <ele>360.0</ele>
        <time>2010-01-01T01:44:48Z</time>
      </trkpt>
      <trkpt lat="40.0411952" lon="-7.35050527">
        <ele>355.0</ele>
        <time>2010-01-01T01:45:06Z</time>
      </trkpt>
      <trkpt lat="40.0409255" lon="-7.34991563">
        <ele>355.0</ele>
        <time>2010-01-01T01:45:27Z</time>
      </trkpt>
      <trkpt lat="40.0405396" lon="-7.34889349">
        <ele>353.0</ele>
        <time>2010-01-01T01:46:02Z</time>
      </trkpt>
      <trkpt lat="40.040287" lon="-7.34845198">
        <ele>353.0</ele>
        <time>2010-01-01T01:46:19Z</time>
      </trkpt>
      <trkpt lat="40.0402967" lon="-7.34814235">
        <ele>351.0</ele>
        <time>2010-01-01T01:46:28Z</time>
      </trkpt>
      <trkpt lat="40.0400431" lon="-7.34758252">
        <ele>346.0</ele>
        <time>2010-01-01T01:46:48Z</time>
      </trkpt>
      <trkpt lat="40.0398016" lon="-7.34700471">
        <ele>340.0</ele>
        <time>2010-01-01T01:47:08Z</time>
      </trkpt>
      <trkpt lat="40.0396045" lon="-7.34647987">
        <ele>336.0</ele>
        <time>2010-01-01T01:47:26Z</time>
      </trkpt>
      <trkpt lat="40.0395502" lon="-7.34617841">
        <ele>334.0</ele>
        <time>2010-01-01T01:47:36Z</time>
      </trkpt>
      <trkpt lat="40.0394966" lon="-7.34572061">
        <ele>330.0</ele>
        <time>2010-01-01T01:47:50Z</time>
      </trkpt>
      <trkpt lat="40.0391836" lon="-7.34491428">
        <ele>325.0</ele>
        <time>2010-01-01T01:48:18Z</time>
      </trkpt>
      <trkpt lat="40.0389703" lon="-7.34466923">
        <ele>323.0</ele>
        <time>2010-01-01T01:48:29Z</time>
      </trkpt>
      <trkpt lat="40.038837" lon="-7.34451446">
        <ele>321.0</ele>
        <time>2010-01-01T01:48:36Z</time>
      </trkpt>
      <trkpt lat="40.0380243" lon="-7.34466938">
        <ele>322.0</ele>
        <time>2010-01-01T01:49:09Z</time>
      </trkpt>
      <trkpt lat="40.0378199" lon="-7.34462659">
        <ele>323.0</ele>
        <time>2010-01-01T01:49:17Z</time>
      </trkpt>
      <trkpt lat="40.0375775" lon="-7.34334003">
        <ele>318.0</ele>
        <time>2010-01-01T01:49:58Z</time>
      </trkpt>
      <trkpt lat="40.0375435" lon="-7.34300709">
        <ele>317.0</ele>
        <time>2010-01-01T01:50:08Z</time>
      </trkpt>
      <trkpt lat="40.0375494" lon="-7.34129247">
        <ele>309.0</ele>
        <time>2010-01-01T01:51:01Z</time>
      </trkpt>
      <trkpt lat="40.0372146" lon="-7.34107606">
        <ele>307.0</ele>
        <time>2010-01-01T01:51:16Z</time>
      </trkpt>
      <trkpt lat="40.0370729" lon="-7.34088025">
        <ele>304.0</ele>
        <time>2010-01-01T01:51:24Z</time>
      </trkpt>
      <trkpt lat="40.0367676" lon="-7.34004478">
        <ele>303.0</ele>
        <time>2010-01-01T01:51:52Z</time>
      </trkpt>
      <trkpt lat="40.0368744" lon="-7.33975868">
        <ele>306.0</ele>
        <time>2010-01-01T01:52:02Z</time>
      </trkpt>
      <trkpt lat="40.0372267" lon="-7.3391673">
        <ele>308.0</ele>
        <time>2010-01-01T01:52:25Z</time>
      </trkpt>
      <trkpt lat="40.0371421" lon="-7.33838089">
        <ele>315.0</ele>
        <time>2010-01-01T01:52:49Z</time>
      </trkpt>
      <trkpt lat="40.0369296" lon="-7.33705376">
        <ele>316.0</ele>
        <time>2010-01-01T01:53:31Z</time>
      </trkpt>
      <trkpt lat="40.0367322" lon="-7.33583407">
        <ele>326.0</ele>
        <time>2010-01-01T01:54:09Z</time>
      </trkpt>
      <trkpt lat="40.0365875" lon="-7.3354222">
        <ele>327.0</ele>
        <time>2010-01-01T01:54:23Z</time>
      </trkpt>
      <trkpt lat="40.0362798" lon="-7.33478192">
        <ele>327.0</ele>
        <time>2010-01-01T01:54:46Z</time>
      </trkpt>
      <trkpt lat="40.0367732" lon="-7.33384137">
        <ele>333.0</ele>
        <time>2010-01-01T01:55:21Z</time>
      </trkpt>
      <trkpt lat="40.0372734" lon="-7.3337029">
        <ele>336.0</ele>
        <time>2010-01-01T01:55:42Z</time>
      </trkpt>
      <trkpt lat="40.0375922" lon="-7.33354177">
        <ele>339.0</ele>
        <time>2010-01-01T01:55:55Z</time>
      </trkpt>
      <trkpt lat="40.0382753" lon="-7.33322058">
        <ele>346.0</ele>
        <time>2010-01-01T01:56:24Z</time>
      </trkpt>
      <trkpt lat="40.0384607" lon="-7.33306995">
        <ele>350.0</ele>
        <time>2010-01-01T01:56:33Z</time>
      </trkpt>
      <trkpt lat="40.0391358" lon="-7.33295512">
        <ele>355.0</ele>
        <time>2010-01-01T01:57:00Z</time>
      </trkpt>
      <trkpt lat="40.0394987" lon="-7.3327903">
        <ele>358.0</ele>
        <time>2010-01-01T01:57:16Z</time>
      </trkpt>
      <trkpt lat="40.0396468" lon="-7.33254111">
        <ele>358.0</ele>
        <time>2010-01-01T01:57:25Z</time>
      </trkpt>
      <trkpt lat="40.0397203" lon="-7.33215105">
        <ele>360.0</ele>
        <time>2010-01-01T01:57:38Z</time>
      </trkpt>
      <trkpt lat="40.0396552" lon="-7.33178198">
        <ele>361.0</ele>
        <time>2010-01-01T01:57:49Z</time>
      </trkpt>
      <trkpt lat="40.0395687" lon="-7.33157039">
        <ele>362.0</ele>
        <time>2010-01-01T01:57:57Z</time>
      </trkpt>
      <trkpt lat="40.0399264" lon="-7.33002527">
        <ele>367.0</ele>
        <time>2010-01-01T01:58:46Z</time>
      </trkpt>
      <trkpt lat="40.0402892" lon="-7.32981058">
        <ele>370.0</ele>
        <time>2010-01-01T01:59:02Z</time>
      </trkpt>
      <trkpt lat="40.0404241" lon="-7.32965806">
        <ele>368.0</ele>
        <time>2010-01-01T01:59:09Z</time>
      </trkpt>
      <trkpt lat="40.0405418" lon="-7.32911858">
        <ele>362.0</ele>
        <time>2010-01-01T01:59:26Z</time>
      </trkpt>
      <trkpt lat="40.0406366" lon="-7.32857773">
        <ele>364.0</ele>
        <time>2010-01-01T01:59:43Z</time>
      </trkpt>
      <trkpt lat="40.0407618" lon="-7.3278281">
        <ele>364.0</ele>
        <time>2010-01-01T02:00:07Z</time>
      </trkpt>
      <trkpt lat="40.0408955" lon="-7.32755351">
        <ele>363.0</ele>
        <time>2010-01-01T02:00:17Z</time>
      </trkpt>
      <trkpt lat="40.0410825" lon="-7.32710618">
        <ele>364.0</ele>
        <time>2010-01-01T02:00:33Z</time>
      </trkpt>
      <trkpt lat="40.0412661" lon="-7.3268217">
        <ele>363.0</ele>
        <time>2010-01-01T02:00:44Z</time>
      </trkpt>
      <trkpt lat="40.0414765" lon="-7.32653875">
        <ele>361.0</ele>
        <time>2010-01-01T02:00:56Z</time>
      </trkpt>
      <trkpt lat="40.0417614" lon="-7.32620027">
        <ele>359.0</ele>
        <time>2010-01-01T02:01:11Z</time>
      </trkpt>
      <trkpt lat="40.0419701" lon="-7.32593311">
        <ele>357.0</ele>
        <time>2010-01-01T02:01:23Z</time>
      </trkpt>
      <trkpt lat="40.0423321" lon="-7.32577173">
        <ele>357.0</ele>
        <time>2010-01-01T02:01:38Z</time>
      </trkpt>
      <trkpt lat="40.0425926" lon="-7.32554257">
        <ele>356.0</ele>
        <time>2010-01-01T02:01:51Z</time>
      </trkpt>
      <trkpt lat="40.0427525" lon="-7.32542966">
        <ele>356.0</ele>
        <time>2010-01-01T02:01:58Z</time>
      </trkpt>
      <trkpt lat="40.0430256" lon="-7.32538287">
        <ele>356.0</ele>
        <time>2010-01-01T02:02:09Z</time>
      </trkpt>
      <trkpt lat="40.0435109" lon="-7.32539722">
        <ele>357.0</ele>
        <time>2010-01-01T02:02:29Z</time>
      </trkpt>
      <trkpt lat="40.0436779" lon="-7.32538614">
        <ele>357.0</ele>
        <time>2010-01-01T02:02:35Z</time>
      </trkpt>
      <trkpt lat="40.043697" lon="-7.32510794">
        <ele>358.0</ele>
        <time>2010-01-01T02:02:44Z</time>
      </trkpt>
      <trkpt lat="40.0435382" lon="-7.32469622">
        <ele>360.0</ele>
        <time>2010-01-01T02:02:58Z</time>
      </trkpt>
      <trkpt lat="40.043417" lon="-7.32427708">
        <ele>362.0</ele>
        <time>2010-01-01T02:03:12Z</time>
      </trkpt>
      <trkpt lat="40.04347" lon="-7.32390631">
        <ele>364.0</ele>
        <time>2010-01-01T02:03:23Z</time>
      </trkpt>
      <trkpt lat="40.0436579" lon="-7.32356844">
        <ele>364.0</ele>
        <time>2010-01-01T02:03:36Z</time>
      </trkpt>
      <trkpt lat="40.043851" lon="-7.32320952">
        <ele>365.0</ele>
        <time>2010-01-01T02:03:50Z</time>
      </trkpt>
      <trkpt lat="40.0438932" lon="-7.32300607">
        <ele>365.0</ele>
        <time>2010-01-01T02:03:56Z</time>
      </trkpt>
      <trkpt lat="40.0439881" lon="-7.32251481">
        <ele>365.0</ele>
        <time>2010-01-01T02:04:12Z</time>
      </trkpt>
      <trkpt lat="40.0441051" lon="-7.32203022">
        <ele>364.0</ele>
        <time>2010-01-01T02:04:27Z</time>
      </trkpt>
      <trkpt lat="40.0441982" lon="-7.32158052">
        <ele>365.0</ele>
        <time>2010-01-01T02:04:42Z</time>
      </trkpt>
      <trkpt lat="40.0442737" lon="-7.32141629">
        <ele>365.0</ele>
        <time>2010-01-01T02:04:47Z</time>
      </trkpt>
      <trkpt lat="40.044531" lon="-7.32113405">
        <ele>366.0</ele>
        <time>2010-01-01T02:05:01Z</time>
      </trkpt>
      <trkpt lat="40.0446617" lon="-7.32104527">
        <ele>366.0</ele>
        <time>2010-01-01T02:05:07Z</time>
      </trkpt>
      <trkpt lat="40.0447692" lon="-7.32084085">
        <ele>366.0</ele>
        <time>2010-01-01T02:05:14Z</time>
      </trkpt>
      <trkpt lat="40.044998" lon="-7.32070842">
        <ele>366.0</ele>
        <time>2010-01-01T02:05:24Z</time>
      </trkpt>
      <trkpt lat="40.0450999" lon="-7.32063328">
        <ele>366.0</ele>
        <time>2010-01-01T02:05:29Z</time>
      </trkpt>
      <trkpt lat="40.045269" lon="-7.3202902">
        <ele>367.0</ele>
        <time>2010-01-01T02:05:42Z</time>
      </trkpt>
      <trkpt lat="40.0452601" lon="-7.32008939">
        <ele>367.0</ele>
        <time>2010-01-01T02:05:48Z</time>
      </trkpt>
      <trkpt lat="40.0451033" lon="-7.31989202">
        <ele>365.0</ele>
        <time>2010-01-01T02:05:56Z</time>
      </trkpt>
      <trkpt lat="40.0449444" lon="-7.31964369">
        <ele>364.0</ele>
        <time>2010-01-01T02:06:06Z</time>
      </trkpt>
      <trkpt lat="40.0449602" lon="-7.31945496">
        <ele>363.0</ele>
        <time>2010-01-01T02:06:12Z</time>
      </trkpt>
      <trkpt lat="40.0450256" lon="-7.31916827">
        <ele>364.0</ele>
        <time>2010-01-01T02:06:21Z</time>
      </trkpt>
      <trkpt lat="40.0450903" lon="-7.31887317">
        <ele>364.0</ele>
        <time>2010-01-01T02:06:31Z</time>
      </trkpt>
      <trkpt lat="40.0450864" lon="-7.31867931">
        <ele>365.0</ele>
        <time>2010-01-01T02:06:37Z</time>
      </trkpt>
      <trkpt lat="40.0450715" lon="-7.31838207">
        <ele>367.0</ele>
        <time>2010-01-01T02:06:46Z</time>
      </trkpt>
      <trkpt lat="40.045017" lon="-7.31800588">
        <ele>371.0</ele>
        <time>2010-01-01T02:06:58Z</time>
      </trkpt>
      <trkpt lat="40.0450455" lon="-7.31777883">
        <ele>371.0</ele>
        <time>2010-01-01T02:07:05Z</time>
      </trkpt>
      <trkpt lat="40.044995" lon="-7.31756273">
        <ele>372.0</ele>
        <time>2010-01-01T02:07:12Z</time>
      </trkpt>
      <trkpt lat="40.0450994" lon="-7.31731567">
        <ele>373.0</ele>
        <time>2010-01-01T02:07:20Z</time>
      </trkpt>
      <trkpt lat="40.0451956" lon="-7.31718959">
        <ele>373.0</ele>
        <time>2010-01-01T02:07:26Z</time>
      </trkpt>
      <trkpt lat="40.0453922" lon="-7.31676234">
        <ele>374.0</ele>
        <time>2010-01-01T02:07:41Z</time>
      </trkpt>
      <trkpt lat="40.0455489" lon="-7.31640087">
        <ele>373.0</ele>
        <time>2010-01-01T02:07:54Z</time>
      </trkpt>
      <trkpt lat="40.0457008" lon="-7.31613553">
        <ele>374.0</ele>
        <time>2010-01-01T02:08:04Z</time>
      </trkpt>
      <trkpt lat="40.0458309" lon="-7.31593965">
        <ele>374.0</ele>
        <time>2010-01-01T02:08:12Z</time>
      </trkpt>
      <trkpt lat="40.0459695" lon="-7.31568415">
        <ele>375.0</ele>
        <time>2010-01-01T02:08:21Z</time>
      </trkpt>
      <trkpt lat="40.0460523" lon="-7.31556928">
        <ele>375.0</ele>
        <time>2010-01-01T02:08:26Z</time>
      </trkpt>
      <trkpt lat="40.0460011" lon="-7.31485149">
        <ele>375.0</ele>
        <time>2010-01-01T02:08:48Z</time>
      </trkpt>
      <trkpt lat="40.0459902" lon="-7.31466101">
        <ele>374.0</ele>
        <time>2010-01-01T02:08:54Z</time>
      </trkpt>
      <trkpt lat="40.0459901" lon="-7.31458273">
        <ele>374.0</ele>
        <time>2010-01-01T02:08:56Z</time>
      </trkpt>
      <trkpt lat="40.0459339" lon="-7.31442967">
        <ele>373.0</ele>
        <time>2010-01-01T02:09:02Z</time>
      </trkpt>
      <trkpt lat="40.0459025" lon="-7.31427503">
        <ele>372.0</ele>
        <time>2010-01-01T02:09:07Z</time>
      </trkpt>
      <trkpt lat="40.0458713" lon="-7.31401472">
        <ele>372.0</ele>
        <time>2010-01-01T02:09:15Z</time>
      </trkpt>
      <trkpt lat="40.0458952" lon="-7.3139155">
        <ele>372.0</ele>
        <time>2010-01-01T02:09:18Z</time>
      </trkpt>
      <trkpt lat="40.0460317" lon="-7.31371777">
        <ele>374.0</ele>
        <time>2010-01-01T02:09:26Z</time>
      </trkpt>
      <trkpt lat="40.0461033" lon="-7.31350078">
        <ele>375.0</ele>
        <time>2010-01-01T02:09:33Z</time>
      </trkpt>
      <trkpt lat="40.0462788" lon="-7.31334971">
        <ele>378.0</ele>
        <time>2010-01-01T02:09:42Z</time>
      </trkpt>
      <trkpt lat="40.0464091" lon="-7.31319088">
        <ele>379.0</ele>
        <time>2010-01-01T02:09:49Z</time>
      </trkpt>
      <trkpt lat="40.0465292" lon="-7.31307794">
        <ele>379.0</ele>
        <time>2010-01-01T02:09:55Z</time>
      </trkpt>
      <trkpt lat="40.0466535" lon="-7.31303376">
        <ele>379.0</ele>
        <time>2010-01-01T02:10:00Z</time>
      </trkpt>
      <trkpt lat="40.0467113" lon="-7.31297336">
        <ele>379.0</ele>
        <time>2010-01-01T02:10:03Z</time>
      </trkpt>
      <trkpt lat="40.046684" lon="-7.31286007">
        <ele>379.0</ele>
        <time>2010-01-01T02:10:06Z</time>
      </trkpt>
      <trkpt lat="40.0466263" lon="-7.31261418">
        <ele>377.0</ele>
        <time>2010-01-01T02:10:14Z</time>
      </trkpt>
      <trkpt lat="40.0465996" lon="-7.31249438">
        <ele>377.0</ele>
        <time>2010-01-01T02:10:18Z</time>
      </trkpt>
      <trkpt lat="40.0467032" lon="-7.31217451">
        <ele>377.0</ele>
        <time>2010-01-01T02:10:29Z</time>
      </trkpt>
      <trkpt lat="40.0467103" lon="-7.31206776">
        <ele>376.0</ele>
        <time>2010-01-01T02:10:32Z</time>
      </trkpt>
      <trkpt lat="40.0466315" lon="-7.31199814">
        <ele>374.0</ele>
        <time>2010-01-01T02:10:36Z</time>
      </trkpt>
      <trkpt lat="40.0465028" lon="-7.31201678">
        <ele>372.0</ele>
        <time>2010-01-01T02:10:41Z</time>
      </trkpt>
      <trkpt lat="40.0464063" lon="-7.31195258">
        <ele>371.0</ele>
        <time>2010-01-01T02:10:45Z</time>
      </trkpt>
      <trkpt lat="40.0462716" lon="-7.31166761">
        <ele>370.0</ele>
        <time>2010-01-01T02:10:56Z</time>
      </trkpt>
      <trkpt lat="40.0461119" lon="-7.31153519">
        <ele>370.0</ele>
        <time>2010-01-01T02:11:03Z</time>
      </trkpt>
      <trkpt lat="40.0460071" lon="-7.31144059">
        <ele>371.0</ele>
        <time>2010-01-01T02:11:08Z</time>
      </trkpt>
      <trkpt lat="40.0459781" lon="-7.31133185">
        <ele>373.0</ele>
        <time>2010-01-01T02:11:12Z</time>
      </trkpt>
      <trkpt lat="40.0459299" lon="-7.31093472">
        <ele>376.0</ele>
        <time>2010-01-01T02:11:24Z</time>
      </trkpt>
      <trkpt lat="40.046781" lon="-7.30940561">
        <ele>382.0</ele>
        <time>2010-01-01T02:12:22Z</time>
      </trkpt>
      <trkpt lat="40.0467689" lon="-7.30887089">
        <ele>382.0</ele>
        <time>2010-01-01T02:12:39Z</time>
      </trkpt>
      <trkpt lat="40.0465578" lon="-7.30815493">
        <ele>382.0</ele>
        <time>2010-01-01T02:13:02Z</time>
      </trkpt>
      <trkpt lat="40.0465798" lon="-7.30778089">
        <ele>383.0</ele>
        <time>2010-01-01T02:13:14Z</time>
      </trkpt>
      <trkpt lat="40.0466762" lon="-7.30749627">
        <ele>387.0</ele>
        <time>2010-01-01T02:13:23Z</time>
      </trkpt>
      <trkpt lat="40.0468737" lon="-7.30722017">
        <ele>389.0</ele>
        <time>2010-01-01T02:13:35Z</time>
      </trkpt>
      <trkpt lat="40.0470939" lon="-7.30694951">
        <ele>390.0</ele>
        <time>2010-01-01T02:13:47Z</time>
      </trkpt>
      <trkpt lat="40.0472674" lon="-7.30680097">
        <ele>391.0</ele>
        <time>2010-01-01T02:13:55Z</time>
      </trkpt>
      <trkpt lat="40.0476094" lon="-7.30631558">
        <ele>395.0</ele>
        <time>2010-01-01T02:14:15Z</time>
      </trkpt>
      <trkpt lat="40.0476511" lon="-7.3060598">
        <ele>397.0</ele>
        <time>2010-01-01T02:14:23Z</time>
      </trkpt>
      <trkpt lat="40.0479441" lon="-7.30576021">
        <ele>396.0</ele>
        <time>2010-01-01T02:14:38Z</time>
      </trkpt>
      <trkpt lat="40.0481274" lon="-7.30558673">
        <ele>395.0</ele>
        <time>2010-01-01T02:14:47Z</time>
      </trkpt>
      <trkpt lat="40.0484133" lon="-7.30558498">
        <ele>394.0</ele>
        <time>2010-01-01T02:14:59Z</time>
      </trkpt>
      <trkpt lat="40.0486572" lon="-7.3055027">
        <ele>392.0</ele>
        <time>2010-01-01T02:15:09Z</time>
      </trkpt>
      <trkpt lat="40.0490501" lon="-7.30505188">
        <ele>389.0</ele>
        <time>2010-01-01T02:15:30Z</time>
      </trkpt>
      <trkpt lat="40.0492651" lon="-7.30492079">
        <ele>388.0</ele>
        <time>2010-01-01T02:15:39Z</time>
      </trkpt>
      <trkpt lat="40.0493586" lon="-7.3047692">
        <ele>388.0</ele>
        <time>2010-01-01T02:15:45Z</time>
      </trkpt>
      <trkpt lat="40.049513" lon="-7.3040523">
        <ele>385.0</ele>
        <time>2010-01-01T02:16:08Z</time>
      </trkpt>
      <trkpt lat="40.0494362" lon="-7.30372826">
        <ele>383.0</ele>
        <time>2010-01-01T02:16:18Z</time>
      </trkpt>
      <trkpt lat="40.0492956" lon="-7.30357134">
        <ele>383.0</ele>
        <time>2010-01-01T02:16:26Z</time>
      </trkpt>
      <trkpt lat="40.0491366" lon="-7.30357205">
        <ele>383.0</ele>
        <time>2010-01-01T02:16:32Z</time>
      </trkpt>
      <trkpt lat="40.0488817" lon="-7.30348487">
        <ele>384.0</ele>
        <time>2010-01-01T02:16:43Z</time>
      </trkpt>
      <trkpt lat="40.0487088" lon="-7.30348026">
        <ele>384.0</ele>
        <time>2010-01-01T02:16:50Z</time>
      </trkpt>
      <trkpt lat="40.0486058" lon="-7.30338634">
        <ele>385.0</ele>
        <time>2010-01-01T02:16:55Z</time>
      </trkpt>
      <trkpt lat="40.0486988" lon="-7.30294214">
        <ele>385.0</ele>
        <time>2010-01-01T02:17:09Z</time>
      </trkpt>
      <trkpt lat="40.048686" lon="-7.30273326">
        <ele>386.0</ele>
        <time>2010-01-01T02:17:15Z</time>
      </trkpt>
      <trkpt lat="40.0486568" lon="-7.30230172">
        <ele>385.0</ele>
        <time>2010-01-01T02:17:28Z</time>
      </trkpt>
      <trkpt lat="40.0485301" lon="-7.3018371">
        <ele>384.0</ele>
        <time>2010-01-01T02:17:44Z</time>
      </trkpt>
      <trkpt lat="40.0487498" lon="-7.30164209">
        <ele>384.0</ele>
        <time>2010-01-01T02:17:54Z</time>
      </trkpt>
      <trkpt lat="40.0490895" lon="-7.30136222">
        <ele>385.0</ele>
        <time>2010-01-01T02:18:10Z</time>
      </trkpt>
      <trkpt lat="40.0492817" lon="-7.30125995">
        <ele>385.0</ele>
        <time>2010-01-01T02:18:19Z</time>
      </trkpt>
      <trkpt lat="40.0496319" lon="-7.30125749">
        <ele>387.0</ele>
        <time>2010-01-01T02:18:33Z</time>
      </trkpt>
      <trkpt lat="40.0497993" lon="-7.30101029">
        <ele>387.0</ele>
        <time>2010-01-01T02:18:43Z</time>
      </trkpt>
      <trkpt lat="40.0500454" lon="-7.30084978">
        <ele>388.0</ele>
        <time>2010-01-01T02:18:54Z</time>
      </trkpt>
      <trkpt lat="40.0504113" lon="-7.30053707">
        <ele>386.0</ele>
        <time>2010-01-01T02:19:11Z</time>
      </trkpt>
      <trkpt lat="40.0509187" lon="-7.29990192">
        <ele>386.0</ele>
        <time>2010-01-01T02:19:39Z</time>
      </trkpt>
      <trkpt lat="40.0510522" lon="-7.29973674">
        <ele>386.0</ele>
        <time>2010-01-01T02:19:47Z</time>
      </trkpt>
      <trkpt lat="40.0519051" lon="-7.29974919">
        <ele>387.0</ele>
        <time>2010-01-01T02:20:21Z</time>
      </trkpt>
      <trkpt lat="40.0521639" lon="-7.29912425">
        <ele>388.0</ele>
        <time>2010-01-01T02:20:43Z</time>
      </trkpt>
      <trkpt lat="40.0523057" lon="-7.29865718">
        <ele>391.0</ele>
        <time>2010-01-01T02:20:58Z</time>
      </trkpt>
      <trkpt lat="40.0524452" lon="-7.29806391">
        <ele>393.0</ele>
        <time>2010-01-01T02:21:17Z</time>
      </trkpt>
      <trkpt lat="40.0524915" lon="-7.29779435">
        <ele>394.0</ele>
        <time>2010-01-01T02:21:26Z</time>
      </trkpt>
      <trkpt lat="40.0523561" lon="-7.29716097">
        <ele>393.0</ele>
        <time>2010-01-01T02:21:46Z</time>
      </trkpt>
      <trkpt lat="40.0521858" lon="-7.29684678">
        <ele>394.0</ele>
        <time>2010-01-01T02:21:58Z</time>
      </trkpt>
      <trkpt lat="40.0515306" lon="-7.29592606">
        <ele>389.0</ele>
        <time>2010-01-01T02:22:36Z</time>
      </trkpt>
      <trkpt lat="40.0510146" lon="-7.29527039">
        <ele>390.0</ele>
        <time>2010-01-01T02:23:05Z</time>
      </trkpt>
      <trkpt lat="40.0507504" lon="-7.29468486">
        <ele>395.0</ele>
        <time>2010-01-01T02:23:26Z</time>
      </trkpt>
      <trkpt lat="40.0505038" lon="-7.29428191">
        <ele>395.0</ele>
        <time>2010-01-01T02:23:41Z</time>
      </trkpt>
      <trkpt lat="40.0501849" lon="-7.29371361">
        <ele>398.0</ele>
        <time>2010-01-01T02:24:03Z</time>
      </trkpt>
      <trkpt lat="40.0501096" lon="-7.29361227">
        <ele>398.0</ele>
        <time>2010-01-01T02:24:07Z</time>
      </trkpt>
      <trkpt lat="40.0502922" lon="-7.29320012">
        <ele>400.0</ele>
        <time>2010-01-01T02:24:22Z</time>
      </trkpt>
      <trkpt lat="40.0504556" lon="-7.29298958">
        <ele>400.0</ele>
        <time>2010-01-01T02:24:31Z</time>
      </trkpt>
      <trkpt lat="40.0506167" lon="-7.29287402">
        <ele>399.0</ele>
        <time>2010-01-01T02:24:39Z</time>
      </trkpt>
      <trkpt lat="40.0507166" lon="-7.29265879">
        <ele>398.0</ele>
        <time>2010-01-01T02:24:46Z</time>
      </trkpt>
      <trkpt lat="40.0506954" lon="-7.29239269">
        <ele>397.0</ele>
        <time>2010-01-01T02:24:54Z</time>
      </trkpt>
      <trkpt lat="40.0506266" lon="-7.29210314">
        <ele>397.0</ele>
        <time>2010-01-01T02:25:04Z</time>
      </trkpt>
      <trkpt lat="40.0506156" lon="-7.29156804">
        <ele>396.0</ele>
        <time>2010-01-01T02:25:20Z</time>
      </trkpt>
      <trkpt lat="40.0506493" lon="-7.29139515">
        <ele>397.0</ele>
        <time>2010-01-01T02:25:26Z</time>
      </trkpt>
      <trkpt lat="40.0508776" lon="-7.2910442">
        <ele>398.0</ele>
        <time>2010-01-01T02:25:40Z</time>
      </trkpt>
      <trkpt lat="40.0510182" lon="-7.29075561">
        <ele>398.0</ele>
        <time>2010-01-01T02:25:50Z</time>
      </trkpt>
      <trkpt lat="40.0511101" lon="-7.29028601">
        <ele>397.0</ele>
        <time>2010-01-01T02:26:05Z</time>
      </trkpt>
      <trkpt lat="40.0513662" lon="-7.28996948">
        <ele>398.0</ele>
        <time>2010-01-01T02:26:19Z</time>
      </trkpt>
      <trkpt lat="40.051531" lon="-7.28965416">
        <ele>398.0</ele>
        <time>2010-01-01T02:26:31Z</time>
      </trkpt>
      <trkpt lat="40.0518655" lon="-7.28883185">
        <ele>399.0</ele>
        <time>2010-01-01T02:26:59Z</time>
      </trkpt>
      <trkpt lat="40.0519486" lon="-7.28839746">
        <ele>401.0</ele>
        <time>2010-01-01T02:27:13Z</time>
      </trkpt>
      <trkpt lat="40.0523232" lon="-7.28837424">
        <ele>403.0</ele>
        <time>2010-01-01T02:27:28Z</time>
      </trkpt>
      <trkpt lat="40.0526709" lon="-7.28847475">
        <ele>405.0</ele>
        <time>2010-01-01T02:27:42Z</time>
      </trkpt>
      <trkpt lat="40.0528953" lon="-7.28850996">
        <ele>404.0</ele>
        <time>2010-01-01T02:27:51Z</time>
      </trkpt>
      <trkpt lat="40.0531465" lon="-7.28843255">
        <ele>403.0</ele>
        <time>2010-01-01T02:28:02Z</time>
      </trkpt>
      <trkpt lat="40.0532865" lon="-7.28825577">
        <ele>402.0</ele>
        <time>2010-01-01T02:28:10Z</time>
      </trkpt>
      <trkpt lat="40.0533745" lon="-7.28809141">
        <ele>402.0</ele>
        <time>2010-01-01T02:28:16Z</time>
      </trkpt>
      <trkpt lat="40.0536082" lon="-7.28796563">
        <ele>401.0</ele>
        <time>2010-01-01T02:28:26Z</time>
      </trkpt>
      <trkpt lat="40.0537261" lon="-7.28803186">
        <ele>400.0</ele>
        <time>2010-01-01T02:28:31Z</time>
      </trkpt>
      <trkpt lat="40.0538294" lon="-7.28826826">
        <ele>398.0</ele>
        <time>2010-01-01T02:28:39Z</time>
      </trkpt>
      <trkpt lat="40.0540793" lon="-7.28863005">
        <ele>396.0</ele>
        <time>2010-01-01T02:28:54Z</time>
      </trkpt>
      <trkpt lat="40.0542609" lon="-7.28878241">
        <ele>396.0</ele>
        <time>2010-01-01T02:29:03Z</time>
      </trkpt>
      <trkpt lat="40.0543302" lon="-7.28884208">
        <ele>396.0</ele>
        <time>2010-01-01T02:29:06Z</time>
      </trkpt>
      <trkpt lat="40.0544511" lon="-7.28883259">
        <ele>395.0</ele>
        <time>2010-01-01T02:29:11Z</time>
      </trkpt>
      <trkpt lat="40.0546728" lon="-7.28871729">
        <ele>394.0</ele>
        <time>2010-01-01T02:29:21Z</time>
      </trkpt>
      <trkpt lat="40.0547493" lon="-7.28859181">
        <ele>393.0</ele>
        <time>2010-01-01T02:29:26Z</time>
      </trkpt>
      <trkpt lat="40.0547582" lon="-7.28845241">
        <ele>394.0</ele>
        <time>2010-01-01T02:29:30Z</time>
      </trkpt>
      <trkpt lat="40.0548363" lon="-7.2883481">
        <ele>394.0</ele>
        <time>2010-01-01T02:29:34Z</time>
      </trkpt>
      <trkpt lat="40.0549873" lon="-7.28808927">
        <ele>394.0</ele>
        <time>2010-01-01T02:29:44Z</time>
      </trkpt>
      <trkpt lat="40.0553424" lon="-7.28785614">
        <ele>396.0</ele>
        <time>2010-01-01T02:30:00Z</time>
      </trkpt>
      <trkpt lat="40.0555021" lon="-7.28758175">
        <ele>397.0</ele>
        <time>2010-01-01T02:30:11Z</time>
      </trkpt>
      <trkpt lat="40.0556732" lon="-7.28747265">
        <ele>400.0</ele>
        <time>2010-01-01T02:30:18Z</time>
      </trkpt>
      <trkpt lat="40.0559508" lon="-7.28719766">
        <ele>403.0</ele>
        <time>2010-01-01T02:30:32Z</time>
      </trkpt>
      <trkpt lat="40.0560432" lon="-7.2870825">
        <ele>405.0</ele>
        <time>2010-01-01T02:30:37Z</time>
      </trkpt>
      <trkpt lat="40.0562251" lon="-7.28679035">
        <ele>406.0</ele>
        <time>2010-01-01T02:30:49Z</time>
      </trkpt>
      <trkpt lat="40.0564365" lon="-7.28672177">
        <ele>407.0</ele>
        <time>2010-01-01T02:30:58Z</time>
      </trkpt>
      <trkpt lat="40.0566577" lon="-7.28670924">
        <ele>407.0</ele>
        <time>2010-01-01T02:31:07Z</time>
      </trkpt>
      <trkpt lat="40.0569805" lon="-7.28668248">
        <ele>410.0</ele>
        <time>2010-01-01T02:31:19Z</time>
      </trkpt>
      <trkpt lat="40.0571723" lon="-7.28619246">
        <ele>411.0</ele>
        <time>2010-01-01T02:31:36Z</time>
      </trkpt>
      <trkpt lat="40.0575268" lon="-7.28595011">
        <ele>414.0</ele>
        <time>2010-01-01T02:31:52Z</time>
      </trkpt>
      <trkpt lat="40.0578066" lon="-7.28548567">
        <ele>416.0</ele>
        <time>2010-01-01T02:32:10Z</time>
      </trkpt>
      <trkpt lat="40.0583001" lon="-7.2845754">
        <ele>416.0</ele>
        <time>2010-01-01T02:32:45Z</time>
      </trkpt>
      <trkpt lat="40.0586696" lon="-7.28383811">
        <ele>417.0</ele>
        <time>2010-01-01T02:33:12Z</time>
      </trkpt>
      <trkpt lat="40.0589893" lon="-7.28330879">
        <ele>421.0</ele>
        <time>2010-01-01T02:33:32Z</time>
      </trkpt>
      <trkpt lat="40.0593378" lon="-7.28288652">
        <ele>422.0</ele>
        <time>2010-01-01T02:33:51Z</time>
      </trkpt>
      <trkpt lat="40.0594165" lon="-7.28272671">
        <ele>422.0</ele>
        <time>2010-01-01T02:33:57Z</time>
      </trkpt>
      <trkpt lat="40.0594115" lon="-7.28235243">
        <ele>421.0</ele>
        <time>2010-01-01T02:34:09Z</time>
      </trkpt>
      <trkpt lat="40.0596008" lon="-7.28190567">
        <ele>419.0</ele>
        <time>2010-01-01T02:34:24Z</time>
      </trkpt>
      <trkpt lat="40.0597465" lon="-7.28172088">
        <ele>418.0</ele>
        <time>2010-01-01T02:34:32Z</time>
      </trkpt>
      <trkpt lat="40.0599384" lon="-7.28145644">
        <ele>417.0</ele>
        <time>2010-01-01T02:34:44Z</time>
      </trkpt>
      <trkpt lat="40.0600951" lon="-7.28139291">
        <ele>417.0</ele>
        <time>2010-01-01T02:34:50Z</time>
      </trkpt>
      <trkpt lat="40.0601978" lon="-7.281376">
        <ele>418.0</ele>
        <time>2010-01-01T02:34:54Z</time>
      </trkpt>
      <trkpt lat="40.0604797" lon="-7.28107325">
        <ele>419.0</ele>
        <time>2010-01-01T02:35:09Z</time>
      </trkpt>
      <trkpt lat="40.0606327" lon="-7.28086876">
        <ele>420.0</ele>
        <time>2010-01-01T02:35:18Z</time>
      </trkpt>
      <trkpt lat="40.0607687" lon="-7.28073057">
        <ele>421.0</ele>
        <time>2010-01-01T02:35:25Z</time>
      </trkpt>
      <trkpt lat="40.0611198" lon="-7.28028929">
        <ele>425.0</ele>
        <time>2010-01-01T02:35:44Z</time>
      </trkpt>
      <trkpt lat="40.0612174" lon="-7.28001947">
        <ele>425.0</ele>
        <time>2010-01-01T02:35:53Z</time>
      </trkpt>
      <trkpt lat="40.061242" lon="-7.27983292">
        <ele>425.0</ele>
        <time>2010-01-01T02:35:59Z</time>
      </trkpt>
      <trkpt lat="40.0612415" lon="-7.27954492">
        <ele>425.0</ele>
        <time>2010-01-01T02:36:08Z</time>
      </trkpt>
      <trkpt lat="40.0612038" lon="-7.27924527">
        <ele>425.0</ele>
        <time>2010-01-01T02:36:17Z</time>
      </trkpt>
      <trkpt lat="40.0614589" lon="-7.27874719">
        <ele>425.0</ele>
        <time>2010-01-01T02:36:35Z</time>
      </trkpt>
      <trkpt lat="40.0616408" lon="-7.27832014">
        <ele>424.0</ele>
        <time>2010-01-01T02:36:50Z</time>
      </trkpt>
      <trkpt lat="40.061785" lon="-7.27798709">
        <ele>424.0</ele>
        <time>2010-01-01T02:37:02Z</time>
      </trkpt>
      <trkpt lat="40.0618783" lon="-7.27773228">
        <ele>424.0</ele>
        <time>2010-01-01T02:37:11Z</time>
      </trkpt>
      <trkpt lat="40.0620099" lon="-7.27737718">
        <ele>423.0</ele>
        <time>2010-01-01T02:37:23Z</time>
      </trkpt>
      <trkpt lat="40.0620687" lon="-7.27714877">
        <ele>422.0</ele>
        <time>2010-01-01T02:37:30Z</time>
      </trkpt>
      <trkpt lat="40.0622142" lon="-7.27700548">
        <ele>422.0</ele>
        <time>2010-01-01T02:37:38Z</time>
      </trkpt>
      <trkpt lat="40.0623355" lon="-7.27690017">
        <ele>422.0</ele>
        <time>2010-01-01T02:37:43Z</time>
      </trkpt>
      <trkpt lat="40.0625357" lon="-7.27674862">
        <ele>421.0</ele>
        <time>2010-01-01T02:37:53Z</time>
      </trkpt>
      <trkpt lat="40.0628122" lon="-7.27657115">
        <ele>420.0</ele>
        <time>2010-01-01T02:38:05Z</time>
      </trkpt>
      <trkpt lat="40.0628703" lon="-7.27644637">
        <ele>420.0</ele>
        <time>2010-01-01T02:38:09Z</time>
      </trkpt>
      <trkpt lat="40.0629191" lon="-7.27609268">
        <ele>419.0</ele>
        <time>2010-01-01T02:38:20Z</time>
      </trkpt>
      <trkpt lat="40.0629572" lon="-7.27583113">
        <ele>418.0</ele>
        <time>2010-01-01T02:38:29Z</time>
      </trkpt>
      <trkpt lat="40.0630272" lon="-7.27572378">
        <ele>418.0</ele>
        <time>2010-01-01T02:38:33Z</time>
      </trkpt>
      <trkpt lat="40.0631999" lon="-7.27556045">
        <ele>417.0</ele>
        <time>2010-01-01T02:38:41Z</time>
      </trkpt>
      <trkpt lat="40.0633805" lon="-7.27545209">
        <ele>415.0</ele>
        <time>2010-01-01T02:38:49Z</time>
      </trkpt>
      <trkpt lat="40.0636861" lon="-7.27531179">
        <ele>413.0</ele>
        <time>2010-01-01T00:00:00Z</time>
      </trkpt>
      <trkpt lat="40.0635235" lon="-7.27491536">
        <ele>412.0</ele>
        <time>2010-01-01T00:00:13Z</time>
      </trkpt>
      <trkpt lat="40.0633665" lon="-7.27472798">
        <ele>411.0</ele>
        <time>2010-01-01T00:00:22Z</time>
      </trkpt>
      <trkpt lat="40.0631127" lon="-7.27459419">
        <ele>413.0</ele>
        <time>2010-01-01T00:00:33Z</time>
      </trkpt>
      <trkpt lat="40.0628887" lon="-7.2744675">
        <ele>415.0</ele>
        <time>2010-01-01T00:00:43Z</time>
      </trkpt>
      <trkpt lat="40.0628012" lon="-7.27430094">
        <ele>415.0</ele>
        <time>2010-01-01T00:00:49Z</time>
      </trkpt>
      <trkpt lat="40.0624555" lon="-7.2740746">
        <ele>418.0</ele>
        <time>2010-01-01T00:01:04Z</time>
      </trkpt>
      <trkpt lat="40.0621486" lon="-7.27390504">
        <ele>420.0</ele>
        <time>2010-01-01T00:01:18Z</time>
      </trkpt>
      <trkpt lat="40.0618006" lon="-7.27364447">
        <ele>421.0</ele>
        <time>2010-01-01T00:01:34Z</time>
      </trkpt>
      <trkpt lat="40.061575" lon="-7.27336133">
        <ele>422.0</ele>
        <time>2010-01-01T00:01:46Z</time>
      </trkpt>
      <trkpt lat="40.0614254" lon="-7.27305736">
        <ele>422.0</ele>
        <time>2010-01-01T00:01:57Z</time>
      </trkpt>
      <trkpt lat="40.0613228" lon="-7.2728402">
        <ele>423.0</ele>
        <time>2010-01-01T00:02:05Z</time>
      </trkpt>
      <trkpt lat="40.0610545" lon="-7.27257218">
        <ele>423.0</ele>
        <time>2010-01-01T00:02:19Z</time>
      </trkpt>
      <trkpt lat="40.0611066" lon="-7.27245189">
        <ele>422.0</ele>
        <time>2010-01-01T00:02:23Z</time>
      </trkpt>
      <trkpt lat="40.0614375" lon="-7.27203571">
        <ele>421.0</ele>
        <time>2010-01-01T00:02:41Z</time>
      </trkpt>
      <trkpt lat="40.0615429" lon="-7.27188206">
        <ele>420.0</ele>
        <time>2010-01-01T00:02:47Z</time>
      </trkpt>
      <trkpt lat="40.0617315" lon="-7.27161203">
        <ele>420.0</ele>
        <time>2010-01-01T00:02:59Z</time>
      </trkpt>
      <trkpt lat="40.0619496" lon="-7.27128014">
        <ele>420.0</ele>
        <time>2010-01-01T00:03:12Z</time>
      </trkpt>
      <trkpt lat="40.0623693" lon="-7.27058689">
        <ele>421.0</ele>
        <time>2010-01-01T00:03:39Z</time>
      </trkpt>
      <trkpt lat="40.0626189" lon="-7.27029078">
        <ele>420.0</ele>
        <time>2010-01-01T00:03:53Z</time>
      </trkpt>
      <trkpt lat="40.0631114" lon="-7.27014062">
        <ele>420.0</ele>
        <time>2010-01-01T00:04:13Z</time>
      </trkpt>
      <trkpt lat="40.0632299" lon="-7.26987431">
        <ele>420.0</ele>
        <time>2010-01-01T00:04:22Z</time>
      </trkpt>
      <trkpt lat="40.0633995" lon="-7.26949611">
        <ele>420.0</ele>
        <time>2010-01-01T00:04:36Z</time>
      </trkpt>
      <trkpt lat="40.0630074" lon="-7.26913922">
        <ele>419.0</ele>
        <time>2010-01-01T00:04:55Z</time>
      </trkpt>
      <trkpt lat="40.0626475" lon="-7.26882444">
        <ele>416.0</ele>
        <time>2010-01-01T00:05:12Z</time>
      </trkpt>
      <trkpt lat="40.0624684" lon="-7.26851887">
        <ele>413.0</ele>
        <time>2010-01-01T00:05:24Z</time>
      </trkpt>
      <trkpt lat="40.062309" lon="-7.2683328">
        <ele>413.0</ele>
        <time>2010-01-01T00:05:33Z</time>
      </trkpt>
      <trkpt lat="40.0619984" lon="-7.26800857">
        <ele>413.0</ele>
        <time>2010-01-01T00:05:48Z</time>
      </trkpt>
      <trkpt lat="40.0616945" lon="-7.26769816">
        <ele>413.0</ele>
        <time>2010-01-01T00:06:04Z</time>
      </trkpt>
      <trkpt lat="40.0615608" lon="-7.26719369">
        <ele>412.0</ele>
        <time>2010-01-01T00:06:20Z</time>
      </trkpt>
      <trkpt lat="40.0610468" lon="-7.26669155">
        <ele>413.0</ele>
        <time>2010-01-01T00:06:46Z</time>
      </trkpt>
      <trkpt lat="40.060782" lon="-7.26686301">
        <ele>411.0</ele>
        <time>2010-01-01T00:06:58Z</time>
      </trkpt>
      <trkpt lat="40.060486" lon="-7.26719361">
        <ele>409.0</ele>
        <time>2010-01-01T00:07:13Z</time>
      </trkpt>
      <trkpt lat="40.0602976" lon="-7.2673301">
        <ele>408.0</ele>
        <time>2010-01-01T00:07:22Z</time>
      </trkpt>
      <trkpt lat="40.0601639" lon="-7.26738655">
        <ele>408.0</ele>
        <time>2010-01-01T00:07:28Z</time>
      </trkpt>
      <trkpt lat="40.0601309" lon="-7.26738419">
        <ele>408.0</ele>
        <time>2010-01-01T00:07:29Z</time>
      </trkpt>
      <trkpt lat="40.0600453" lon="-7.26724688">
        <ele>408.0</ele>
        <time>2010-01-01T00:07:34Z</time>
      </trkpt>
      <trkpt lat="40.0598291" lon="-7.26688318">
        <ele>406.0</ele>
        <time>2010-01-01T00:07:48Z</time>
      </trkpt>
      <trkpt lat="40.0594652" lon="-7.26615791">
        <ele>405.0</ele>
        <time>2010-01-01T00:08:15Z</time>
      </trkpt>
      <trkpt lat="40.0592517" lon="-7.26573541">
        <ele>409.0</ele>
        <time>2010-01-01T00:08:31Z</time>
      </trkpt>
      <trkpt lat="40.0588618" lon="-7.26495245">
        <ele>414.0</ele>
        <time>2010-01-01T00:08:59Z</time>
      </trkpt>
      <trkpt lat="40.0584961" lon="-7.26421598">
        <ele>415.0</ele>
        <time>2010-01-01T00:09:26Z</time>
      </trkpt>
      <trkpt lat="40.0582905" lon="-7.26379279">
        <ele>416.0</ele>
        <time>2010-01-01T00:09:41Z</time>
      </trkpt>
      <trkpt lat="40.0581652" lon="-7.26354944">
        <ele>417.0</ele>
        <time>2010-01-01T00:09:50Z</time>
      </trkpt>
      <trkpt lat="40.0577926" lon="-7.26327478">
        <ele>418.0</ele>
        <time>2010-01-01T00:10:08Z</time>
      </trkpt>
      <trkpt lat="40.0573306" lon="-7.26291615">
        <ele>416.0</ele>
        <time>2010-01-01T00:10:29Z</time>
      </trkpt>
      <trkpt lat="40.0571855" lon="-7.26273378">
        <ele>416.0</ele>
        <time>2010-01-01T00:10:37Z</time>
      </trkpt>
      <trkpt lat="40.0570318" lon="-7.26244984">
        <ele>415.0</ele>
        <time>2010-01-01T00:10:48Z</time>
      </trkpt>
      <trkpt lat="40.0567786" lon="-7.26174392">
        <ele>414.0</ele>
        <time>2010-01-01T00:11:12Z</time>
      </trkpt>
      <trkpt lat="40.0565946" lon="-7.2615337">
        <ele>414.0</ele>
        <time>2010-01-01T00:11:21Z</time>
      </trkpt>
      <trkpt lat="40.0563254" lon="-7.26097506">
        <ele>414.0</ele>
        <time>2010-01-01T00:11:42Z</time>
      </trkpt>
      <trkpt lat="40.0562038" lon="-7.2607066">
        <ele>413.0</ele>
        <time>2010-01-01T00:11:51Z</time>
      </trkpt>
      <trkpt lat="40.0558064" lon="-7.26020208">
        <ele>414.0</ele>
        <time>2010-01-01T00:12:13Z</time>
      </trkpt>
      <trkpt lat="40.0555434" lon="-7.25989466">
        <ele>416.0</ele>
        <time>2010-01-01T00:12:28Z</time>
      </trkpt>
      <trkpt lat="40.0552522" lon="-7.2597213">
        <ele>415.0</ele>
        <time>2010-01-01T00:12:40Z</time>
      </trkpt>
      <trkpt lat="40.0550175" lon="-7.25963349">
        <ele>414.0</ele>
        <time>2010-01-01T00:12:50Z</time>
      </trkpt>
      <trkpt lat="40.0545546" lon="-7.25966088">
        <ele>414.0</ele>
        <time>2010-01-01T00:13:09Z</time>
      </trkpt>
      <trkpt lat="40.054215" lon="-7.25969983">
        <ele>413.0</ele>
        <time>2010-01-01T00:13:22Z</time>
      </trkpt>
      <trkpt lat="40.0540505" lon="-7.25967078">
        <ele>412.0</ele>
        <time>2010-01-01T00:13:29Z</time>
      </trkpt>
      <trkpt lat="40.0538918" lon="-7.25959253">
        <ele>411.0</ele>
        <time>2010-01-01T00:13:36Z</time>
      </trkpt>
      <trkpt lat="40.0532612" lon="-7.25940564">
        <ele>412.0</ele>
        <time>2010-01-01T00:14:02Z</time>
      </trkpt>
      <trkpt lat="40.0525479" lon="-7.25919332">
        <ele>413.0</ele>
        <time>2010-01-01T00:14:31Z</time>
      </trkpt>
      <trkpt lat="40.0521964" lon="-7.25921701">
        <ele>413.0</ele>
        <time>2010-01-01T00:14:45Z</time>
      </trkpt>
      <trkpt lat="40.0517453" lon="-7.25920332">
        <ele>411.0</ele>
        <time>2010-01-01T00:15:03Z</time>
      </trkpt>
      <trkpt lat="40.0512055" lon="-7.25909029">
        <ele>415.0</ele>
        <time>2010-01-01T00:15:25Z</time>
      </trkpt>
      <trkpt lat="40.0509225" lon="-7.25931334">
        <ele>419.0</ele>
        <time>2010-01-01T00:15:38Z</time>
      </trkpt>
      <trkpt lat="40.0505443" lon="-7.25967505">
        <ele>422.0</ele>
        <time>2010-01-01T00:15:57Z</time>
      </trkpt>
      <trkpt lat="40.0503833" lon="-7.25975868">
        <ele>422.0</ele>
        <time>2010-01-01T00:16:04Z</time>
      </trkpt>
      <trkpt lat="40.0501975" lon="-7.25972238">
        <ele>423.0</ele>
        <time>2010-01-01T00:16:11Z</time>
      </trkpt>
      <trkpt lat="40.0500773" lon="-7.25962936">
        <ele>424.0</ele>
        <time>2010-01-01T00:16:17Z</time>
      </trkpt>
      <trkpt lat="40.0498648" lon="-7.25945806">
        <ele>424.0</ele>
        <time>2010-01-01T00:16:27Z</time>
      </trkpt>
      <trkpt lat="40.0497525" lon="-7.25934843">
        <ele>425.0</ele>
        <time>2010-01-01T00:16:33Z</time>
      </trkpt>
      <trkpt lat="40.0493994" lon="-7.25935241">
        <ele>422.0</ele>
        <time>2010-01-01T00:16:47Z</time>
      </trkpt>
      <trkpt lat="40.0492699" lon="-7.25931459">
        <ele>421.0</ele>
        <time>2010-01-01T00:16:52Z</time>
      </trkpt>
      <trkpt lat="40.0491292" lon="-7.25927265">
        <ele>420.0</ele>
        <time>2010-01-01T00:16:58Z</time>
      </trkpt>
      <trkpt lat="40.0487236" lon="-7.25919866">
        <ele>420.0</ele>
        <time>2010-01-01T00:17:14Z</time>
      </trkpt>
      <trkpt lat="40.0483761" lon="-7.25916113">
        <ele>420.0</ele>
        <time>2010-01-01T00:17:28Z</time>
      </trkpt>
      <trkpt lat="40.0482367" lon="-7.25916037">
        <ele>419.0</ele>
        <time>2010-01-01T00:17:34Z</time>
      </trkpt>
      <trkpt lat="40.0477911" lon="-7.25923973">
        <ele>417.0</ele>
        <time>2010-01-01T00:17:52Z</time>
      </trkpt>
      <trkpt lat="40.0472604" lon="-7.2593689">
        <ele>417.0</ele>
        <time>2010-01-01T00:18:13Z</time>
      </trkpt>
      <trkpt lat="40.0469649" lon="-7.2595472">
        <ele>416.0</ele>
        <time>2010-01-01T00:18:26Z</time>
      </trkpt>
      <trkpt lat="40.046565" lon="-7.25997376">
        <ele>415.0</ele>
        <time>2010-01-01T00:18:47Z</time>
      </trkpt>
      <trkpt lat="40.0463181" lon="-7.26027644">
        <ele>413.0</ele>
        <time>2010-01-01T00:19:01Z</time>
      </trkpt>
      <trkpt lat="40.0459241" lon="-7.26049223">
        <ele>413.0</ele>
        <time>2010-01-01T00:19:18Z</time>
      </trkpt>
      <trkpt lat="40.0456896" lon="-7.26061668">
        <ele>414.0</ele>
        <time>2010-01-01T00:19:28Z</time>
      </trkpt>
      <trkpt lat="40.045355" lon="-7.26068976">
        <ele>414.0</ele>
        <time>2010-01-01T00:19:41Z</time>
      </trkpt>
      <trkpt lat="40.0451316" lon="-7.2607426">
        <ele>414.0</ele>
        <time>2010-01-01T00:19:51Z</time>
      </trkpt>
      <trkpt lat="40.0446064" lon="-7.26078499">
        <ele>410.0</ele>
        <time>2010-01-01T00:20:12Z</time>
      </trkpt>
      <trkpt lat="40.0441439" lon="-7.26083944">
        <ele>409.0</ele>
        <time>2010-01-01T00:20:30Z</time>
      </trkpt>
      <trkpt lat="40.0437597" lon="-7.26089672">
        <ele>410.0</ele>
        <time>2010-01-01T00:20:46Z</time>
      </trkpt>
      <trkpt lat="40.043304" lon="-7.26094777">
        <ele>411.0</ele>
        <time>2010-01-01T00:21:04Z</time>
      </trkpt>
      <trkpt lat="40.0429545" lon="-7.26096403">
        <ele>408.0</ele>
        <time>2010-01-01T00:21:18Z</time>
      </trkpt>
      <trkpt lat="40.042814" lon="-7.2609199">
        <ele>407.0</ele>
        <time>2010-01-01T00:21:24Z</time>
      </trkpt>
      <trkpt lat="40.0426575" lon="-7.26082899">
        <ele>406.0</ele>
        <time>2010-01-01T00:21:31Z</time>
      </trkpt>
      <trkpt lat="40.0422205" lon="-7.26060714">
        <ele>406.0</ele>
        <time>2010-01-01T00:21:49Z</time>
      </trkpt>
      <trkpt lat="40.0418868" lon="-7.26036299">
        <ele>406.0</ele>
        <time>2010-01-01T00:22:05Z</time>
      </trkpt>
      <trkpt lat="40.0413504" lon="-7.26013914">
        <ele>407.0</ele>
        <time>2010-01-01T00:22:27Z</time>
      </trkpt>
      <trkpt lat="40.0408028" lon="-7.25998888">
        <ele>405.0</ele>
        <time>2010-01-01T00:22:50Z</time>
      </trkpt>
      <trkpt lat="40.0403894" lon="-7.25987722">
        <ele>405.0</ele>
        <time>2010-01-01T00:23:07Z</time>
      </trkpt>
      <trkpt lat="40.0401353" lon="-7.25981006">
        <ele>405.0</ele>
        <time>2010-01-01T00:23:17Z</time>
      </trkpt>
      <trkpt lat="40.0390285" lon="-7.25934401">
        <ele>400.0</ele>
        <time>2010-01-01T00:24:03Z</time>
      </trkpt>
      <trkpt lat="40.038436" lon="-7.2591246">
        <ele>399.0</ele>
        <time>2010-01-01T00:24:28Z</time>
      </trkpt>
      <trkpt lat="40.0376454" lon="-7.25880329">
        <ele>401.0</ele>
        <time>2010-01-01T00:25:01Z</time>
      </trkpt>
      <trkpt lat="40.0374379" lon="-7.25871117">
        <ele>401.0</ele>
        <time>2010-01-01T00:25:10Z</time>
      </trkpt>
      <trkpt lat="40.037114" lon="-7.25831087">
        <ele>403.0</ele>
        <time>2010-01-01T00:25:28Z</time>
      </trkpt>
      <trkpt lat="40.036941" lon="-7.25827995">
        <ele>403.0</ele>
        <time>2010-01-01T00:25:35Z</time>
      </trkpt>
      <trkpt lat="40.0367081" lon="-7.25792849">
        <ele>403.0</ele>
        <time>2010-01-01T00:25:49Z</time>
      </trkpt>
      <trkpt lat="40.0358323" lon="-7.25770545">
        <ele>407.0</ele>
        <time>2010-01-01T00:26:25Z</time>
      </trkpt>
      <trkpt lat="40.0357075" lon="-7.25783125">
        <ele>407.0</ele>
        <time>2010-01-01T00:26:31Z</time>
      </trkpt>
      <trkpt lat="40.0355421" lon="-7.257814">
        <ele>408.0</ele>
        <time>2010-01-01T00:26:38Z</time>
      </trkpt>
      <trkpt lat="40.0352806" lon="-7.25769783">
        <ele>409.0</ele>
        <time>2010-01-01T00:26:49Z</time>
      </trkpt>
      <trkpt lat="40.0343799" lon="-7.25738289">
        <ele>409.0</ele>
        <time>2010-01-01T00:27:26Z</time>
      </trkpt>
      <trkpt lat="40.0340395" lon="-7.25724875">
        <ele>412.0</ele>
        <time>2010-01-01T00:27:40Z</time>
      </trkpt>
      <trkpt lat="40.0337504" lon="-7.25723047">
        <ele>414.0</ele>
        <time>2010-01-01T00:27:52Z</time>
      </trkpt>
      <trkpt lat="40.0332184" lon="-7.25753932">
        <ele>416.0</ele>
        <time>2010-01-01T00:28:15Z</time>
      </trkpt>
      <trkpt lat="40.0330248" lon="-7.25767073">
        <ele>415.0</ele>
        <time>2010-01-01T00:28:24Z</time>
      </trkpt>
      <trkpt lat="40.0326368" lon="-7.25773984">
        <ele>414.0</ele>
        <time>2010-01-01T00:28:40Z</time>
      </trkpt>
      <trkpt lat="40.0324323" lon="-7.25778721">
        <ele>413.0</ele>
        <time>2010-01-01T00:28:48Z</time>
      </trkpt>
      <trkpt lat="40.0321555" lon="-7.25786409">
        <ele>411.0</ele>
        <time>2010-01-01T00:28:59Z</time>
      </trkpt>
      <trkpt lat="40.0319187" lon="-7.25811457">
        <ele>411.0</ele>
        <time>2010-01-01T00:29:12Z</time>
      </trkpt>
      <trkpt lat="40.0317753" lon="-7.25835174">
        <ele>411.0</ele>
        <time>2010-01-01T00:29:21Z</time>
      </trkpt>
      <trkpt lat="40.0316114" lon="-7.25862917">
        <ele>412.0</ele>
        <time>2010-01-01T00:29:32Z</time>
      </trkpt>
      <trkpt lat="40.0314459" lon="-7.25874234">
        <ele>412.0</ele>
        <time>2010-01-01T00:29:39Z</time>
      </trkpt>
      <trkpt lat="40.0312411" lon="-7.25889138">
        <ele>412.0</ele>
        <time>2010-01-01T00:29:48Z</time>
      </trkpt>
      <trkpt lat="40.0307389" lon="-7.25919826">
        <ele>414.0</ele>
        <time>2010-01-01T00:30:11Z</time>
      </trkpt>
      <trkpt lat="40.030502" lon="-7.25930387">
        <ele>414.0</ele>
        <time>2010-01-01T00:30:21Z</time>
      </trkpt>
      <trkpt lat="40.0302726" lon="-7.2593191">
        <ele>414.0</ele>
        <time>2010-01-01T00:30:30Z</time>
      </trkpt>
      <trkpt lat="40.0301033" lon="-7.25936149">
        <ele>413.0</ele>
        <time>2010-01-01T00:30:37Z</time>
      </trkpt>
      <trkpt lat="40.0296932" lon="-7.25904756">
        <ele>412.0</ele>
        <time>2010-01-01T00:30:56Z</time>
      </trkpt>
      <trkpt lat="40.0292146" lon="-7.2588074">
        <ele>413.0</ele>
        <time>2010-01-01T00:31:16Z</time>
      </trkpt>
      <trkpt lat="40.0290183" lon="-7.25851254">
        <ele>413.0</ele>
        <time>2010-01-01T00:31:28Z</time>
      </trkpt>
      <trkpt lat="40.0287519" lon="-7.25778892">
        <ele>409.0</ele>
        <time>2010-01-01T00:31:53Z</time>
      </trkpt>
      <trkpt lat="40.0285731" lon="-7.25765199">
        <ele>408.0</ele>
        <time>2010-01-01T00:32:01Z</time>
      </trkpt>
      <trkpt lat="40.0280068" lon="-7.25734367">
        <ele>405.0</ele>
        <time>2010-01-01T00:32:26Z</time>
      </trkpt>
      <trkpt lat="40.0276438" lon="-7.25715194">
        <ele>404.0</ele>
        <time>2010-01-01T00:32:41Z</time>
      </trkpt>
      <trkpt lat="40.0272432" lon="-7.25667407">
        <ele>403.0</ele>
        <time>2010-01-01T00:33:03Z</time>
      </trkpt>
      <trkpt lat="40.0271134" lon="-7.25635034">
        <ele>401.0</ele>
        <time>2010-01-01T00:33:14Z</time>
      </trkpt>
      <trkpt lat="40.0270865" lon="-7.25613963">
        <ele>400.0</ele>
        <time>2010-01-01T00:33:21Z</time>
      </trkpt>
      <trkpt lat="40.0271485" lon="-7.255928">
        <ele>399.0</ele>
        <time>2010-01-01T00:33:28Z</time>
      </trkpt>
      <trkpt lat="40.0271252" lon="-7.25573977">
        <ele>399.0</ele>
        <time>2010-01-01T00:33:34Z</time>
      </trkpt>
      <trkpt lat="40.0269108" lon="-7.25542635">
        <ele>400.0</ele>
        <time>2010-01-01T00:33:47Z</time>
      </trkpt>
      <trkpt lat="40.0266946" lon="-7.25511694">
        <ele>401.0</ele>
        <time>2010-01-01T00:33:59Z</time>
      </trkpt>
      <trkpt lat="40.0265817" lon="-7.25483266">
        <ele>400.0</ele>
        <time>2010-01-01T00:34:09Z</time>
      </trkpt>
      <trkpt lat="40.0264822" lon="-7.25450238">
        <ele>399.0</ele>
        <time>2010-01-01T00:34:20Z</time>
      </trkpt>
      <trkpt lat="40.026352" lon="-7.2541447">
        <ele>399.0</ele>
        <time>2010-01-01T00:34:32Z</time>
      </trkpt>
      <trkpt lat="40.026206" lon="-7.25378356">
        <ele>400.0</ele>
        <time>2010-01-01T00:34:45Z</time>
      </trkpt>
      <trkpt lat="40.0261518" lon="-7.25334312">
        <ele>400.0</ele>
        <time>2010-01-01T00:34:58Z</time>
      </trkpt>
      <trkpt lat="40.0261498" lon="-7.25294799">
        <ele>398.0</ele>
        <time>2010-01-01T00:35:11Z</time>
      </trkpt>
      <trkpt lat="40.0261407" lon="-7.25272023">
        <ele>398.0</ele>
        <time>2010-01-01T00:35:18Z</time>
      </trkpt>
      <trkpt lat="40.0260096" lon="-7.25221375">
        <ele>401.0</ele>
        <time>2010-01-01T00:35:34Z</time>
      </trkpt>
      <trkpt lat="40.0259458" lon="-7.25160746">
        <ele>401.0</ele>
        <time>2010-01-01T00:35:53Z</time>
      </trkpt>
      <trkpt lat="40.0259552" lon="-7.25122526">
        <ele>402.0</ele>
        <time>2010-01-01T00:36:04Z</time>
      </trkpt>
      <trkpt lat="40.0260123" lon="-7.25043113">
        <ele>399.0</ele>
        <time>2010-01-01T00:36:29Z</time>
      </trkpt>
      <trkpt lat="40.0258116" lon="-7.24991232">
        <ele>396.0</ele>
        <time>2010-01-01T00:36:47Z</time>
      </trkpt>
      <trkpt lat="40.0255634" lon="-7.24943472">
        <ele>394.0</ele>
        <time>2010-01-01T00:37:04Z</time>
      </trkpt>
      <trkpt lat="40.0254954" lon="-7.2492514">
        <ele>395.0</ele>
        <time>2010-01-01T00:37:11Z</time>
      </trkpt>
      <trkpt lat="40.0252985" lon="-7.24867185">
        <ele>395.0</ele>
        <time>2010-01-01T00:37:30Z</time>
      </trkpt>
      <trkpt lat="40.0251454" lon="-7.24785278">
        <ele>393.0</ele>
        <time>2010-01-01T00:37:56Z</time>
      </trkpt>
      <trkpt lat="40.0251048" lon="-7.24731404">
        <ele>391.0</ele>
        <time>2010-01-01T00:38:12Z</time>
      </trkpt>
      <trkpt lat="40.0251101" lon="-7.24630808">
        <ele>391.0</ele>
        <time>2010-01-01T00:38:43Z</time>
      </trkpt>
      <trkpt lat="40.0251181" lon="-7.24585355">
        <ele>391.0</ele>
        <time>2010-01-01T00:38:57Z</time>
      </trkpt>
      <trkpt lat="40.0251317" lon="-7.24541965">
        <ele>391.0</ele>
        <time>2010-01-01T00:39:11Z</time>
      </trkpt>
      <trkpt lat="40.0252913" lon="-7.24520826">
        <ele>391.0</ele>
        <time>2010-01-01T00:39:20Z</time>
      </trkpt>
      <trkpt lat="40.0252753" lon="-7.24506265">
        <ele>391.0</ele>
        <time>2010-01-01T00:39:24Z</time>
      </trkpt>
      <trkpt lat="40.0253463" lon="-7.24463794">
        <ele>388.0</ele>
        <time>2010-01-01T00:39:37Z</time>
      </trkpt>
      <trkpt lat="40.02528" lon="-7.24436089">
        <ele>386.0</ele>
        <time>2010-01-01T00:39:46Z</time>
      </trkpt>
      <trkpt lat="40.0252807" lon="-7.24376308">
        <ele>382.0</ele>
        <time>2010-01-01T00:40:05Z</time>
      </trkpt>
      <trkpt lat="40.025239" lon="-7.24343253">
        <ele>381.0</ele>
        <time>2010-01-01T00:40:15Z</time>
      </trkpt>
      <trkpt lat="40.0251406" lon="-7.24300916">
        <ele>377.0</ele>
        <time>2010-01-01T00:40:29Z</time>
      </trkpt>
      <trkpt lat="40.0250586" lon="-7.24260337">
        <ele>376.0</ele>
        <time>2010-01-01T00:40:41Z</time>
      </trkpt>
      <trkpt lat="40.0250271" lon="-7.24246377">
        <ele>376.0</ele>
        <time>2010-01-01T00:40:46Z</time>
      </trkpt>
      <trkpt lat="40.0248788" lon="-7.24208305">
        <ele>374.0</ele>
        <time>2010-01-01T00:40:59Z</time>
      </trkpt>
      <trkpt lat="40.0248029" lon="-7.2418652">
        <ele>372.0</ele>
        <time>2010-01-01T00:41:06Z</time>
      </trkpt>
      <trkpt lat="40.0247973" lon="-7.24144893">
        <ele>370.0</ele>
        <time>2010-01-01T00:41:19Z</time>
      </trkpt>
      <trkpt lat="40.0247988" lon="-7.24104081">
        <ele>372.0</ele>
        <time>2010-01-01T00:41:32Z</time>
      </trkpt>
      <trkpt lat="40.0247909" lon="-7.24086746">
        <ele>372.0</ele>
        <time>2010-01-01T00:41:37Z</time>
      </trkpt>
      <trkpt lat="40.0248348" lon="-7.24047095">
        <ele>373.0</ele>
        <time>2010-01-01T00:41:49Z</time>
      </trkpt>
      <trkpt lat="40.0249822" lon="-7.240136">
        <ele>372.0</ele>
        <time>2010-01-01T00:42:01Z</time>
      </trkpt>
      <trkpt lat="40.0251109" lon="-7.24018928">
        <ele>371.0</ele>
        <time>2010-01-01T00:42:06Z</time>
      </trkpt>
      <trkpt lat="40.0253496" lon="-7.24026281">
        <ele>368.0</ele>
        <time>2010-01-01T00:42:16Z</time>
      </trkpt>
      <trkpt lat="40.0256301" lon="-7.2402125">
        <ele>364.0</ele>
        <time>2010-01-01T00:42:28Z</time>
      </trkpt>
      <trkpt lat="40.0259085" lon="-7.24016177">
        <ele>361.0</ele>
        <time>2010-01-01T00:42:39Z</time>
      </trkpt>
      <trkpt lat="40.0261323" lon="-7.24019316">
        <ele>360.0</ele>
        <time>2010-01-01T00:42:48Z</time>
      </trkpt>
      <trkpt lat="40.0260519" lon="-7.23995035">
        <ele>360.0</ele>
        <time>2010-01-01T00:42:56Z</time>
      </trkpt>
      <trkpt lat="40.0259153" lon="-7.23963517">
        <ele>361.0</ele>
        <time>2010-01-01T00:43:07Z</time>
      </trkpt>
      <trkpt lat="40.025924" lon="-7.23946657">
        <ele>363.0</ele>
        <time>2010-01-01T00:43:12Z</time>
      </trkpt>
      <trkpt lat="40.0260042" lon="-7.23918476">
        <ele>366.0</ele>
        <time>2010-01-01T00:43:21Z</time>
      </trkpt>
      <trkpt lat="40.0261607" lon="-7.23885903">
        <ele>368.0</ele>
        <time>2010-01-01T00:43:33Z</time>
      </trkpt>
      <trkpt lat="40.0261195" lon="-7.23864859">
        <ele>369.0</ele>
        <time>2010-01-01T00:43:40Z</time>
      </trkpt>
      <trkpt lat="40.0261233" lon="-7.23840226">
        <ele>369.0</ele>
        <time>2010-01-01T00:43:47Z</time>
      </trkpt>
      <trkpt lat="40.0261571" lon="-7.23814895">
        <ele>368.0</ele>
        <time>2010-01-01T00:43:55Z</time>
      </trkpt>
      <trkpt lat="40.026171" lon="-7.23790396">
        <ele>366.0</ele>
        <time>2010-01-01T00:44:03Z</time>
      </trkpt>
      <trkpt lat="40.0261196" lon="-7.23767102">
        <ele>366.0</ele>
        <time>2010-01-01T00:44:10Z</time>
      </trkpt>
      <trkpt lat="40.0261633" lon="-7.23738509">
        <ele>362.0</ele>
        <time>2010-01-01T00:44:19Z</time>
      </trkpt>
      <trkpt lat="40.0261574" lon="-7.23722505">
        <ele>361.0</ele>
        <time>2010-01-01T00:44:24Z</time>
      </trkpt>
      <trkpt lat="40.0259886" lon="-7.23707265">
        <ele>363.0</ele>
        <time>2010-01-01T00:44:32Z</time>
      </trkpt>
      <trkpt lat="40.025803" lon="-7.23688028">
        <ele>362.0</ele>
        <time>2010-01-01T00:44:42Z</time>
      </trkpt>
      <trkpt lat="40.0256743" lon="-7.23665797">
        <ele>358.0</ele>
        <time>2010-01-01T00:44:50Z</time>
      </trkpt>
      <trkpt lat="40.0256329" lon="-7.23640196">
        <ele>354.0</ele>
        <time>2010-01-01T00:44:58Z</time>
      </trkpt>
      <trkpt lat="40.0254163" lon="-7.23623462">
        <ele>353.0</ele>
        <time>2010-01-01T00:45:08Z</time>
      </trkpt>
      <trkpt lat="40.0250856" lon="-7.23594272">
        <ele>349.0</ele>
        <time>2010-01-01T00:45:24Z</time>
      </trkpt>
      <trkpt lat="40.0248977" lon="-7.23581102">
        <ele>345.0</ele>
        <time>2010-01-01T00:45:33Z</time>
      </trkpt>
      <trkpt lat="40.0245734" lon="-7.2357117">
        <ele>338.0</ele>
        <time>2010-01-01T00:45:46Z</time>
      </trkpt>
      <trkpt lat="40.0243759" lon="-7.23584598">
        <ele>336.0</ele>
        <time>2010-01-01T00:45:55Z</time>
      </trkpt>
      <trkpt lat="40.0242657" lon="-7.23593982">
        <ele>334.0</ele>
        <time>2010-01-01T00:46:00Z</time>
      </trkpt>
      <trkpt lat="40.0241409" lon="-7.23596077">
        <ele>333.0</ele>
        <time>2010-01-01T00:46:06Z</time>
      </trkpt>
      <trkpt lat="40.0240745" lon="-7.23588288">
        <ele>332.0</ele>
        <time>2010-01-01T00:46:09Z</time>
      </trkpt>
      <trkpt lat="40.0238125" lon="-7.23575084">
        <ele>333.0</ele>
        <time>2010-01-01T00:46:20Z</time>
      </trkpt>
      <trkpt lat="40.0235673" lon="-7.23559665">
        <ele>336.0</ele>
        <time>2010-01-01T00:46:31Z</time>
      </trkpt>
      <trkpt lat="40.0232962" lon="-7.23563795">
        <ele>338.0</ele>
        <time>2010-01-01T00:46:42Z</time>
      </trkpt>
      <trkpt lat="40.0232137" lon="-7.23554387">
        <ele>339.0</ele>
        <time>2010-01-01T00:46:47Z</time>
      </trkpt>
      <trkpt lat="40.0230836" lon="-7.23521048">
        <ele>341.0</ele>
        <time>2010-01-01T00:46:58Z</time>
      </trkpt>
      <trkpt lat="40.0229287" lon="-7.2347613">
        <ele>344.0</ele>
        <time>2010-01-01T00:47:13Z</time>
      </trkpt>
      <trkpt lat="40.0224445" lon="-7.23401888">
        <ele>347.0</ele>
        <time>2010-01-01T00:47:43Z</time>
      </trkpt>
      <trkpt lat="40.0221877" lon="-7.23357515">
        <ele>350.0</ele>
        <time>2010-01-01T00:48:00Z</time>
      </trkpt>
      <trkpt lat="40.0217871" lon="-7.23289893">
        <ele>353.0</ele>
        <time>2010-01-01T00:48:26Z</time>
      </trkpt>
      <trkpt lat="40.021395" lon="-7.23227062">
        <ele>354.0</ele>
        <time>2010-01-01T00:48:51Z</time>
      </trkpt>
      <trkpt lat="40.0211639" lon="-7.23200572">
        <ele>352.0</ele>
        <time>2010-01-01T00:49:03Z</time>
      </trkpt>
      <trkpt lat="40.0209995" lon="-7.23184067">
        <ele>351.0</ele>
        <time>2010-01-01T00:49:12Z</time>
      </trkpt>
      <trkpt lat="40.0205211" lon="-7.23147282">
        <ele>351.0</ele>
        <time>2010-01-01T00:49:34Z</time>
      </trkpt>
      <trkpt lat="40.0203025" lon="-7.23122459">
        <ele>354.0</ele>
        <time>2010-01-01T00:49:46Z</time>
      </trkpt>
      <trkpt lat="40.0200356" lon="-7.23081048">
        <ele>358.0</ele>
        <time>2010-01-01T00:50:02Z</time>
      </trkpt>
      <trkpt lat="40.0203703" lon="-7.23033361">
        <ele>356.0</ele>
        <time>2010-01-01T00:50:22Z</time>
      </trkpt>
      <trkpt lat="40.0205263" lon="-7.23006615">
        <ele>355.0</ele>
        <time>2010-01-01T00:50:32Z</time>
      </trkpt>
      <trkpt lat="40.020741" lon="-7.22953586">
        <ele>352.0</ele>
        <time>2010-01-01T00:50:51Z</time>
      </trkpt>
      <trkpt lat="40.0208437" lon="-7.22924152">
        <ele>351.0</ele>
        <time>2010-01-01T00:51:01Z</time>
      </trkpt>
      <trkpt lat="40.0207057" lon="-7.22873091">
        <ele>348.0</ele>
        <time>2010-01-01T00:51:17Z</time>
      </trkpt>
      <trkpt lat="40.0207269" lon="-7.22852209">
        <ele>347.0</ele>
        <time>2010-01-01T00:51:24Z</time>
      </trkpt>
      <trkpt lat="40.0209351" lon="-7.22804669">
        <ele>346.0</ele>
        <time>2010-01-01T00:51:40Z</time>
      </trkpt>
      <trkpt lat="40.0209432" lon="-7.227791">
        <ele>346.0</ele>
        <time>2010-01-01T00:51:48Z</time>
      </trkpt>
      <trkpt lat="40.0208574" lon="-7.22743367">
        <ele>348.0</ele>
        <time>2010-01-01T00:52:00Z</time>
      </trkpt>
      <trkpt lat="40.0207825" lon="-7.22710446">
        <ele>349.0</ele>
        <time>2010-01-01T00:52:10Z</time>
      </trkpt>
      <trkpt lat="40.0207312" lon="-7.22676304">
        <ele>348.0</ele>
        <time>2010-01-01T00:52:21Z</time>
      </trkpt>
      <trkpt lat="40.0206325" lon="-7.22648703">
        <ele>346.0</ele>
        <time>2010-01-01T00:52:30Z</time>
      </trkpt>
      <trkpt lat="40.0206227" lon="-7.22628465">
        <ele>345.0</ele>
        <time>2010-01-01T00:52:36Z</time>
      </trkpt>
      <trkpt lat="40.0205697" lon="-7.22607995">
        <ele>344.0</ele>
        <time>2010-01-01T00:52:43Z</time>
      </trkpt>
      <trkpt lat="40.0203909" lon="-7.22563321">
        <ele>340.0</ele>
        <time>2010-01-01T00:52:59Z</time>
      </trkpt>
      <trkpt lat="40.0201382" lon="-7.22512058">
        <ele>334.0</ele>
        <time>2010-01-01T00:53:17Z</time>
      </trkpt>
      <trkpt lat="40.0200652" lon="-7.22497074">
        <ele>333.0</ele>
        <time>2010-01-01T00:53:23Z</time>
      </trkpt>
      <trkpt lat="40.0195689" lon="-7.22488791">
        <ele>332.0</ele>
        <time>2010-01-01T00:53:43Z</time>
      </trkpt>
      <trkpt lat="40.019338" lon="-7.22484208">
        <ele>331.0</ele>
        <time>2010-01-01T00:53:52Z</time>
      </trkpt>
      <trkpt lat="40.0188955" lon="-7.22458079">
        <ele>328.0</ele>
        <time>2010-01-01T00:54:12Z</time>
      </trkpt>
      <trkpt lat="40.0186624" lon="-7.22443354">
        <ele>327.0</ele>
        <time>2010-01-01T00:54:22Z</time>
      </trkpt>
      <trkpt lat="40.0183038" lon="-7.22403931">
        <ele>322.0</ele>
        <time>2010-01-01T00:54:41Z</time>
      </trkpt>
      <trkpt lat="40.0182159" lon="-7.223602">
        <ele>321.0</ele>
        <time>2010-01-01T00:54:55Z</time>
      </trkpt>
      <trkpt lat="40.0182755" lon="-7.22326001">
        <ele>321.0</ele>
        <time>2010-01-01T00:55:05Z</time>
      </trkpt>
      <trkpt lat="40.0182748" lon="-7.22311822">
        <ele>320.0</ele>
        <time>2010-01-01T00:55:10Z</time>
      </trkpt>
      <trkpt lat="40.0182527" lon="-7.22282983">
        <ele>316.0</ele>
        <time>2010-01-01T00:55:18Z</time>
      </trkpt>
      <trkpt lat="40.0183106" lon="-7.2226757">
        <ele>315.0</ele>
        <time>2010-01-01T00:55:24Z</time>
      </trkpt>
      <trkpt lat="40.0181815" lon="-7.22235823">
        <ele>311.0</ele>
        <time>2010-01-01T00:55:35Z</time>
      </trkpt>
      <trkpt lat="40.0180261" lon="-7.22216193">
        <ele>310.0</ele>
        <time>2010-01-01T00:55:43Z</time>
      </trkpt>
      <trkpt lat="40.0176827" lon="-7.2216709">
        <ele>318.0</ele>
        <time>2010-01-01T00:56:04Z</time>
      </trkpt>
      <trkpt lat="40.0175602" lon="-7.22151212">
        <ele>321.0</ele>
        <time>2010-01-01T00:56:11Z</time>
      </trkpt>
      <trkpt lat="40.0175656" lon="-7.22118383">
        <ele>323.0</ele>
        <time>2010-01-01T00:56:21Z</time>
      </trkpt>
      <trkpt lat="40.0175017" lon="-7.22099663">
        <ele>324.0</ele>
        <time>2010-01-01T00:56:27Z</time>
      </trkpt>
      <trkpt lat="40.0171598" lon="-7.22050108">
        <ele>329.0</ele>
        <time>2010-01-01T00:56:48Z</time>
      </trkpt>
      <trkpt lat="40.0169505" lon="-7.22031743">
        <ele>333.0</ele>
        <time>2010-01-01T00:56:58Z</time>
      </trkpt>
      <trkpt lat="40.016533" lon="-7.22015523">
        <ele>336.0</ele>
        <time>2010-01-01T00:57:15Z</time>
      </trkpt>
      <trkpt lat="40.0163268" lon="-7.2202408">
        <ele>336.0</ele>
        <time>2010-01-01T00:57:24Z</time>
      </trkpt>
      <trkpt lat="40.0161992" lon="-7.2202859">
        <ele>336.0</ele>
        <time>2010-01-01T00:57:29Z</time>
      </trkpt>
      <trkpt lat="40.0160988" lon="-7.22027852">
        <ele>336.0</ele>
        <time>2010-01-01T00:57:33Z</time>
      </trkpt>
      <trkpt lat="40.0159362" lon="-7.22014992">
        <ele>337.0</ele>
        <time>2010-01-01T00:57:41Z</time>
      </trkpt>
      <trkpt lat="40.0157621" lon="-7.21998201">
        <ele>338.0</ele>
        <time>2010-01-01T00:57:49Z</time>
      </trkpt>
      <trkpt lat="40.0153929" lon="-7.21974139">
        <ele>340.0</ele>
        <time>2010-01-01T00:58:06Z</time>
      </trkpt>
      <trkpt lat="40.0152486" lon="-7.21961828">
        <ele>338.0</ele>
        <time>2010-01-01T00:58:13Z</time>
      </trkpt>
      <trkpt lat="40.0147018" lon="-7.21912327">
        <ele>340.0</ele>
        <time>2010-01-01T00:58:39Z</time>
      </trkpt>
      <trkpt lat="40.0145754" lon="-7.21904809">
        <ele>341.0</ele>
        <time>2010-01-01T00:58:45Z</time>
      </trkpt>
      <trkpt lat="40.0144721" lon="-7.2187386">
        <ele>342.0</ele>
        <time>2010-01-01T00:58:55Z</time>
      </trkpt>
      <trkpt lat="40.0142229" lon="-7.21836154">
        <ele>344.0</ele>
        <time>2010-01-01T00:59:11Z</time>
      </trkpt>
      <trkpt lat="40.0141064" lon="-7.21823405">
        <ele>345.0</ele>
        <time>2010-01-01T00:59:17Z</time>
      </trkpt>
      <trkpt lat="40.01358" lon="-7.21816179">
        <ele>346.0</ele>
        <time>2010-01-01T00:59:38Z</time>
      </trkpt>
      <trkpt lat="40.0134258" lon="-7.21798271">
        <ele>347.0</ele>
        <time>2010-01-01T00:59:46Z</time>
      </trkpt>
      <trkpt lat="40.0133631" lon="-7.21779632">
        <ele>348.0</ele>
        <time>2010-01-01T00:59:52Z</time>
      </trkpt>
      <trkpt lat="40.0130553" lon="-7.21742898">
        <ele>350.0</ele>
        <time>2010-01-01T01:00:09Z</time>
      </trkpt>
      <trkpt lat="40.0128029" lon="-7.21726241">
        <ele>350.0</ele>
        <time>2010-01-01T01:00:20Z</time>
      </trkpt>
      <trkpt lat="40.0126223" lon="-7.21709038">
        <ele>349.0</ele>
        <time>2010-01-01T01:00:29Z</time>
      </trkpt>
      <trkpt lat="40.0123952" lon="-7.21695295">
        <ele>349.0</ele>
        <time>2010-01-01T01:00:39Z</time>
      </trkpt>
      <trkpt lat="40.0122556" lon="-7.21677943">
        <ele>347.0</ele>
        <time>2010-01-01T01:00:47Z</time>
      </trkpt>
      <trkpt lat="40.0120814" lon="-7.21658539">
        <ele>345.0</ele>
        <time>2010-01-01T01:00:56Z</time>
      </trkpt>
      <trkpt lat="40.0119524" lon="-7.21638457">
        <ele>344.0</ele>
        <time>2010-01-01T01:01:04Z</time>
      </trkpt>
      <trkpt lat="40.0118579" lon="-7.21623119">
        <ele>342.0</ele>
        <time>2010-01-01T01:01:10Z</time>
      </trkpt>
      <trkpt lat="40.0116738" lon="-7.21601637">
        <ele>340.0</ele>
        <time>2010-01-01T01:01:20Z</time>
      </trkpt>
      <trkpt lat="40.0115489" lon="-7.21578254">
        <ele>338.0</ele>
        <time>2010-01-01T01:01:29Z</time>
      </trkpt>
      <trkpt lat="40.011454" lon="-7.21556317">
        <ele>338.0</ele>
        <time>2010-01-01T01:01:37Z</time>
      </trkpt>
      <trkpt lat="40.0113929" lon="-7.21509939">
        <ele>335.0</ele>
        <time>2010-01-01T01:01:51Z</time>
      </trkpt>
      <trkpt lat="40.011355" lon="-7.21478787">
        <ele>334.0</ele>
        <time>2010-01-01T01:02:01Z</time>
      </trkpt>
      <trkpt lat="40.0111329" lon="-7.21452862">
        <ele>334.0</ele>
        <time>2010-01-01T01:02:13Z</time>
      </trkpt>
      <trkpt lat="40.0110611" lon="-7.21439806">
        <ele>333.0</ele>
        <time>2010-01-01T01:02:18Z</time>
      </trkpt>
      <trkpt lat="40.0108981" lon="-7.21395507">
        <ele>331.0</ele>
        <time>2010-01-01T01:02:33Z</time>
      </trkpt>
      <trkpt lat="40.0109193" lon="-7.21370871">
        <ele>328.0</ele>
        <time>2010-01-01T01:02:40Z</time>
      </trkpt>
      <trkpt lat="40.0107503" lon="-7.21341447">
        <ele>323.0</ele>
        <time>2010-01-01T01:02:51Z</time>
      </trkpt>
      <trkpt lat="40.010555" lon="-7.21317269">
        <ele>321.0</ele>
        <time>2010-01-01T01:03:02Z</time>
      </trkpt>
      <trkpt lat="40.0104626" lon="-7.2130006">
        <ele>319.0</ele>
        <time>2010-01-01T01:03:09Z</time>
      </trkpt>
      <trkpt lat="40.0102866" lon="-7.21279434">
        <ele>318.0</ele>
        <time>2010-01-01T01:03:18Z</time>
      </trkpt>
      <trkpt lat="40.0101222" lon="-7.21270398">
        <ele>317.0</ele>
        <time>2010-01-01T01:03:25Z</time>
      </trkpt>
      <trkpt lat="40.0097425" lon="-7.21242968">
        <ele>315.0</ele>
        <time>2010-01-01T01:03:43Z</time>
      </trkpt>
      <trkpt lat="40.0095044" lon="-7.21219097">
        <ele>316.0</ele>
        <time>2010-01-01T01:03:55Z</time>
      </trkpt>
      <trkpt lat="40.0091781" lon="-7.2118882">
        <ele>318.0</ele>
        <time>2010-01-01T01:04:11Z</time>
      </trkpt>
      <trkpt lat="40.0089949" lon="-7.21190348">
        <ele>318.0</ele>
        <time>2010-01-01T01:04:18Z</time>
      </trkpt>
      <trkpt lat="40.0088349" lon="-7.21178177">
        <ele>317.0</ele>
        <time>2010-01-01T01:04:25Z</time>
      </trkpt>
      <trkpt lat="40.0086562" lon="-7.2115304">
        <ele>318.0</ele>
        <time>2010-01-01T01:04:36Z</time>
      </trkpt>
      <trkpt lat="40.0083086" lon="-7.21090716">
        <ele>318.0</ele>
        <time>2010-01-01T01:05:00Z</time>
      </trkpt>
      <trkpt lat="40.0081789" lon="-7.21062989">
        <ele>319.0</ele>
        <time>2010-01-01T01:05:10Z</time>
      </trkpt>
      <trkpt lat="40.0080813" lon="-7.2104279">
        <ele>319.0</ele>
        <time>2010-01-01T01:05:17Z</time>
      </trkpt>
      <trkpt lat="40.0080633" lon="-7.21023325">
        <ele>318.0</ele>
        <time>2010-01-01T01:05:23Z</time>
      </trkpt>
      <trkpt lat="40.0081026" lon="-7.20994229">
        <ele>318.0</ele>
        <time>2010-01-01T01:05:32Z</time>
      </trkpt>
      <trkpt lat="40.0082733" lon="-7.20970582">
        <ele>321.0</ele>
        <time>2010-01-01T01:05:42Z</time>
      </trkpt>
      <trkpt lat="40.0083565" lon="-7.20960987">
        <ele>323.0</ele>
        <time>2010-01-01T01:05:46Z</time>
      </trkpt>
      <trkpt lat="40.0085447" lon="-7.20947686">
        <ele>325.0</ele>
        <time>2010-01-01T01:05:55Z</time>
      </trkpt>
      <trkpt lat="40.0086543" lon="-7.20927063">
        <ele>325.0</ele>
        <time>2010-01-01T01:06:03Z</time>
      </trkpt>
      <trkpt lat="40.0086528" lon="-7.20897737">
        <ele>326.0</ele>
        <time>2010-01-01T01:06:12Z</time>
      </trkpt>
      <trkpt lat="40.0085614" lon="-7.20874316">
        <ele>327.0</ele>
        <time>2010-01-01T01:06:20Z</time>
      </trkpt>
      <trkpt lat="40.0084195" lon="-7.20872228">
        <ele>327.0</ele>
        <time>2010-01-01T01:06:25Z</time>
      </trkpt>
      <trkpt lat="40.0081592" lon="-7.20851215">
        <ele>328.0</ele>
        <time>2010-01-01T01:06:38Z</time>
      </trkpt>
      <trkpt lat="40.008013" lon="-7.20832744">
        <ele>330.0</ele>
        <time>2010-01-01T01:06:46Z</time>
      </trkpt>
      <trkpt lat="40.0078591" lon="-7.20804352">
        <ele>332.0</ele>
        <time>2010-01-01T01:06:56Z</time>
      </trkpt>
      <trkpt lat="40.0077688" lon="-7.20788435">
        <ele>333.0</ele>
        <time>2010-01-01T01:07:03Z</time>
      </trkpt>
      <trkpt lat="40.0077988" lon="-7.207562">
        <ele>334.0</ele>
        <time>2010-01-01T01:07:13Z</time>
      </trkpt>
      <trkpt lat="40.0079059" lon="-7.20702264">
        <ele>338.0</ele>
        <time>2010-01-01T01:07:30Z</time>
      </trkpt>
      <trkpt lat="40.0080012" lon="-7.20675997">
        <ele>342.0</ele>
        <time>2010-01-01T01:07:39Z</time>
      </trkpt>
      <trkpt lat="40.0082182" lon="-7.20619416">
        <ele>345.0</ele>
        <time>2010-01-01T01:07:58Z</time>
      </trkpt>
      <trkpt lat="40.0082975" lon="-7.20604497">
        <ele>346.0</ele>
        <time>2010-01-01T01:08:03Z</time>
      </trkpt>
      <trkpt lat="40.0082491" lon="-7.20588893">
        <ele>347.0</ele>
        <time>2010-01-01T01:08:09Z</time>
      </trkpt>
      <trkpt lat="40.0083456" lon="-7.20530698">
        <ele>351.0</ele>
        <time>2010-01-01T01:08:27Z</time>
      </trkpt>
      <trkpt lat="40.008539" lon="-7.20483505">
        <ele>355.0</ele>
        <time>2010-01-01T01:08:43Z</time>
      </trkpt>
      <trkpt lat="40.0081901" lon="-7.20314675">
        <ele>358.0</ele>
        <time>2010-01-01T01:09:37Z</time>
      </trkpt>
      <trkpt lat="40.0081846" lon="-7.20273335">
        <ele>361.0</ele>
        <time>2010-01-01T01:09:50Z</time>
      </trkpt>
      <trkpt lat="40.0082475" lon="-7.20254026">
        <ele>363.0</ele>
        <time>2010-01-01T01:09:56Z</time>
      </trkpt>
      <trkpt lat="40.008141" lon="-7.2020185">
        <ele>365.0</ele>
        <time>2010-01-01T01:10:13Z</time>
      </trkpt>
      <trkpt lat="40.007978" lon="-7.20147092">
        <ele>368.0</ele>
        <time>2010-01-01T01:10:31Z</time>
      </trkpt>
      <trkpt lat="40.0078857" lon="-7.20117921">
        <ele>371.0</ele>
        <time>2010-01-01T01:10:40Z</time>
      </trkpt>
      <trkpt lat="40.0078534" lon="-7.20091323">
        <ele>372.0</ele>
        <time>2010-01-01T01:10:49Z</time>
      </trkpt>
      <trkpt lat="40.0077634" lon="-7.20047684">
        <ele>372.0</ele>
        <time>2010-01-01T01:11:02Z</time>
      </trkpt>
      <trkpt lat="40.007522" lon="-7.19984413">
        <ele>372.0</ele>
        <time>2010-01-01T01:11:24Z</time>
      </trkpt>
      <trkpt lat="40.007045" lon="-7.19874809">
        <ele>375.0</ele>
        <time>2010-01-01T01:12:03Z</time>
      </trkpt>
      <trkpt lat="40.0070064" lon="-7.19860014">
        <ele>374.0</ele>
        <time>2010-01-01T01:12:08Z</time>
      </trkpt>
      <trkpt lat="40.0070089" lon="-7.1984323">
        <ele>374.0</ele>
        <time>2010-01-01T01:12:13Z</time>
      </trkpt>
      <trkpt lat="40.006934" lon="-7.19830428">
        <ele>374.0</ele>
        <time>2010-01-01T01:12:18Z</time>
      </trkpt>
      <trkpt lat="40.006493" lon="-7.19757125">
        <ele>383.0</ele>
        <time>2010-01-01T01:12:46Z</time>
      </trkpt>
      <trkpt lat="40.0060872" lon="-7.1967961">
        <ele>386.0</ele>
        <time>2010-01-01T01:13:15Z</time>
      </trkpt>
      <trkpt lat="40.0058573" lon="-7.1962985">
        <ele>384.0</ele>
        <time>2010-01-01T01:13:33Z</time>
      </trkpt>
      <trkpt lat="40.0059297" lon="-7.19554626">
        <ele>383.0</ele>
        <time>2010-01-01T01:13:56Z</time>
      </trkpt>
      <trkpt lat="40.00604" lon="-7.19547991">
        <ele>383.0</ele>
        <time>2010-01-01T01:14:01Z</time>
      </trkpt>
      <trkpt lat="40.0063462" lon="-7.19546462">
        <ele>384.0</ele>
        <time>2010-01-01T01:14:13Z</time>
      </trkpt>
      <trkpt lat="40.0069646" lon="-7.19517941">
        <ele>382.0</ele>
        <time>2010-01-01T01:14:39Z</time>
      </trkpt>
      <trkpt lat="40.0077074" lon="-7.1948897">
        <ele>379.0</ele>
        <time>2010-01-01T01:15:10Z</time>
      </trkpt>
      <trkpt lat="40.0080233" lon="-7.19494131">
        <ele>380.0</ele>
        <time>2010-01-01T01:15:23Z</time>
      </trkpt>
      <trkpt lat="40.0083785" lon="-7.19497287">
        <ele>381.0</ele>
        <time>2010-01-01T01:15:37Z</time>
      </trkpt>
      <trkpt lat="40.0087139" lon="-7.1949073">
        <ele>382.0</ele>
        <time>2010-01-01T01:15:51Z</time>
      </trkpt>
      <trkpt lat="40.009142" lon="-7.19457835">
        <ele>381.0</ele>
        <time>2010-01-01T01:16:11Z</time>
      </trkpt>
      <trkpt lat="40.0099609" lon="-7.19416387">
        <ele>385.0</ele>
        <time>2010-01-01T01:16:46Z</time>
      </trkpt>
      <trkpt lat="40.0103358" lon="-7.19401645">
        <ele>387.0</ele>
        <time>2010-01-01T01:17:02Z</time>
      </trkpt>
      <trkpt lat="40.0105087" lon="-7.19385513">
        <ele>389.0</ele>
        <time>2010-01-01T01:17:10Z</time>
      </trkpt>
      <trkpt lat="40.0106903" lon="-7.19350806">
        <ele>391.0</ele>
        <time>2010-01-01T01:17:23Z</time>
      </trkpt>
      <trkpt lat="40.0108599" lon="-7.19290565">
        <ele>394.0</ele>
        <time>2010-01-01T01:17:43Z</time>
      </trkpt>
      <trkpt lat="40.0111688" lon="-7.19192659">
        <ele>392.0</ele>
        <time>2010-01-01T01:18:15Z</time>
      </trkpt>
      <trkpt lat="40.011346" lon="-7.1911378">
        <ele>389.0</ele>
        <time>2010-01-01T01:18:40Z</time>
      </trkpt>
      <trkpt lat="40.0113105" lon="-7.1907239">
        <ele>387.0</ele>
        <time>2010-01-01T01:18:53Z</time>
      </trkpt>
      <trkpt lat="40.0114149" lon="-7.19027903">
        <ele>386.0</ele>
        <time>2010-01-01T01:19:08Z</time>
      </trkpt>
      <trkpt lat="40.0116697" lon="-7.18958039">
        <ele>383.0</ele>
        <time>2010-01-01T01:19:31Z</time>
      </trkpt>
      <trkpt lat="40.0118307" lon="-7.18907105">
        <ele>383.0</ele>
        <time>2010-01-01T01:19:48Z</time>
      </trkpt>
      <trkpt lat="40.0119125" lon="-7.18855199">
        <ele>383.0</ele>
        <time>2010-01-01T01:20:04Z</time>
      </trkpt>
      <trkpt lat="40.0120632" lon="-7.18797054">
        <ele>384.0</ele>
        <time>2010-01-01T01:20:23Z</time>
      </trkpt>
      <trkpt lat="40.0121477" lon="-7.18743897">
        <ele>384.0</ele>
        <time>2010-01-01T01:20:40Z</time>
      </trkpt>
      <trkpt lat="40.0123662" lon="-7.186888">
        <ele>384.0</ele>
        <time>2010-01-01T01:20:59Z</time>
      </trkpt>
      <trkpt lat="40.0123945" lon="-7.18647624">
        <ele>385.0</ele>
        <time>2010-01-01T01:21:12Z</time>
      </trkpt>
      <trkpt lat="40.0125943" lon="-7.18628291">
        <ele>383.0</ele>
        <time>2010-01-01T01:21:22Z</time>
      </trkpt>
      <trkpt lat="40.0130769" lon="-7.18628935">
        <ele>376.0</ele>
        <time>2010-01-01T01:21:41Z</time>
      </trkpt>
      <trkpt lat="40.0135314" lon="-7.18607308">
        <ele>372.0</ele>
        <time>2010-01-01T01:22:00Z</time>
      </trkpt>
      <trkpt lat="40.0137033" lon="-7.18596014">
        <ele>372.0</ele>
        <time>2010-01-01T01:22:08Z</time>
      </trkpt>
      <trkpt lat="40.0135757" lon="-7.18570333">
        <ele>374.0</ele>
        <time>2010-01-01T01:22:17Z</time>
      </trkpt>
      <trkpt lat="40.0132993" lon="-7.1855653">
        <ele>377.0</ele>
        <time>2010-01-01T01:22:29Z</time>
      </trkpt>
      <trkpt lat="40.0125766" lon="-7.18525989">
        <ele>381.0</ele>
        <time>2010-01-01T01:23:00Z</time>
      </trkpt>
      <trkpt lat="40.0120973" lon="-7.18527258">
        <ele>380.0</ele>
        <time>2010-01-01T01:23:19Z</time>
      </trkpt>
      <trkpt lat="40.0116966" lon="-7.18517836">
        <ele>383.0</ele>
        <time>2010-01-01T01:23:35Z</time>
      </trkpt>
      <trkpt lat="40.0115652" lon="-7.18516631">
        <ele>384.0</ele>
        <time>2010-01-01T01:23:40Z</time>
      </trkpt>
      <trkpt lat="40.0111676" lon="-7.18532921">
        <ele>385.0</ele>
        <time>2010-01-01T01:23:57Z</time>
      </trkpt>
      <trkpt lat="40.0107366" lon="-7.18527874">
        <ele>386.0</ele>
        <time>2010-01-01T01:24:14Z</time>
      </trkpt>
      <trkpt lat="40.0103968" lon="-7.18510593">
        <ele>387.0</ele>
        <time>2010-01-01T01:24:29Z</time>
      </trkpt>
      <trkpt lat="40.0098886" lon="-7.18487433">
        <ele>388.0</ele>
        <time>2010-01-01T01:24:50Z</time>
      </trkpt>
      <trkpt lat="40.0095688" lon="-7.18460435">
        <ele>387.0</ele>
        <time>2010-01-01T01:25:06Z</time>
      </trkpt>
      <trkpt lat="40.0093544" lon="-7.18399867">
        <ele>389.0</ele>
        <time>2010-01-01T01:25:26Z</time>
      </trkpt>
      <trkpt lat="40.0090423" lon="-7.18373542">
        <ele>389.0</ele>
        <time>2010-01-01T01:25:41Z</time>
      </trkpt>
      <trkpt lat="40.008977" lon="-7.18352831">
        <ele>390.0</ele>
        <time>2010-01-01T01:25:48Z</time>
      </trkpt>
      <trkpt lat="40.0090805" lon="-7.1832917">
        <ele>391.0</ele>
        <time>2010-01-01T01:25:56Z</time>
      </trkpt>
      <trkpt lat="40.0091244" lon="-7.18304129">
        <ele>392.0</ele>
        <time>2010-01-01T01:26:04Z</time>
      </trkpt>
      <trkpt lat="40.0089491" lon="-7.18277765">
        <ele>391.0</ele>
        <time>2010-01-01T01:26:15Z</time>
      </trkpt>
      <trkpt lat="40.0088162" lon="-7.18259865">
        <ele>390.0</ele>
        <time>2010-01-01T01:26:22Z</time>
      </trkpt>
      <trkpt lat="40.0086251" lon="-7.18227582">
        <ele>389.0</ele>
        <time>2010-01-01T01:26:35Z</time>
      </trkpt>
      <trkpt lat="40.0085502" lon="-7.18166374">
        <ele>386.0</ele>
        <time>2010-01-01T01:26:54Z</time>
      </trkpt>
      <trkpt lat="40.008514" lon="-7.18149642">
        <ele>385.0</ele>
        <time>2010-01-01T01:26:59Z</time>
      </trkpt>
      <trkpt lat="40.0083071" lon="-7.18101774">
        <ele>383.0</ele>
        <time>2010-01-01T01:27:16Z</time>
      </trkpt>
      <trkpt lat="40.0080467" lon="-7.18039409">
        <ele>379.0</ele>
        <time>2010-01-01T01:27:38Z</time>
      </trkpt>
      <trkpt lat="40.0076406" lon="-7.17987275">
        <ele>376.0</ele>
        <time>2010-01-01T01:28:01Z</time>
      </trkpt>
      <trkpt lat="40.0074421" lon="-7.17974277">
        <ele>374.0</ele>
        <time>2010-01-01T01:28:10Z</time>
      </trkpt>
      <trkpt lat="40.0070442" lon="-7.17935148">
        <ele>372.0</ele>
        <time>2010-01-01T01:28:30Z</time>
      </trkpt>
      <trkpt lat="40.0063826" lon="-7.17861501">
        <ele>369.0</ele>
        <time>2010-01-01T01:29:04Z</time>
      </trkpt>
      <trkpt lat="40.0061962" lon="-7.17851452">
        <ele>368.0</ele>
        <time>2010-01-01T01:29:12Z</time>
      </trkpt>
      <trkpt lat="40.005976" lon="-7.17839382">
        <ele>368.0</ele>
        <time>2010-01-01T01:29:22Z</time>
      </trkpt>
      <trkpt lat="40.0057945" lon="-7.17837514">
        <ele>368.0</ele>
        <time>2010-01-01T01:29:29Z</time>
      </trkpt>
      <trkpt lat="40.0056676" lon="-7.17833799">
        <ele>368.0</ele>
        <time>2010-01-01T01:29:34Z</time>
      </trkpt>
      <trkpt lat="40.0055565" lon="-7.17787612">
        <ele>367.0</ele>
        <time>2010-01-01T01:29:49Z</time>
      </trkpt>
      <trkpt lat="40.0051979" lon="-7.17713162">
        <ele>359.0</ele>
        <time>2010-01-01T01:30:16Z</time>
      </trkpt>
      <trkpt lat="40.005074" lon="-7.17684086">
        <ele>357.0</ele>
        <time>2010-01-01T01:30:27Z</time>
      </trkpt>
      <trkpt lat="40.0047419" lon="-7.17659486">
        <ele>353.0</ele>
        <time>2010-01-01T01:30:42Z</time>
      </trkpt>
      <trkpt lat="40.0045408" lon="-7.17623791">
        <ele>348.0</ele>
        <time>2010-01-01T01:30:55Z</time>
      </trkpt>
      <trkpt lat="40.0043051" lon="-7.17582122">
        <ele>344.0</ele>
        <time>2010-01-01T01:31:11Z</time>
      </trkpt>
      <trkpt lat="40.0040043" lon="-7.17523421">
        <ele>341.0</ele>
        <time>2010-01-01T01:31:33Z</time>
      </trkpt>
      <trkpt lat="40.003762" lon="-7.17480356">
        <ele>338.0</ele>
        <time>2010-01-01T01:31:49Z</time>
      </trkpt>
      <trkpt lat="40.0035874" lon="-7.17457472">
        <ele>335.0</ele>
        <time>2010-01-01T01:31:59Z</time>
      </trkpt>
      <trkpt lat="40.0032637" lon="-7.17411188">
        <ele>331.0</ele>
        <time>2010-01-01T01:32:18Z</time>
      </trkpt>
      <trkpt lat="40.0031534" lon="-7.17382592">
        <ele>330.0</ele>
        <time>2010-01-01T01:32:28Z</time>
      </trkpt>
      <trkpt lat="40.0030963" lon="-7.1737294">
        <ele>330.0</ele>
        <time>2010-01-01T01:32:32Z</time>
      </trkpt>
      <trkpt lat="40.0028838" lon="-7.17359935">
        <ele>330.0</ele>
        <time>2010-01-01T01:32:41Z</time>
      </trkpt>
      <trkpt lat="40.002621" lon="-7.17340192">
        <ele>328.0</ele>
        <time>2010-01-01T01:32:54Z</time>
      </trkpt>
      <trkpt lat="40.0022231" lon="-7.1730806">
        <ele>327.0</ele>
        <time>2010-01-01T01:33:12Z</time>
      </trkpt>
      <trkpt lat="40.0018513" lon="-7.17265279">
        <ele>328.0</ele>
        <time>2010-01-01T01:33:32Z</time>
      </trkpt>
      <trkpt lat="40.0016601" lon="-7.17266389">
        <ele>327.0</ele>
        <time>2010-01-01T01:33:40Z</time>
      </trkpt>
      <trkpt lat="40.0015202" lon="-7.17250253">
        <ele>328.0</ele>
        <time>2010-01-01T01:33:47Z</time>
      </trkpt>
      <trkpt lat="40.0014207" lon="-7.17227439">
        <ele>329.0</ele>
        <time>2010-01-01T01:33:55Z</time>
      </trkpt>
      <trkpt lat="40.0013557" lon="-7.17208245">
        <ele>329.0</ele>
        <time>2010-01-01T01:34:02Z</time>
      </trkpt>
      <trkpt lat="40.001308" lon="-7.17168746">
        <ele>325.0</ele>
        <time>2010-01-01T01:34:14Z</time>
      </trkpt>
      <trkpt lat="40.0010491" lon="-7.17102952">
        <ele>318.0</ele>
        <time>2010-01-01T01:34:37Z</time>
      </trkpt>
      <trkpt lat="40.0009217" lon="-7.17087108">
        <ele>316.0</ele>
        <time>2010-01-01T01:34:44Z</time>
      </trkpt>
      <trkpt lat="40.0005567" lon="-7.17039865">
        <ele>312.0</ele>
        <time>2010-01-01T01:35:04Z</time>
      </trkpt>
      <trkpt lat="40.0004835" lon="-7.17029078">
        <ele>311.0</ele>
        <time>2010-01-01T01:35:09Z</time>
      </trkpt>
      <trkpt lat="40.0004614" lon="-7.17001441">
        <ele>310.0</ele>
        <time>2010-01-01T01:35:17Z</time>
      </trkpt>
      <trkpt lat="40.0003891" lon="-7.16973324">
        <ele>309.0</ele>
        <time>2010-01-01T01:35:26Z</time>
      </trkpt>
      <trkpt lat="40.0000746" lon="-7.16903842">
        <ele>304.0</ele>
        <time>2010-01-01T01:35:51Z</time>
      </trkpt>
      <trkpt lat="40.0000401" lon="-7.16895242">
        <ele>303.0</ele>
        <time>2010-01-01T01:35:54Z</time>
      </trkpt>
      <trkpt lat="40.0000479" lon="-7.16853361">
        <ele>301.0</ele>
        <time>2010-01-01T01:36:07Z</time>
      </trkpt>
      <trkpt lat="40.0000435" lon="-7.16775899">
        <ele>298.0</ele>
        <time>2010-01-01T01:36:31Z</time>
      </trkpt>
      <trkpt lat="39.9999336" lon="-7.16726754">
        <ele>292.0</ele>
        <time>2010-01-01T01:36:46Z</time>
      </trkpt>
      <trkpt lat="39.999639" lon="-7.16666616">
        <ele>280.0</ele>
        <time>2010-01-01T01:37:08Z</time>
      </trkpt>
      <trkpt lat="39.9992214" lon="-7.16648681">
        <ele>276.0</ele>
        <time>2010-01-01T01:37:26Z</time>
      </trkpt>
      <trkpt lat="39.9989774" lon="-7.16644915">
        <ele>273.0</ele>
        <time>2010-01-01T01:37:36Z</time>
      </trkpt>
      <trkpt lat="39.9987811" lon="-7.1663515">
        <ele>270.0</ele>
        <time>2010-01-01T01:37:44Z</time>
      </trkpt>
      <trkpt lat="39.9987409" lon="-7.16603534">
        <ele>267.0</ele>
        <time>2010-01-01T01:37:54Z</time>
      </trkpt>
      <trkpt lat="39.9989318" lon="-7.16560155">
        <ele>264.0</ele>
        <time>2010-01-01T01:38:09Z</time>
      </trkpt>
      <trkpt lat="39.9989948" lon="-7.16530575">
        <ele>262.0</ele>
        <time>2010-01-01T01:38:19Z</time>
      </trkpt>
      <trkpt lat="39.9992106" lon="-7.16446614">
        <ele>264.0</ele>
        <time>2010-01-01T01:38:46Z</time>
      </trkpt>
      <trkpt lat="39.9993582" lon="-7.16398143">
        <ele>267.0</ele>
        <time>2010-01-01T01:39:02Z</time>
      </trkpt>
      <trkpt lat="39.9996493" lon="-7.16293556">
        <ele>271.0</ele>
        <time>2010-01-01T01:39:36Z</time>
      </trkpt>
      <trkpt lat="39.9995893" lon="-7.16218423">
        <ele>271.0</ele>
        <time>2010-01-01T01:39:59Z</time>
      </trkpt>
      <trkpt lat="39.9997333" lon="-7.16199277">
        <ele>269.0</ele>
        <time>2010-01-01T01:40:07Z</time>
      </trkpt>
      <trkpt lat="39.9999304" lon="-7.16179923">
        <ele>270.0</ele>
        <time>2010-01-01T01:40:17Z</time>
      </trkpt>
      <trkpt lat="39.9999948" lon="-7.16161117">
        <ele>271.0</ele>
        <time>2010-01-01T01:40:23Z</time>
      </trkpt>
      <trkpt lat="40.0000419" lon="-7.16131837">
        <ele>272.0</ele>
        <time>2010-01-01T01:40:33Z</time>
      </trkpt>
      <trkpt lat="39.9999944" lon="-7.16077616">
        <ele>272.0</ele>
        <time>2010-01-01T01:40:49Z</time>
      </trkpt>
      <trkpt lat="39.9998671" lon="-7.16049424">
        <ele>273.0</ele>
        <time>2010-01-01T01:40:59Z</time>
      </trkpt>
      <trkpt lat="39.9997601" lon="-7.16018827">
        <ele>276.0</ele>
        <time>2010-01-01T01:41:10Z</time>
      </trkpt>
      <trkpt lat="39.9998338" lon="-7.15987119">
        <ele>278.0</ele>
        <time>2010-01-01T01:41:20Z</time>
      </trkpt>
      <trkpt lat="39.9998453" lon="-7.15966359">
        <ele>278.0</ele>
        <time>2010-01-01T01:41:26Z</time>
      </trkpt>
      <trkpt lat="39.9998475" lon="-7.15931835">
        <ele>278.0</ele>
        <time>2010-01-01T01:41:37Z</time>
      </trkpt>
      <trkpt lat="39.9996624" lon="-7.1588852">
        <ele>279.0</ele>
        <time>2010-01-01T01:41:52Z</time>
      </trkpt>
      <trkpt lat="39.9995214" lon="-7.15857094">
        <ele>278.0</ele>
        <time>2010-01-01T01:42:03Z</time>
      </trkpt>
      <trkpt lat="39.9992406" lon="-7.15778398">
        <ele>274.0</ele>
        <time>2010-01-01T01:42:30Z</time>
      </trkpt>
      <trkpt lat="39.99892" lon="-7.15702633">
        <ele>273.0</ele>
        <time>2010-01-01T01:42:56Z</time>
      </trkpt>
      <trkpt lat="39.9988438" lon="-7.15680636">
        <ele>272.0</ele>
        <time>2010-01-01T01:43:04Z</time>
      </trkpt>
      <trkpt lat="39.9986767" lon="-7.15580803">
        <ele>269.0</ele>
        <time>2010-01-01T01:43:35Z</time>
      </trkpt>
      <trkpt lat="39.9986425" lon="-7.1554188">
        <ele>270.0</ele>
        <time>2010-01-01T01:43:47Z</time>
      </trkpt>
      <trkpt lat="39.9983773" lon="-7.1546164">
        <ele>271.0</ele>
        <time>2010-01-01T01:44:14Z</time>
      </trkpt>
      <trkpt lat="39.998215" lon="-7.15405437">
        <ele>269.0</ele>
        <time>2010-01-01T01:44:32Z</time>
      </trkpt>
      <trkpt lat="39.9978001" lon="-7.15216104">
        <ele>270.0</ele>
        <time>2010-01-01T01:45:33Z</time>
      </trkpt>
      <trkpt lat="39.9975965" lon="-7.15113824">
        <ele>271.0</ele>
        <time>2010-01-01T01:46:05Z</time>
      </trkpt>
      <trkpt lat="39.9981631" lon="-7.15044561">
        <ele>272.0</ele>
        <time>2010-01-01T01:46:36Z</time>
      </trkpt>
      <trkpt lat="39.9986949" lon="-7.15065687">
        <ele>272.0</ele>
        <time>2010-01-01T01:46:59Z</time>
      </trkpt>
      <trkpt lat="39.9987852" lon="-7.15048878">
        <ele>273.0</ele>
        <time>2010-01-01T01:47:05Z</time>
      </trkpt>
      <trkpt lat="39.9989091" lon="-7.14909014">
        <ele>278.0</ele>
        <time>2010-01-01T01:47:48Z</time>
      </trkpt>
      <trkpt lat="39.9989898" lon="-7.14808335">
        <ele>280.0</ele>
        <time>2010-01-01T01:48:19Z</time>
      </trkpt>
      <trkpt lat="39.9988634" lon="-7.14741947">
        <ele>279.0</ele>
        <time>2010-01-01T01:48:40Z</time>
      </trkpt>
      <trkpt lat="39.9986604" lon="-7.14622542">
        <ele>279.0</ele>
        <time>2010-01-01T01:49:18Z</time>
      </trkpt>
      <trkpt lat="39.9984392" lon="-7.145124">
        <ele>283.0</ele>
        <time>2010-01-01T01:49:52Z</time>
      </trkpt>
      <trkpt lat="39.9983603" lon="-7.1445404">
        <ele>283.0</ele>
        <time>2010-01-01T01:50:11Z</time>
      </trkpt>
      <trkpt lat="39.9977253" lon="-7.14437006">
        <ele>282.0</ele>
        <time>2010-01-01T01:50:37Z</time>
      </trkpt>
      <trkpt lat="39.9977194" lon="-7.14403569">
        <ele>281.0</ele>
        <time>2010-01-01T01:50:47Z</time>
      </trkpt>
      <trkpt lat="39.9975606" lon="-7.14368214">
        <ele>281.0</ele>
        <time>2010-01-01T00:00:00Z</time>
      </trkpt>
      <trkpt lat="39.9973385" lon="-7.14312339">
        <ele>281.0</ele>
        <time>2010-01-01T00:00:19Z</time>
      </trkpt>
      <trkpt lat="39.9970715" lon="-7.14288238">
        <ele>279.0</ele>
        <time>2010-01-01T00:00:32Z</time>
      </trkpt>
      <trkpt lat="39.9967647" lon="-7.14272185">
        <ele>277.0</ele>
        <time>2010-01-01T00:00:45Z</time>
      </trkpt>
      <trkpt lat="39.9960378" lon="-7.14270754">
        <ele>279.0</ele>
        <time>2010-01-01T00:01:14Z</time>
      </trkpt>
      <trkpt lat="39.9955976" lon="-7.14265745">
        <ele>277.0</ele>
        <time>2010-01-01T00:01:32Z</time>
      </trkpt>
      <trkpt lat="39.9954728" lon="-7.14239582">
        <ele>273.0</ele>
        <time>2010-01-01T00:01:41Z</time>
      </trkpt>
      <trkpt lat="39.9954959" lon="-7.14214887">
        <ele>272.0</ele>
        <time>2010-01-01T00:01:49Z</time>
      </trkpt>
      <trkpt lat="39.9954817" lon="-7.14162139">
        <ele>271.0</ele>
        <time>2010-01-01T00:02:05Z</time>
      </trkpt>
      <trkpt lat="39.9952796" lon="-7.14137904">
        <ele>272.0</ele>
        <time>2010-01-01T00:02:16Z</time>
      </trkpt>
      <trkpt lat="39.9954308" lon="-7.14051367">
        <ele>274.0</ele>
        <time>2010-01-01T00:02:43Z</time>
      </trkpt>
      <trkpt lat="39.9957175" lon="-7.14004563">
        <ele>278.0</ele>
        <time>2010-01-01T00:03:02Z</time>
      </trkpt>
      <trkpt lat="39.9961381" lon="-7.13973735">
        <ele>281.0</ele>
        <time>2010-01-01T00:03:21Z</time>
      </trkpt>
      <trkpt lat="39.9962604" lon="-7.13895555">
        <ele>279.0</ele>
        <time>2010-01-01T00:03:45Z</time>
      </trkpt>
      <trkpt lat="39.9964568" lon="-7.1384854">
        <ele>281.0</ele>
        <time>2010-01-01T00:04:02Z</time>
      </trkpt>
      <trkpt lat="39.9964584" lon="-7.13795931">
        <ele>280.0</ele>
        <time>2010-01-01T00:04:18Z</time>
      </trkpt>
      <trkpt lat="39.9966634" lon="-7.13751534">
        <ele>281.0</ele>
        <time>2010-01-01T00:04:34Z</time>
      </trkpt>
      <trkpt lat="39.9969424" lon="-7.13724697">
        <ele>283.0</ele>
        <time>2010-01-01T00:04:48Z</time>
      </trkpt>
      <trkpt lat="39.9970936" lon="-7.13668329">
        <ele>282.0</ele>
        <time>2010-01-01T00:05:06Z</time>
      </trkpt>
      <trkpt lat="39.9974317" lon="-7.13606027">
        <ele>286.0</ele>
        <time>2010-01-01T00:05:30Z</time>
      </trkpt>
      <trkpt lat="39.9976311" lon="-7.13579993">
        <ele>289.0</ele>
        <time>2010-01-01T00:05:41Z</time>
      </trkpt>
      <trkpt lat="39.997901" lon="-7.13516482">
        <ele>298.0</ele>
        <time>2010-01-01T00:06:03Z</time>
      </trkpt>
      <trkpt lat="39.9977994" lon="-7.13426674">
        <ele>300.0</ele>
        <time>2010-01-01T00:06:31Z</time>
      </trkpt>
      <trkpt lat="39.9978661" lon="-7.13386037">
        <ele>302.0</ele>
        <time>2010-01-01T00:06:44Z</time>
      </trkpt>
      <trkpt lat="39.9977877" lon="-7.1334426">
        <ele>302.0</ele>
        <time>2010-01-01T00:06:57Z</time>
      </trkpt>
      <trkpt lat="39.9980173" lon="-7.1321212">
        <ele>308.0</ele>
        <time>2010-01-01T00:07:38Z</time>
      </trkpt>
      <trkpt lat="39.9979949" lon="-7.13146356">
        <ele>312.0</ele>
        <time>2010-01-01T00:07:59Z</time>
      </trkpt>
      <trkpt lat="39.9979775" lon="-7.13090195">
        <ele>313.0</ele>
        <time>2010-01-01T00:08:16Z</time>
      </trkpt>
      <trkpt lat="39.998091" lon="-7.13048418">
        <ele>314.0</ele>
        <time>2010-01-01T00:08:29Z</time>
      </trkpt>
      <trkpt lat="39.998086" lon="-7.13031027">
        <ele>314.0</ele>
        <time>2010-01-01T00:08:35Z</time>
      </trkpt>
      <trkpt lat="39.9979754" lon="-7.12991064">
        <ele>316.0</ele>
        <time>2010-01-01T00:08:48Z</time>
      </trkpt>
      <trkpt lat="39.9979735" lon="-7.12960226">
        <ele>317.0</ele>
        <time>2010-01-01T00:08:57Z</time>
      </trkpt>
      <trkpt lat="39.998098" lon="-7.12905777">
        <ele>317.0</ele>
        <time>2010-01-01T00:09:15Z</time>
      </trkpt>
      <trkpt lat="39.9982984" lon="-7.12854433">
        <ele>319.0</ele>
        <time>2010-01-01T00:09:32Z</time>
      </trkpt>
      <trkpt lat="39.9987579" lon="-7.12745711">
        <ele>321.0</ele>
        <time>2010-01-01T00:10:10Z</time>
      </trkpt>
      <trkpt lat="39.9990721" lon="-7.12696988">
        <ele>325.0</ele>
        <time>2010-01-01T00:10:30Z</time>
      </trkpt>
      <trkpt lat="39.9991591" lon="-7.12655713">
        <ele>324.0</ele>
        <time>2010-01-01T00:10:43Z</time>
      </trkpt>
      <trkpt lat="39.9992067" lon="-7.12535673">
        <ele>326.0</ele>
        <time>2010-01-01T00:11:20Z</time>
      </trkpt>
      <trkpt lat="39.9993626" lon="-7.12477994">
        <ele>324.0</ele>
        <time>2010-01-01T00:11:39Z</time>
      </trkpt>
      <trkpt lat="39.999504" lon="-7.12450381">
        <ele>323.0</ele>
        <time>2010-01-01T00:11:49Z</time>
      </trkpt>
      <trkpt lat="39.9997356" lon="-7.12337301">
        <ele>319.0</ele>
        <time>2010-01-01T00:12:25Z</time>
      </trkpt>
      <trkpt lat="39.9995529" lon="-7.12272024">
        <ele>320.0</ele>
        <time>2010-01-01T00:12:46Z</time>
      </trkpt>
      <trkpt lat="39.9994739" lon="-7.12188138">
        <ele>316.0</ele>
        <time>2010-01-01T00:13:12Z</time>
      </trkpt>
      <trkpt lat="39.999518" lon="-7.1211974">
        <ele>314.0</ele>
        <time>2010-01-01T00:13:33Z</time>
      </trkpt>
      <trkpt lat="39.9994341" lon="-7.12075141">
        <ele>313.0</ele>
        <time>2010-01-01T00:13:47Z</time>
      </trkpt>
      <trkpt lat="39.9990926" lon="-7.11974633">
        <ele>309.0</ele>
        <time>2010-01-01T00:14:21Z</time>
      </trkpt>
      <trkpt lat="39.9990165" lon="-7.11902072">
        <ele>312.0</ele>
        <time>2010-01-01T00:14:43Z</time>
      </trkpt>
      <trkpt lat="39.9992615" lon="-7.11873481">
        <ele>310.0</ele>
        <time>2010-01-01T00:14:56Z</time>
      </trkpt>
      <trkpt lat="39.9991516" lon="-7.11720958">
        <ele>319.0</ele>
        <time>2010-01-01T00:15:43Z</time>
      </trkpt>
      <trkpt lat="39.9990745" lon="-7.11581318">
        <ele>328.0</ele>
        <time>2010-01-01T00:16:26Z</time>
      </trkpt>
      <trkpt lat="39.9990168" lon="-7.11548777">
        <ele>332.0</ele>
        <time>2010-01-01T00:16:37Z</time>
      </trkpt>
      <trkpt lat="39.9987656" lon="-7.1147993">
        <ele>336.0</ele>
        <time>2010-01-01T00:17:00Z</time>
      </trkpt>
      <trkpt lat="39.9985036" lon="-7.11416946">
        <ele>340.0</ele>
        <time>2010-01-01T00:17:22Z</time>
      </trkpt>
      <trkpt lat="39.9982802" lon="-7.1136054">
        <ele>340.0</ele>
        <time>2010-01-01T00:17:41Z</time>
      </trkpt>
      <trkpt lat="39.9982233" lon="-7.1132118">
        <ele>341.0</ele>
        <time>2010-01-01T00:17:54Z</time>
      </trkpt>
      <trkpt lat="39.9981917" lon="-7.11290688">
        <ele>341.0</ele>
        <time>2010-01-01T00:18:03Z</time>
      </trkpt>
      <trkpt lat="39.9984043" lon="-7.11196093">
        <ele>345.0</ele>
        <time>2010-01-01T00:18:33Z</time>
      </trkpt>
      <trkpt lat="39.998315" lon="-7.11160834">
        <ele>346.0</ele>
        <time>2010-01-01T00:18:45Z</time>
      </trkpt>
      <trkpt lat="39.9981938" lon="-7.11134618">
        <ele>346.0</ele>
        <time>2010-01-01T00:18:54Z</time>
      </trkpt>
      <trkpt lat="39.9981124" lon="-7.11118737">
        <ele>346.0</ele>
        <time>2010-01-01T00:19:00Z</time>
      </trkpt>
      <trkpt lat="39.9975635" lon="-7.11031263">
        <ele>347.0</ele>
        <time>2010-01-01T00:19:35Z</time>
      </trkpt>
      <trkpt lat="39.99744" lon="-7.10931773">
        <ele>350.0</ele>
        <time>2010-01-01T00:20:06Z</time>
      </trkpt>
      <trkpt lat="39.9973533" lon="-7.10865595">
        <ele>352.0</ele>
        <time>2010-01-01T00:20:26Z</time>
      </trkpt>
      <trkpt lat="39.9978733" lon="-7.10847392">
        <ele>357.0</ele>
        <time>2010-01-01T00:20:48Z</time>
      </trkpt>
      <trkpt lat="39.998043" lon="-7.10826906">
        <ele>360.0</ele>
        <time>2010-01-01T00:20:57Z</time>
      </trkpt>
      <trkpt lat="39.9982679" lon="-7.10806143">
        <ele>363.0</ele>
        <time>2010-01-01T00:21:08Z</time>
      </trkpt>
      <trkpt lat="39.9980104" lon="-7.10715485">
        <ele>363.0</ele>
        <time>2010-01-01T00:21:38Z</time>
      </trkpt>
      <trkpt lat="39.9983025" lon="-7.1064881">
        <ele>368.0</ele>
        <time>2010-01-01T00:22:01Z</time>
      </trkpt>
      <trkpt lat="39.9985109" lon="-7.10622536">
        <ele>371.0</ele>
        <time>2010-01-01T00:22:13Z</time>
      </trkpt>
      <trkpt lat="39.9984496" lon="-7.10603637">
        <ele>371.0</ele>
        <time>2010-01-01T00:22:19Z</time>
      </trkpt>
      <trkpt lat="39.9981796" lon="-7.10604883">
        <ele>367.0</ele>
        <time>2010-01-01T00:22:30Z</time>
      </trkpt>
      <trkpt lat="39.997705" lon="-7.10305965">
        <ele>373.0</ele>
        <time>2010-01-01T00:24:04Z</time>
      </trkpt>
      <trkpt lat="39.9975881" lon="-7.10250594">
        <ele>368.0</ele>
        <time>2010-01-01T00:24:21Z</time>
      </trkpt>
      <trkpt lat="39.9977028" lon="-7.10195141">
        <ele>368.0</ele>
        <time>2010-01-01T00:24:39Z</time>
      </trkpt>
      <trkpt lat="39.9976211" lon="-7.10105029">
        <ele>361.0</ele>
        <time>2010-01-01T00:25:07Z</time>
      </trkpt>
      <trkpt lat="39.9978828" lon="-7.1002766">
        <ele>355.0</ele>
        <time>2010-01-01T00:25:33Z</time>
      </trkpt>
      <trkpt lat="39.9982491" lon="-7.09983453">
        <ele>351.0</ele>
        <time>2010-01-01T00:25:53Z</time>
      </trkpt>
      <trkpt lat="39.9987843" lon="-7.09877516">
        <ele>346.0</ele>
        <time>2010-01-01T00:26:31Z</time>
      </trkpt>
      <trkpt lat="39.9988601" lon="-7.09709103">
        <ele>333.0</ele>
        <time>2010-01-01T00:27:23Z</time>
      </trkpt>
      <trkpt lat="39.9989779" lon="-7.09655051">
        <ele>333.0</ele>
        <time>2010-01-01T00:27:40Z</time>
      </trkpt>
      <trkpt lat="39.999172" lon="-7.09534362">
        <ele>334.0</ele>
        <time>2010-01-01T00:28:18Z</time>
      </trkpt>
      <trkpt lat="39.9991147" lon="-7.09469728">
        <ele>332.0</ele>
        <time>2010-01-01T00:28:38Z</time>
      </trkpt>
      <trkpt lat="39.9992478" lon="-7.09419804">
        <ele>331.0</ele>
        <time>2010-01-01T00:28:54Z</time>
      </trkpt>
      <trkpt lat="39.9991953" lon="-7.0937386">
        <ele>334.0</ele>
        <time>2010-01-01T00:29:09Z</time>
      </trkpt>
      <trkpt lat="39.9995441" lon="-7.09294383">
        <ele>334.0</ele>
        <time>2010-01-01T00:29:37Z</time>
      </trkpt>
      <trkpt lat="40.000184" lon="-7.09350416">
        <ele>335.0</ele>
        <time>2010-01-01T00:30:08Z</time>
      </trkpt>
      <trkpt lat="40.0008385" lon="-7.09297951">
        <ele>335.0</ele>
        <time>2010-01-01T00:30:38Z</time>
      </trkpt>
      <trkpt lat="40.0021054" lon="-7.09292145">
        <ele>341.0</ele>
        <time>2010-01-01T00:31:29Z</time>
      </trkpt>
      <trkpt lat="40.0035732" lon="-7.09322905">
        <ele>350.0</ele>
        <time>2010-01-01T00:32:29Z</time>
      </trkpt>
      <trkpt lat="40.0045635" lon="-7.09312144">
        <ele>354.0</ele>
        <time>2010-01-01T00:33:08Z</time>
      </trkpt>
      <trkpt lat="40.0048934" lon="-7.09338471">
        <ele>358.0</ele>
        <time>2010-01-01T00:33:24Z</time>
      </trkpt>
      <trkpt lat="40.0050696" lon="-7.09389953">
        <ele>359.0</ele>
        <time>2010-01-01T00:33:41Z</time>
      </trkpt>
      <trkpt lat="40.0055701" lon="-7.09450822">
        <ele>365.0</ele>
        <time>2010-01-01T00:34:08Z</time>
      </trkpt>
      <trkpt lat="40.0056162" lon="-7.09518238">
        <ele>366.0</ele>
        <time>2010-01-01T00:34:29Z</time>
      </trkpt>
      <trkpt lat="40.0061461" lon="-7.09544945">
        <ele>370.0</ele>
        <time>2010-01-01T00:34:52Z</time>
      </trkpt>
      <trkpt lat="40.0063312" lon="-7.0956684">
        <ele>369.0</ele>
        <time>2010-01-01T00:35:02Z</time>
      </trkpt>
      <trkpt lat="40.0065505" lon="-7.09573363">
        <ele>370.0</ele>
        <time>2010-01-01T00:35:11Z</time>
      </trkpt>
      <trkpt lat="40.0073723" lon="-7.09609061">
        <ele>372.0</ele>
        <time>2010-01-01T00:35:46Z</time>
      </trkpt>
      <trkpt lat="40.0080007" lon="-7.09612698">
        <ele>377.0</ele>
        <time>2010-01-01T00:36:11Z</time>
      </trkpt>
      <trkpt lat="40.0082391" lon="-7.09606383">
        <ele>380.0</ele>
        <time>2010-01-01T00:36:21Z</time>
      </trkpt>
      <trkpt lat="40.0085367" lon="-7.09621329">
        <ele>382.0</ele>
        <time>2010-01-01T00:36:33Z</time>
      </trkpt>
      <trkpt lat="40.0088245" lon="-7.09614458">
        <ele>383.0</ele>
        <time>2010-01-01T00:36:45Z</time>
      </trkpt>
      <trkpt lat="40.0091744" lon="-7.09623245">
        <ele>382.0</ele>
        <time>2010-01-01T00:36:59Z</time>
      </trkpt>
      <trkpt lat="40.0094267" lon="-7.09634875">
        <ele>382.0</ele>
        <time>2010-01-01T00:37:10Z</time>
      </trkpt>
      <trkpt lat="40.0096328" lon="-7.0963015">
        <ele>380.0</ele>
        <time>2010-01-01T00:37:18Z</time>
      </trkpt>
      <trkpt lat="40.0098476" lon="-7.09622455">
        <ele>379.0</ele>
        <time>2010-01-01T00:37:27Z</time>
      </trkpt>
      <trkpt lat="40.0098986" lon="-7.09610605">
        <ele>378.0</ele>
        <time>2010-01-01T00:37:31Z</time>
      </trkpt>
      <trkpt lat="40.0100282" lon="-7.0960799">
        <ele>378.0</ele>
        <time>2010-01-01T00:37:37Z</time>
      </trkpt>
      <trkpt lat="40.0102763" lon="-7.09580935">
        <ele>378.0</ele>
        <time>2010-01-01T00:37:50Z</time>
      </trkpt>
      <trkpt lat="40.0108559" lon="-7.09566305">
        <ele>373.0</ele>
        <time>2010-01-01T00:38:13Z</time>
      </trkpt>
      <trkpt lat="40.0109275" lon="-7.09554883">
        <ele>372.0</ele>
        <time>2010-01-01T00:38:18Z</time>
      </trkpt>
      <trkpt lat="40.01134" lon="-7.0954288">
        <ele>366.0</ele>
        <time>2010-01-01T00:38:35Z</time>
      </trkpt>
      <trkpt lat="40.0115795" lon="-7.09531545">
        <ele>364.0</ele>
        <time>2010-01-01T00:38:45Z</time>
      </trkpt>
      <trkpt lat="40.011868" lon="-7.09510196">
        <ele>363.0</ele>
        <time>2010-01-01T00:38:58Z</time>
      </trkpt>
      <trkpt lat="40.0119901" lon="-7.09503308">
        <ele>362.0</ele>
        <time>2010-01-01T00:39:04Z</time>
      </trkpt>
      <trkpt lat="40.0121586" lon="-7.09506653">
        <ele>362.0</ele>
        <time>2010-01-01T00:39:10Z</time>
      </trkpt>
      <trkpt lat="40.0127357" lon="-7.09568627">
        <ele>367.0</ele>
        <time>2010-01-01T00:39:40Z</time>
      </trkpt>
      <trkpt lat="40.0128072" lon="-7.09604194">
        <ele>368.0</ele>
        <time>2010-01-01T00:39:52Z</time>
      </trkpt>
      <trkpt lat="40.0125579" lon="-7.09637958">
        <ele>364.0</ele>
        <time>2010-01-01T00:40:06Z</time>
      </trkpt>
      <trkpt lat="40.0124258" lon="-7.09673615">
        <ele>362.0</ele>
        <time>2010-01-01T00:40:18Z</time>
      </trkpt>
      <trkpt lat="40.0123535" lon="-7.09708712">
        <ele>363.0</ele>
        <time>2010-01-01T00:40:29Z</time>
      </trkpt>
      <trkpt lat="40.0122119" lon="-7.09746379">
        <ele>363.0</ele>
        <time>2010-01-01T00:40:42Z</time>
      </trkpt>
      <trkpt lat="40.0123614" lon="-7.09773249">
        <ele>367.0</ele>
        <time>2010-01-01T00:40:52Z</time>
      </trkpt>
      <trkpt lat="40.0121319" lon="-7.09877262">
        <ele>372.0</ele>
        <time>2010-01-01T00:41:25Z</time>
      </trkpt>
      <trkpt lat="40.0122332" lon="-7.09900554">
        <ele>376.0</ele>
        <time>2010-01-01T00:41:34Z</time>
      </trkpt>
      <trkpt lat="40.0122185" lon="-7.09943879">
        <ele>379.0</ele>
        <time>2010-01-01T00:41:47Z</time>
      </trkpt>
      <trkpt lat="40.0122972" lon="-7.09966316">
        <ele>383.0</ele>
        <time>2010-01-01T00:41:55Z</time>
      </trkpt>
      <trkpt lat="40.0123025" lon="-7.10056333">
        <ele>386.0</ele>
        <time>2010-01-01T00:42:22Z</time>
      </trkpt>
      <trkpt lat="40.0124364" lon="-7.10097741">
        <ele>390.0</ele>
        <time>2010-01-01T00:42:36Z</time>
      </trkpt>
      <trkpt lat="40.0124607" lon="-7.10158384">
        <ele>392.0</ele>
        <time>2010-01-01T00:42:55Z</time>
      </trkpt>
      <trkpt lat="40.0124693" lon="-7.10177241">
        <ele>393.0</ele>
        <time>2010-01-01T00:43:00Z</time>
      </trkpt>
      <trkpt lat="40.0128063" lon="-7.10241002">
        <ele>398.0</ele>
        <time>2010-01-01T00:43:24Z</time>
      </trkpt>
      <trkpt lat="40.0129697" lon="-7.10258407">
        <ele>400.0</ele>
        <time>2010-01-01T00:43:32Z</time>
      </trkpt>
      <trkpt lat="40.0131259" lon="-7.10260633">
        <ele>402.0</ele>
        <time>2010-01-01T00:43:39Z</time>
      </trkpt>
      <trkpt lat="40.0131637" lon="-7.10297553">
        <ele>400.0</ele>
        <time>2010-01-01T00:43:50Z</time>
      </trkpt>
      <trkpt lat="40.0135683" lon="-7.10331431">
        <ele>403.0</ele>
        <time>2010-01-01T00:44:09Z</time>
      </trkpt>
      <trkpt lat="40.0137667" lon="-7.10292544">
        <ele>406.0</ele>
        <time>2010-01-01T00:44:24Z</time>
      </trkpt>
      <trkpt lat="40.0141213" lon="-7.10283458">
        <ele>409.0</ele>
        <time>2010-01-01T00:44:38Z</time>
      </trkpt>
      <trkpt lat="40.0141394" lon="-7.10251845">
        <ele>411.0</ele>
        <time>2010-01-01T00:44:48Z</time>
      </trkpt>
      <trkpt lat="40.0145081" lon="-7.10207857">
        <ele>413.0</ele>
        <time>2010-01-01T00:45:08Z</time>
      </trkpt>
      <trkpt lat="40.0147089" lon="-7.10208916">
        <ele>413.0</ele>
        <time>2010-01-01T00:45:16Z</time>
      </trkpt>
      <trkpt lat="40.0149871" lon="-7.10168498">
        <ele>413.0</ele>
        <time>2010-01-01T00:45:33Z</time>
      </trkpt>
      <trkpt lat="40.0151855" lon="-7.10159814">
        <ele>413.0</ele>
        <time>2010-01-01T00:45:41Z</time>
      </trkpt>
      <trkpt lat="40.0153821" lon="-7.10125143">
        <ele>412.0</ele>
        <time>2010-01-01T00:45:54Z</time>
      </trkpt>
      <trkpt lat="40.0159114" lon="-7.10119517">
        <ele>414.0</ele>
        <time>2010-01-01T00:46:16Z</time>
      </trkpt>
      <trkpt lat="40.0162974" lon="-7.10081208">
        <ele>419.0</ele>
        <time>2010-01-01T00:46:35Z</time>
      </trkpt>
      <trkpt lat="40.0166352" lon="-7.1009128">
        <ele>426.0</ele>
        <time>2010-01-01T00:46:49Z</time>
      </trkpt>
      <trkpt lat="40.0168114" lon="-7.10108582">
        <ele>427.0</ele>
        <time>2010-01-01T00:46:58Z</time>
      </trkpt>
      <trkpt lat="40.0169472" lon="-7.10114832">
        <ele>428.0</ele>
        <time>2010-01-01T00:47:03Z</time>
      </trkpt>
      <trkpt lat="40.0172652" lon="-7.10095774">
        <ele>431.0</ele>
        <time>2010-01-01T00:47:17Z</time>
      </trkpt>
      <trkpt lat="40.0174342" lon="-7.10113113">
        <ele>431.0</ele>
        <time>2010-01-01T00:47:26Z</time>
      </trkpt>
      <trkpt lat="40.0178142" lon="-7.10106008">
        <ele>432.0</ele>
        <time>2010-01-01T00:47:41Z</time>
      </trkpt>
      <trkpt lat="40.0181422" lon="-7.10115426">
        <ele>433.0</ele>
        <time>2010-01-01T00:47:55Z</time>
      </trkpt>
      <trkpt lat="40.0185383" lon="-7.10147324">
        <ele>435.0</ele>
        <time>2010-01-01T00:48:13Z</time>
      </trkpt>
      <trkpt lat="40.0185627" lon="-7.10169189">
        <ele>436.0</ele>
        <time>2010-01-01T00:48:20Z</time>
      </trkpt>
      <trkpt lat="40.0191485" lon="-7.10172712">
        <ele>444.0</ele>
        <time>2010-01-01T00:48:44Z</time>
      </trkpt>
      <trkpt lat="40.0193887" lon="-7.10155206">
        <ele>444.0</ele>
        <time>2010-01-01T00:48:55Z</time>
      </trkpt>
      <trkpt lat="40.019615" lon="-7.10199025">
        <ele>448.0</ele>
        <time>2010-01-01T00:49:11Z</time>
      </trkpt>
      <trkpt lat="40.0200284" lon="-7.10208473">
        <ele>451.0</ele>
        <time>2010-01-01T00:49:28Z</time>
      </trkpt>
      <trkpt lat="40.0203652" lon="-7.1023951">
        <ele>455.0</ele>
        <time>2010-01-01T00:49:44Z</time>
      </trkpt>
      <trkpt lat="40.020635" lon="-7.1026057">
        <ele>457.0</ele>
        <time>2010-01-01T00:49:57Z</time>
      </trkpt>
      <trkpt lat="40.0211685" lon="-7.10265892">
        <ele>454.0</ele>
        <time>2010-01-01T00:50:18Z</time>
      </trkpt>
      <trkpt lat="40.0217525" lon="-7.10271657">
        <ele>452.0</ele>
        <time>2010-01-01T00:50:42Z</time>
      </trkpt>
      <trkpt lat="40.0220006" lon="-7.10277317">
        <ele>451.0</ele>
        <time>2010-01-01T00:50:52Z</time>
      </trkpt>
      <trkpt lat="40.0221613" lon="-7.10280346">
        <ele>450.0</ele>
        <time>2010-01-01T00:50:58Z</time>
      </trkpt>
      <trkpt lat="40.0223605" lon="-7.1033286">
        <ele>453.0</ele>
        <time>2010-01-01T00:51:16Z</time>
      </trkpt>
      <trkpt lat="40.0226225" lon="-7.10345628">
        <ele>454.0</ele>
        <time>2010-01-01T00:51:27Z</time>
      </trkpt>
      <trkpt lat="40.0231553" lon="-7.10341412">
        <ele>457.0</ele>
        <time>2010-01-01T00:51:49Z</time>
      </trkpt>
      <trkpt lat="40.0235493" lon="-7.10338041">
        <ele>459.0</ele>
        <time>2010-01-01T00:52:05Z</time>
      </trkpt>
      <trkpt lat="40.0237126" lon="-7.1033981">
        <ele>460.0</ele>
        <time>2010-01-01T00:52:11Z</time>
      </trkpt>
      <trkpt lat="40.0241666" lon="-7.10351187">
        <ele>461.0</ele>
        <time>2010-01-01T00:52:30Z</time>
      </trkpt>
      <trkpt lat="40.0248711" lon="-7.10380295">
        <ele>467.0</ele>
        <time>2010-01-01T00:52:59Z</time>
      </trkpt>
      <trkpt lat="40.0253206" lon="-7.10393456">
        <ele>469.0</ele>
        <time>2010-01-01T00:53:18Z</time>
      </trkpt>
      <trkpt lat="40.02583" lon="-7.10397299">
        <ele>473.0</ele>
        <time>2010-01-01T00:53:38Z</time>
      </trkpt>
      <trkpt lat="40.026095" lon="-7.10404262">
        <ele>474.0</ele>
        <time>2010-01-01T00:53:49Z</time>
      </trkpt>
      <trkpt lat="40.0261999" lon="-7.10410826">
        <ele>474.0</ele>
        <time>2010-01-01T00:53:54Z</time>
      </trkpt>
      <trkpt lat="40.0265901" lon="-7.10398942">
        <ele>479.0</ele>
        <time>2010-01-01T00:54:10Z</time>
      </trkpt>
      <trkpt lat="40.0268305" lon="-7.10395286">
        <ele>481.0</ele>
        <time>2010-01-01T00:54:19Z</time>
      </trkpt>
      <trkpt lat="40.0271293" lon="-7.10390099">
        <ele>482.0</ele>
        <time>2010-01-01T00:54:31Z</time>
      </trkpt>
      <trkpt lat="40.0274063" lon="-7.1038415">
        <ele>484.0</ele>
        <time>2010-01-01T00:54:43Z</time>
      </trkpt>
      <trkpt lat="40.0279547" lon="-7.10392037">
        <ele>488.0</ele>
        <time>2010-01-01T00:55:05Z</time>
      </trkpt>
      <trkpt lat="40.028371" lon="-7.10396383">
        <ele>494.0</ele>
        <time>2010-01-01T00:55:21Z</time>
      </trkpt>
      <trkpt lat="40.0285311" lon="-7.10397176">
        <ele>495.0</ele>
        <time>2010-01-01T00:55:28Z</time>
      </trkpt>
      <trkpt lat="40.028655" lon="-7.10393257">
        <ele>496.0</ele>
        <time>2010-01-01T00:55:33Z</time>
      </trkpt>
      <trkpt lat="40.0287392" lon="-7.10408433">
        <ele>496.0</ele>
        <time>2010-01-01T00:55:39Z</time>
      </trkpt>
      <trkpt lat="40.0287837" lon="-7.10440216">
        <ele>495.0</ele>
        <time>2010-01-01T00:55:49Z</time>
      </trkpt>
      <trkpt lat="40.0288592" lon="-7.10463614">
        <ele>493.0</ele>
        <time>2010-01-01T00:55:56Z</time>
      </trkpt>
      <trkpt lat="40.02897" lon="-7.10484432">
        <ele>491.0</ele>
        <time>2010-01-01T00:56:04Z</time>
      </trkpt>
      <trkpt lat="40.0290965" lon="-7.10493536">
        <ele>489.0</ele>
        <time>2010-01-01T00:56:10Z</time>
      </trkpt>
      <trkpt lat="40.0292077" lon="-7.10498767">
        <ele>487.0</ele>
        <time>2010-01-01T00:56:15Z</time>
      </trkpt>
      <trkpt lat="40.0294383" lon="-7.10498726">
        <ele>484.0</ele>
        <time>2010-01-01T00:56:24Z</time>
      </trkpt>
      <trkpt lat="40.0296888" lon="-7.10513996">
        <ele>480.0</ele>
        <time>2010-01-01T00:56:35Z</time>
      </trkpt>
      <trkpt lat="40.0300405" lon="-7.10534197">
        <ele>476.0</ele>
        <time>2010-01-01T00:56:50Z</time>
      </trkpt>
      <trkpt lat="40.0303292" lon="-7.10543097">
        <ele>474.0</ele>
        <time>2010-01-01T00:57:02Z</time>
      </trkpt>
      <trkpt lat="40.0304494" lon="-7.10554968">
        <ele>475.0</ele>
        <time>2010-01-01T00:57:08Z</time>
      </trkpt>
      <trkpt lat="40.0307131" lon="-7.10551241">
        <ele>477.0</ele>
        <time>2010-01-01T00:57:19Z</time>
      </trkpt>
      <trkpt lat="40.0309057" lon="-7.1058393">
        <ele>477.0</ele>
        <time>2010-01-01T00:57:31Z</time>
      </trkpt>
      <trkpt lat="40.0307161" lon="-7.1067865">
        <ele>471.0</ele>
        <time>2010-01-01T00:58:01Z</time>
      </trkpt>
      <trkpt lat="40.0307198" lon="-7.10699326">
        <ele>470.0</ele>
        <time>2010-01-01T00:58:08Z</time>
      </trkpt>
      <trkpt lat="40.0308078" lon="-7.10700122">
        <ele>471.0</ele>
        <time>2010-01-01T00:58:11Z</time>
      </trkpt>
      <trkpt lat="40.0308335" lon="-7.10719623">
        <ele>468.0</ele>
        <time>2010-01-01T00:58:17Z</time>
      </trkpt>
      <trkpt lat="40.0310322" lon="-7.10729312">
        <ele>467.0</ele>
        <time>2010-01-01T00:58:26Z</time>
      </trkpt>
      <trkpt lat="40.0311252" lon="-7.10740415">
        <ele>467.0</ele>
        <time>2010-01-01T00:58:31Z</time>
      </trkpt>
      <trkpt lat="40.0313846" lon="-7.10744561">
        <ele>469.0</ele>
        <time>2010-01-01T00:58:41Z</time>
      </trkpt>
      <trkpt lat="40.0314673" lon="-7.10763997">
        <ele>470.0</ele>
        <time>2010-01-01T00:58:48Z</time>
      </trkpt>
      <trkpt lat="40.0319042" lon="-7.10738225">
        <ele>475.0</ele>
        <time>2010-01-01T00:59:07Z</time>
      </trkpt>
      <trkpt lat="40.0315692" lon="-7.10815721">
        <ele>478.0</ele>
        <time>2010-01-01T00:59:35Z</time>
      </trkpt>
      <trkpt lat="40.0318288" lon="-7.10803985">
        <ele>485.0</ele>
        <time>2010-01-01T00:59:46Z</time>
      </trkpt>
      <trkpt lat="40.032261" lon="-7.10764679">
        <ele>486.0</ele>
        <time>2010-01-01T01:00:07Z</time>
      </trkpt>
      <trkpt lat="40.0326226" lon="-7.10763715">
        <ele>489.0</ele>
        <time>2010-01-01T01:00:21Z</time>
      </trkpt>
      <trkpt lat="40.0329429" lon="-7.10735559">
        <ele>490.0</ele>
        <time>2010-01-01T01:00:37Z</time>
      </trkpt>
      <trkpt lat="40.0334106" lon="-7.10726669">
        <ele>497.0</ele>
        <time>2010-01-01T01:00:56Z</time>
      </trkpt>
      <trkpt lat="40.0337283" lon="-7.1072196">
        <ele>503.0</ele>
        <time>2010-01-01T01:01:08Z</time>
      </trkpt>
      <trkpt lat="40.0340118" lon="-7.10712347">
        <ele>506.0</ele>
        <time>2010-01-01T01:01:20Z</time>
      </trkpt>
      <trkpt lat="40.0343618" lon="-7.10687772">
        <ele>507.0</ele>
        <time>2010-01-01T01:01:36Z</time>
      </trkpt>
      <trkpt lat="40.0344589" lon="-7.10675555">
        <ele>506.0</ele>
        <time>2010-01-01T01:01:41Z</time>
      </trkpt>
      <trkpt lat="40.0346036" lon="-7.10663379">
        <ele>505.0</ele>
        <time>2010-01-01T01:01:48Z</time>
      </trkpt>
      <trkpt lat="40.0348397" lon="-7.1066376">
        <ele>508.0</ele>
        <time>2010-01-01T01:01:58Z</time>
      </trkpt>
      <trkpt lat="40.034992" lon="-7.10665216">
        <ele>509.0</ele>
        <time>2010-01-01T01:02:04Z</time>
      </trkpt>
      <trkpt lat="40.0351956" lon="-7.10646538">
        <ele>508.0</ele>
        <time>2010-01-01T01:02:14Z</time>
      </trkpt>
      <trkpt lat="40.0352932" lon="-7.10678038">
        <ele>512.0</ele>
        <time>2010-01-01T01:02:24Z</time>
      </trkpt>
      <trkpt lat="40.03556" lon="-7.10680644">
        <ele>514.0</ele>
        <time>2010-01-01T01:02:35Z</time>
      </trkpt>
      <trkpt lat="40.0357841" lon="-7.10684659">
        <ele>515.0</ele>
        <time>2010-01-01T01:02:44Z</time>
      </trkpt>
      <trkpt lat="40.0360062" lon="-7.10678126">
        <ele>515.0</ele>
        <time>2010-01-01T01:02:53Z</time>
      </trkpt>
      <trkpt lat="40.0363096" lon="-7.10690512">
        <ele>517.0</ele>
        <time>2010-01-01T01:03:06Z</time>
      </trkpt>
      <trkpt lat="40.0367951" lon="-7.10671806">
        <ele>513.0</ele>
        <time>2010-01-01T01:03:26Z</time>
      </trkpt>
      <trkpt lat="40.0379147" lon="-7.10701677">
        <ele>521.0</ele>
        <time>2010-01-01T01:04:12Z</time>
      </trkpt>
      <trkpt lat="40.0385003" lon="-7.10740074">
        <ele>538.0</ele>
        <time>2010-01-01T01:04:38Z</time>
      </trkpt>
      <trkpt lat="40.0391518" lon="-7.10742175">
        <ele>541.0</ele>
        <time>2010-01-01T01:05:04Z</time>
      </trkpt>
      <trkpt lat="40.0394395" lon="-7.10753874">
        <ele>543.0</ele>
        <time>2010-01-01T01:05:16Z</time>
      </trkpt>
      <trkpt lat="40.0395243" lon="-7.1076724">
        <ele>549.0</ele>
        <time>2010-01-01T01:05:22Z</time>
      </trkpt>
      <trkpt lat="40.0398429" lon="-7.10789708">
        <ele>555.0</ele>
        <time>2010-01-01T01:05:36Z</time>
      </trkpt>
      <trkpt lat="40.0400647" lon="-7.10819063">
        <ele>562.0</ele>
        <time>2010-01-01T01:05:49Z</time>
      </trkpt>
      <trkpt lat="40.0402001" lon="-7.10843072">
        <ele>567.0</ele>
        <time>2010-01-01T01:05:58Z</time>
      </trkpt>
      <trkpt lat="40.0402862" lon="-7.1086666">
        <ele>571.0</ele>
        <time>2010-01-01T01:06:06Z</time>
      </trkpt>
      <trkpt lat="40.04052" lon="-7.10889815">
        <ele>568.0</ele>
        <time>2010-01-01T01:06:18Z</time>
      </trkpt>
      <trkpt lat="40.0404653" lon="-7.10953407">
        <ele>584.0</ele>
        <time>2010-01-01T01:06:37Z</time>
      </trkpt>
      <trkpt lat="40.0406076" lon="-7.11031223">
        <ele>588.0</ele>
        <time>2010-01-01T01:07:02Z</time>
      </trkpt>
      <trkpt lat="40.0405032" lon="-7.11038318">
        <ele>592.0</ele>
        <time>2010-01-01T01:07:06Z</time>
      </trkpt>
      <trkpt lat="40.0403257" lon="-7.10995759">
        <ele>593.0</ele>
        <time>2010-01-01T01:07:21Z</time>
      </trkpt>
      <trkpt lat="40.0402413" lon="-7.10997042">
        <ele>595.0</ele>
        <time>2010-01-01T01:07:25Z</time>
      </trkpt>
      <trkpt lat="40.0401984" lon="-7.11020321">
        <ele>600.0</ele>
        <time>2010-01-01T01:07:32Z</time>
      </trkpt>
      <trkpt lat="40.0401976" lon="-7.11021681">
        <ele>600.0</ele>
        <time>2010-01-01T01:07:32Z</time>
      </trkpt>
      <trkpt lat="40.0402274" lon="-7.11063018">
        <ele>604.0</ele>
        <time>2010-01-01T01:07:45Z</time>
      </trkpt>
      <trkpt lat="40.0402266" lon="-7.11064384">
        <ele>604.0</ele>
        <time>2010-01-01T01:07:46Z</time>
      </trkpt>
      <trkpt lat="40.0401868" lon="-7.11134039">
        <ele>610.0</ele>
        <time>2010-01-01T01:08:07Z</time>
      </trkpt>
      <trkpt lat="40.0401665" lon="-7.11159122">
        <ele>611.0</ele>
        <time>2010-01-01T01:08:15Z</time>
      </trkpt>
      <trkpt lat="40.0401747" lon="-7.11237426">
        <ele>613.0</ele>
        <time>2010-01-01T01:08:39Z</time>
      </trkpt>
      <trkpt lat="40.039909" lon="-7.11310288">
        <ele>632.0</ele>
        <time>2010-01-01T01:09:03Z</time>
      </trkpt>
      <trkpt lat="40.0398929" lon="-7.11338443">
        <ele>634.0</ele>
        <time>2010-01-01T01:09:12Z</time>
      </trkpt>
      <trkpt lat="40.0399603" lon="-7.11386712">
        <ele>633.0</ele>
        <time>2010-01-01T01:09:27Z</time>
      </trkpt>
      <trkpt lat="40.0399406" lon="-7.11411779">
        <ele>633.0</ele>
        <time>2010-01-01T01:09:35Z</time>
      </trkpt>
      <trkpt lat="40.0397502" lon="-7.1142487">
        <ele>639.0</ele>
        <time>2010-01-01T01:09:43Z</time>
      </trkpt>
      <trkpt lat="40.0397491" lon="-7.11421995">
        <ele>639.0</ele>
      </trkpt>
      <trkpt lat="40.039529" lon="-7.11433693">
        <ele>647.0</ele>
      </trkpt>
      <trkpt lat="40.0393634" lon="-7.11432969">
        <ele>652.0</ele>
      </trkpt>
      <trkpt lat="40.0392152" lon="-7.11466839">
        <ele>656.0</ele>
      </trkpt>
      <trkpt lat="40.0391826" lon="-7.11516967">
        <ele>656.0</ele>
      </trkpt>
      <trkpt lat="40.039353" lon="-7.11523006">
        <ele>651.0</ele>
      </trkpt>
      <trkpt lat="40.039454" lon="-7.11549795">
        <ele>649.0</ele>
      </trkpt>
      <trkpt lat="40.0396087" lon="-7.11555892">
        <ele>644.0</ele>
      </trkpt>
      <trkpt lat="40.0397728" lon="-7.11575236">
        <ele>638.0</ele>
      </trkpt>
      <trkpt lat="40.0397598" lon="-7.11597675">
        <ele>634.0</ele>
      </trkpt>
      <trkpt lat="40.0395562" lon="-7.11610739">
        <ele>636.0</ele>
      </trkpt>
      <trkpt lat="40.0392848" lon="-7.11614769">
        <ele>639.0</ele>
      </trkpt>
      <trkpt lat="40.0390569" lon="-7.11617722">
        <ele>639.0</ele>
      </trkpt>
      <trkpt lat="40.0389776" lon="-7.11629006">
        <ele>635.0</ele>
      </trkpt>
      <trkpt lat="40.0388106" lon="-7.11641529">
        <ele>630.0</ele>
      </trkpt>
      <trkpt lat="40.0388163" lon="-7.11670964">
        <ele>622.0</ele>
      </trkpt>
      <trkpt lat="40.0387696" lon="-7.11701397">
        <ele>614.0</ele>
      </trkpt>
      <trkpt lat="40.0388494" lon="-7.11704957">
        <ele>613.0</ele>
      </trkpt>
      <trkpt lat="40.0390759" lon="-7.11683065">
        <ele>618.0</ele>
      </trkpt>
      <trkpt lat="40.0392663" lon="-7.11673064">
        <ele>619.0</ele>
      </trkpt>
      <trkpt lat="40.0394796" lon="-7.11679323">
        <ele>614.0</ele>
      </trkpt>
      <trkpt lat="40.0398265" lon="-7.11654884">
        <ele>616.0</ele>
      </trkpt>
      <trkpt lat="40.0399918" lon="-7.11646897">
        <ele>615.0</ele>
      </trkpt>
      <trkpt lat="40.0401246" lon="-7.11640915">
        <ele>615.0</ele>
      </trkpt>
      <trkpt lat="40.0403755" lon="-7.11646292">
        <ele>609.0</ele>
      </trkpt>
      <trkpt lat="40.040752" lon="-7.1163419">
        <ele>606.0</ele>
      </trkpt>
      <trkpt lat="40.0408933" lon="-7.11642764">
        <ele>603.0</ele>
      </trkpt>
      <trkpt lat="40.0409064" lon="-7.11653322">
        <ele>602.0</ele>
      </trkpt>
      <trkpt lat="40.0408157" lon="-7.11665232">
        <ele>601.0</ele>
      </trkpt>
      <trkpt lat="40.0406785" lon="-7.11673371">
        <ele>599.0</ele>
      </trkpt>
      <trkpt lat="40.0406006" lon="-7.11685153">
        <ele>595.0</ele>
      </trkpt>
      <trkpt lat="40.0406051" lon="-7.11695624">
        <ele>592.0</ele>
      </trkpt>
      <trkpt lat="40.0407649" lon="-7.11714236">
        <ele>587.0</ele>
      </trkpt>
      <trkpt lat="40.0406907" lon="-7.11721243">
        <ele>584.0</ele>
      </trkpt>
      <trkpt lat="40.040533" lon="-7.11729798">
        <ele>580.0</ele>
      </trkpt>
      <trkpt lat="40.0403" lon="-7.11741673">
        <ele>576.0</ele>
      </trkpt>
      <trkpt lat="40.040261" lon="-7.11754246">
        <ele>572.0</ele>
      </trkpt>
      <trkpt lat="40.0400323" lon="-7.11764396">
        <ele>570.0</ele>
      </trkpt>
      <trkpt lat="40.0398982" lon="-7.1177363">
        <ele>568.0</ele>
      </trkpt>
      <trkpt lat="40.039737" lon="-7.11777682">
        <ele>567.0</ele>
      </trkpt>
      <trkpt lat="40.0396529" lon="-7.11791415">
        <ele>565.0</ele>
      </trkpt>
      <trkpt lat="40.0396464" lon="-7.11791706">
        <ele>565.0</ele>
      </trkpt>
      <trkpt lat="40.0395553" lon="-7.11805646">
        <ele>562.0</ele>
      </trkpt>
      <trkpt lat="40.0393466" lon="-7.11830136">
        <ele>559.0</ele>
      </trkpt>
      <trkpt lat="40.0392215" lon="-7.11840853">
        <ele>558.0</ele>
      </trkpt>
      <trkpt lat="40.0390643" lon="-7.11845094">
        <ele>558.0</ele>
      </trkpt>
      <trkpt lat="40.0389451" lon="-7.11846998">
        <ele>558.0</ele>
      </trkpt>
      <trkpt lat="40.0388275" lon="-7.11860017">
        <ele>553.0</ele>
      </trkpt>
      <trkpt lat="40.0384454" lon="-7.11885415">
        <ele>543.0</ele>
      </trkpt>
      <trkpt lat="40.0382799" lon="-7.11896468">
        <ele>538.0</ele>
      </trkpt>
      <trkpt lat="40.0381258" lon="-7.1191167">
        <ele>532.0</ele>
      </trkpt>
      <trkpt lat="40.0380143" lon="-7.11914028">
        <ele>531.0</ele>
      </trkpt>
      <trkpt lat="40.037787" lon="-7.11896367">
        <ele>533.0</ele>
      </trkpt>
      <trkpt lat="40.0376988" lon="-7.11885122">
        <ele>534.0</ele>
      </trkpt>
      <trkpt lat="40.0375166" lon="-7.11870998">
        <ele>535.0</ele>
      </trkpt>
      <trkpt lat="40.0374287" lon="-7.11869133">
        <ele>535.0</ele>
      </trkpt>
      <trkpt lat="40.0372368" lon="-7.11870405">
        <ele>533.0</ele>
      </trkpt>
      <trkpt lat="40.0370701" lon="-7.11881342">
        <ele>528.0</ele>
      </trkpt>
      <trkpt lat="40.0369059" lon="-7.11897783">
        <ele>523.0</ele>
      </trkpt>
      <trkpt lat="40.0367206" lon="-7.11920016">
        <ele>518.0</ele>
      </trkpt>
      <trkpt lat="40.0366717" lon="-7.1194775">
        <ele>517.0</ele>
      </trkpt>
      <trkpt lat="40.0367042" lon="-7.11966263">
        <ele>517.0</ele>
      </trkpt>
      <trkpt lat="40.0365429" lon="-7.11999542">
        <ele>514.0</ele>
      </trkpt>
      <trkpt lat="40.0364018" lon="-7.12010988">
        <ele>512.0</ele>
      </trkpt>
      <trkpt lat="40.0362684" lon="-7.120254">
        <ele>510.0</ele>
      </trkpt>
      <trkpt lat="40.0360889" lon="-7.12031064">
        <ele>507.0</ele>
      </trkpt>
      <trkpt lat="40.0359909" lon="-7.1203077">
        <ele>508.0</ele>
      </trkpt>
      <trkpt lat="40.0358462" lon="-7.12035588">
        <ele>507.0</ele>
      </trkpt>
      <trkpt lat="40.0356687" lon="-7.12048221">
        <ele>508.0</ele>
      </trkpt>
      <trkpt lat="40.0355769" lon="-7.12120389">
        <ele>496.0</ele>
      </trkpt>
      <trkpt lat="40.0355057" lon="-7.12141505">
        <ele>492.0</ele>
      </trkpt>
      <trkpt lat="40.0354996" lon="-7.12168824">
        <ele>489.0</ele>
      </trkpt>
      <trkpt lat="40.0358117" lon="-7.12245963">
        <ele>485.0</ele>
      </trkpt>
      <trkpt lat="40.0358262" lon="-7.12284877">
        <ele>483.0</ele>
      </trkpt>
      <trkpt lat="40.0358065" lon="-7.12338284">
        <ele>476.0</ele>
      </trkpt>
      <trkpt lat="40.0358698" lon="-7.12353237">
        <ele>474.0</ele>
      </trkpt>
      <trkpt lat="40.0356642" lon="-7.1236886">
        <ele>473.0</ele>
      </trkpt>
      <trkpt lat="40.0357411" lon="-7.12432056">
        <ele>469.0</ele>
      </trkpt>
      <trkpt lat="40.0355483" lon="-7.12525959">
        <ele>460.0</ele>
      </trkpt>
      <trkpt lat="40.0354558" lon="-7.12546421">
        <ele>459.0</ele>
      </trkpt>
      <trkpt lat="40.0354946" lon="-7.12582111">
        <ele>457.0</ele>
      </trkpt>
      <trkpt lat="40.0357735" lon="-7.1259986">
        <ele>457.0</ele>
      </trkpt>
      <trkpt lat="40.0359389" lon="-7.12639616">
        <ele>454.0</ele>
      </trkpt>
      <trkpt lat="40.0364075" lon="-7.1266276">
        <ele>455.0</ele>
      </trkpt>
      <trkpt lat="40.0363522" lon="-7.12744683">
        <ele>451.0</ele>
      </trkpt>
      <trkpt lat="40.0366927" lon="-7.12828472">
        <ele>447.0</ele>
      </trkpt>
      <trkpt lat="40.0369175" lon="-7.12857964">
        <ele>445.0</ele>
      </trkpt>
      <trkpt lat="40.0370352" lon="-7.12910008">
        <ele>442.0</ele>
      </trkpt>
      <trkpt lat="40.0371619" lon="-7.12961842">
        <ele>439.0</ele>
      </trkpt>
      <trkpt lat="40.0371944" lon="-7.13026989">
        <ele>437.0</ele>
      </trkpt>
      <trkpt lat="40.0372695" lon="-7.13076291">
        <ele>433.0</ele>
      </trkpt>
      <trkpt lat="40.0378868" lon="-7.13157921">
        <ele>428.0</ele>
      </trkpt>
      <trkpt lat="40.0389348" lon="-7.13307474">
        <ele>417.0</ele>
      </trkpt>
      <trkpt lat="40.0402151" lon="-7.13485247">
        <ele>427.0</ele>
      </trkpt>
      <trkpt lat="40.0408469" lon="-7.13537031">
        <ele>430.0</ele>
      </trkpt>
      <trkpt lat="40.0422543" lon="-7.13684817">
        <ele>439.0</ele>
      </trkpt>
      <trkpt lat="40.0428168" lon="-7.13704943">
        <ele>443.0</ele>
      </trkpt>
      <trkpt lat="40.0431958" lon="-7.13709889">
        <ele>444.0</ele>
      </trkpt>
      <trkpt lat="40.0452128" lon="-7.13737625">
        <ele>449.0</ele>
      </trkpt>
      <trkpt lat="40.0460479" lon="-7.13751718">
        <ele>450.0</ele>
      </trkpt>
      <trkpt lat="40.0462482" lon="-7.13763669">
        <ele>452.0</ele>
      </trkpt>
      <trkpt lat="40.0468713" lon="-7.13827125">
        <ele>451.0</ele>
      </trkpt>
      <trkpt lat="40.0471322" lon="-7.13848596">
        <ele>451.0</ele>
      </trkpt>
      <trkpt lat="40.0485292" lon="-7.13903459">
        <ele>441.0</ele>
      </trkpt>
      <trkpt lat="40.049119" lon="-7.13924823">
        <ele>437.0</ele>
      </trkpt>
      <trkpt lat="40.0498001" lon="-7.13946518">
        <ele>440.0</ele>
      </trkpt>
      <trkpt lat="40.0498036" lon="-7.14037326">
        <ele>437.0</ele>
      </trkpt>
      <trkpt lat="40.0502681" lon="-7.1401054">
        <ele>438.0</ele>
      </trkpt>
      <trkpt lat="40.0506103" lon="-7.13957928">
        <ele>439.0</ele>
      </trkpt>
      <trkpt lat="40.0507539" lon="-7.13941136">
        <ele>439.0</ele>
      </trkpt>
      <trkpt lat="40.0511047" lon="-7.13909838">
        <ele>440.0</ele>
      </trkpt>
      <trkpt lat="40.0514841" lon="-7.13875765">
        <ele>439.0</ele>
      </trkpt>
      <trkpt lat="40.0519065" lon="-7.13852644">
        <ele>437.0</ele>
      </trkpt>
      <trkpt lat="40.0521903" lon="-7.13837959">
        <ele>436.0</ele>
      </trkpt>
      <trkpt lat="40.0526732" lon="-7.13813556">
        <ele>437.0</ele>
      </trkpt>
      <trkpt lat="40.0525592" lon="-7.13886624">
        <ele>437.0</ele>
      </trkpt>
      <trkpt lat="40.0527411" lon="-7.14016999">
        <ele>437.0</ele>
      </trkpt>
      <trkpt lat="40.0528519" lon="-7.14098934">
        <ele>437.0</ele>
      </trkpt>
      <trkpt lat="40.0535181" lon="-7.14223834">
        <ele>438.0</ele>
      </trkpt>
      <trkpt lat="40.0537227" lon="-7.14251925">
        <ele>439.0</ele>
      </trkpt>
      <trkpt lat="40.0538753" lon="-7.14301181">
        <ele>439.0</ele>
      </trkpt>
      <trkpt lat="40.0542685" lon="-7.14347773">
        <ele>438.0</ele>
      </trkpt>
      <trkpt lat="40.0547643" lon="-7.14378712">
        <ele>439.0</ele>
      </trkpt>
      <trkpt lat="40.0551511" lon="-7.14464852">
        <ele>441.0</ele>
      </trkpt>
      <trkpt lat="40.0549364" lon="-7.14514534">
        <ele>441.0</ele>
      </trkpt>
      <trkpt lat="40.0546138" lon="-7.14531203">
        <ele>442.0</ele>
      </trkpt>
      <trkpt lat="40.0541482" lon="-7.14613786">
        <ele>444.0</ele>
      </trkpt>
      <trkpt lat="40.0540075" lon="-7.14623143">
        <ele>443.0</ele>
      </trkpt>
      <trkpt lat="40.0539287" lon="-7.14630345">
        <ele>443.0</ele>
      </trkpt>
      <trkpt lat="40.0541404" lon="-7.14675109">
        <ele>447.0</ele>
      </trkpt>
      <trkpt lat="40.054437" lon="-7.14705285">
        <ele>448.0</ele>
      </trkpt>
      <trkpt lat="40.0546882" lon="-7.14714632">
        <ele>450.0</ele>
      </trkpt>
      <trkpt lat="40.0549043" lon="-7.14731162">
        <ele>452.0</ele>
      </trkpt>
      <trkpt lat="40.0555102" lon="-7.1482104">
        <ele>453.0</ele>
      </trkpt>
      <trkpt lat="40.0563385" lon="-7.14884387">
        <ele>456.0</ele>
      </trkpt>
      <trkpt lat="40.0569409" lon="-7.14878831">
        <ele>455.0</ele>
      </trkpt>
      <trkpt lat="40.0571202" lon="-7.1485803">
        <ele>456.0</ele>
      </trkpt>
      <trkpt lat="40.0576943" lon="-7.14852685">
        <ele>458.0</ele>
      </trkpt>
      <trkpt lat="40.0578291" lon="-7.14845101">
        <ele>459.0</ele>
      </trkpt>
      <trkpt lat="40.0580332" lon="-7.14842328">
        <ele>460.0</ele>
      </trkpt>
      <trkpt lat="40.0582123" lon="-7.14823411">
        <ele>461.0</ele>
      </trkpt>
      <trkpt lat="40.0583996" lon="-7.14789506">
        <ele>461.0</ele>
      </trkpt>
      <trkpt lat="40.0585794" lon="-7.14774854">
        <ele>461.0</ele>
      </trkpt>
      <trkpt lat="40.0592871" lon="-7.14772492">
        <ele>461.0</ele>
      </trkpt>
      <trkpt lat="40.0601689" lon="-7.14875013">
        <ele>462.0</ele>
      </trkpt>
      <trkpt lat="40.0605842" lon="-7.14921537">
        <ele>459.0</ele>
      </trkpt>
      <trkpt lat="40.0610792" lon="-7.14954784">
        <ele>458.0</ele>
      </trkpt>
      <trkpt lat="40.0612823" lon="-7.14992602">
        <ele>457.0</ele>
      </trkpt>
      <trkpt lat="40.0618284" lon="-7.15054297">
        <ele>454.0</ele>
      </trkpt>
      <trkpt lat="40.0622635" lon="-7.15096705">
        <ele>452.0</ele>
      </trkpt>
      <trkpt lat="40.0623834" lon="-7.15117168">
        <ele>451.0</ele>
      </trkpt>
      <trkpt lat="40.0626359" lon="-7.15160443">
        <ele>449.0</ele>
      </trkpt>
      <trkpt lat="40.0629858" lon="-7.15199999">
        <ele>446.0</ele>
      </trkpt>
      <trkpt lat="40.0632478" lon="-7.15219683">
        <ele>446.0</ele>
      </trkpt>
      <trkpt lat="40.0633056" lon="-7.15250297">
        <ele>444.0</ele>
      </trkpt>
      <trkpt lat="40.0633201" lon="-7.15266505">
        <ele>444.0</ele>
      </trkpt>
      <trkpt lat="40.0635049" lon="-7.15293213">
        <ele>446.0</ele>
      </trkpt>
      <trkpt lat="40.0637551" lon="-7.15329371">
        <ele>448.0</ele>
      </trkpt>
      <trkpt lat="40.0637484" lon="-7.15353885">
        <ele>449.0</ele>
      </trkpt>
      <trkpt lat="40.0637477" lon="-7.15355154">
        <ele>449.0</ele>
      </trkpt>
      <trkpt lat="40.0636368" lon="-7.15412309">
        <ele>449.0</ele>
      </trkpt>
      <trkpt lat="40.0635175" lon="-7.15469021">
        <ele>446.0</ele>
      </trkpt>
      <trkpt lat="40.0633855" lon="-7.15605445">
        <ele>446.0</ele>
      </trkpt>
      <trkpt lat="40.0633541" lon="-7.156237">
        <ele>446.0</ele>
      </trkpt>
      <trkpt lat="40.0631718" lon="-7.15727886">
        <ele>449.0</ele>
      </trkpt>
      <trkpt lat="40.063027" lon="-7.15803424">
        <ele>450.0</ele>
      </trkpt>
      <trkpt lat="40.062564" lon="-7.15896972">
        <ele>452.0</ele>
      </trkpt>
      <trkpt lat="40.0625699" lon="-7.15925424">
        <ele>450.0</ele>
      </trkpt>
      <trkpt lat="40.0631602" lon="-7.16036993">
        <ele>445.0</ele>
      </trkpt>
      <trkpt lat="40.0632373" lon="-7.16080127">
        <ele>445.0</ele>
      </trkpt>
      <trkpt lat="40.0634499" lon="-7.16099246">
        <ele>443.0</ele>
      </trkpt>
      <trkpt lat="40.0635785" lon="-7.16120483">
        <ele>441.0</ele>
      </trkpt>
      <trkpt lat="40.0647362" lon="-7.16320163">
        <ele>433.0</ele>
      </trkpt>
      <trkpt lat="40.0647678" lon="-7.16338243">
        <ele>434.0</ele>
      </trkpt>
      <trkpt lat="40.0647319" lon="-7.16351095">
        <ele>434.0</ele>
      </trkpt>
      <trkpt lat="40.064852" lon="-7.16377131">
        <ele>435.0</ele>
      </trkpt>
      <trkpt lat="40.0661427" lon="-7.16506857">
        <ele>441.0</ele>
      </trkpt>
      <trkpt lat="40.0662625" lon="-7.16527704">
        <ele>440.0</ele>
      </trkpt>
      <trkpt lat="40.0664014" lon="-7.1657676">
        <ele>436.0</ele>
      </trkpt>
      <trkpt lat="40.0661936" lon="-7.16704194">
        <ele>429.0</ele>
      </trkpt>
      <trkpt lat="40.0661497" lon="-7.16738194">
        <ele>429.0</ele>
      </trkpt>
      <trkpt lat="40.0663844" lon="-7.16791632">
        <ele>426.0</ele>
      </trkpt>
      <trkpt lat="40.0665222" lon="-7.16803999">
        <ele>425.0</ele>
      </trkpt>
      <trkpt lat="40.0667513" lon="-7.1680347">
        <ele>424.0</ele>
      </trkpt>
      <trkpt lat="40.0671633" lon="-7.16813417">
        <ele>421.0</ele>
      </trkpt>
      <trkpt lat="40.0657619" lon="-7.17087708">
        <ele>419.0</ele>
      </trkpt>
      <trkpt lat="40.0659387" lon="-7.17232259">
        <ele>411.0</ele>
      </trkpt>
      <trkpt lat="40.0667611" lon="-7.17240929">
        <ele>406.0</ele>
      </trkpt>
      <trkpt lat="40.0680166" lon="-7.17303073">
        <ele>398.0</ele>
      </trkpt>
      <trkpt lat="40.0685206" lon="-7.1743816">
        <ele>389.0</ele>
      </trkpt>
      <trkpt lat="40.0688873" lon="-7.17532445">
        <ele>388.0</ele>
      </trkpt>
      <trkpt lat="40.069406" lon="-7.17574288">
        <ele>385.0</ele>
      </trkpt>
      <trkpt lat="40.0692592" lon="-7.17655466">
        <ele>382.0</ele>
      </trkpt>
      <trkpt lat="40.0696354" lon="-7.17687065">
        <ele>377.0</ele>
      </trkpt>
      <trkpt lat="40.0701833" lon="-7.17729519">
        <ele>377.0</ele>
      </trkpt>
      <trkpt lat="40.069975" lon="-7.17795579">
        <ele>378.0</ele>
      </trkpt>
      <trkpt lat="40.0703494" lon="-7.18024193">
        <ele>395.0</ele>
      </trkpt>
      <trkpt lat="40.0704929" lon="-7.1809522">
        <ele>397.0</ele>
      </trkpt>
      <trkpt lat="40.0719054" lon="-7.1817179">
        <ele>408.0</ele>
      </trkpt>
      <trkpt lat="40.0734122" lon="-7.18132066">
        <ele>415.0</ele>
      </trkpt>
      <trkpt lat="40.0740094" lon="-7.18197204">
        <ele>420.0</ele>
      </trkpt>
      <trkpt lat="40.0754625" lon="-7.18210383">
        <ele>421.0</ele>
      </trkpt>
      <trkpt lat="40.0763667" lon="-7.18368578">
        <ele>414.0</ele>
      </trkpt>
      <trkpt lat="40.0770918" lon="-7.18616529">
        <ele>421.0</ele>
      </trkpt>
      <trkpt lat="40.0775546" lon="-7.18435274">
        <ele>420.0</ele>
      </trkpt>
      <trkpt lat="40.079065" lon="-7.18344538">
        <ele>423.0</ele>
      </trkpt>
      <trkpt lat="40.0794944" lon="-7.18302509">
        <ele>424.0</ele>
      </trkpt>
      <trkpt lat="40.0809414" lon="-7.18177833">
        <ele>434.0</ele>
      </trkpt>
      <trkpt lat="40.0813661" lon="-7.18147333">
        <ele>435.0</ele>
      </trkpt>
      <trkpt lat="40.0823917" lon="-7.18068834">
        <ele>440.0</ele>
      </trkpt>
      <trkpt lat="40.0831765" lon="-7.18005599">
        <ele>441.0</ele>
      </trkpt>
      <trkpt lat="40.0837409" lon="-7.17966062">
        <ele>444.0</ele>
      </trkpt>
      <trkpt lat="40.0850818" lon="-7.17787219">
        <ele>451.0</ele>
      </trkpt>
      <trkpt lat="40.0859067" lon="-7.17675997">
        <ele>452.0</ele>
      </trkpt>
      <trkpt lat="40.0867943" lon="-7.1748106">
        <ele>447.0</ele>
      </trkpt>
      <trkpt lat="40.0870298" lon="-7.17425467">
        <ele>442.0</ele>
      </trkpt>
      <trkpt lat="40.087423" lon="-7.17371429">
        <ele>441.0</ele>
      </trkpt>
      <trkpt lat="40.0876801" lon="-7.17338389">
        <ele>442.0</ele>
      </trkpt>
      <trkpt lat="40.0881464" lon="-7.17264053">
        <ele>446.0</ele>
      </trkpt>
      <trkpt lat="40.0886229" lon="-7.17193573">
        <ele>441.0</ele>
      </trkpt>
      <trkpt lat="40.0892141" lon="-7.17102138">
        <ele>438.0</ele>
      </trkpt>
      <trkpt lat="40.0898475" lon="-7.17045837">
        <ele>436.0</ele>
      </trkpt>
      <trkpt lat="40.0902501" lon="-7.17010259">
        <ele>435.0</ele>
      </trkpt>
      <trkpt lat="40.090744" lon="-7.16966227">
        <ele>432.0</ele>
      </trkpt>
      <trkpt lat="40.0911284" lon="-7.16928656">
        <ele>433.0</ele>
      </trkpt>
      <trkpt lat="40.0918509" lon="-7.16887032">
        <ele>436.0</ele>
      </trkpt>
      <trkpt lat="40.0924077" lon="-7.1685901">
        <ele>436.0</ele>
      </trkpt>
      <trkpt lat="40.0930533" lon="-7.16822128">
        <ele>438.0</ele>
      </trkpt>
      <trkpt lat="40.0935593" lon="-7.16794718">
        <ele>442.0</ele>
      </trkpt>
      <trkpt lat="40.0945792" lon="-7.16729065">
        <ele>447.0</ele>
      </trkpt>
      <trkpt lat="40.0952938" lon="-7.1667971">
        <ele>449.0</ele>
      </trkpt>
      <trkpt lat="40.095816" lon="-7.16549439">
        <ele>452.0</ele>
      </trkpt>
      <trkpt lat="40.0960034" lon="-7.16546631">
        <ele>453.0</ele>
      </trkpt>
      <trkpt lat="40.0964518" lon="-7.16486795">
        <ele>449.0</ele>
      </trkpt>
      <trkpt lat="40.0972131" lon="-7.16382078">
        <ele>441.0</ele>
      </trkpt>
      <trkpt lat="40.0977299" lon="-7.16323098">
        <ele>435.0</ele>
      </trkpt>
      <trkpt lat="40.0979409" lon="-7.16297303">
        <ele>433.0</ele>
      </trkpt>
      <trkpt lat="40.0980465" lon="-7.16263976">
        <ele>432.0</ele>
      </trkpt>
      <trkpt lat="40.0983494" lon="-7.16248207">
        <ele>430.0</ele>
      </trkpt>
      <trkpt lat="40.09866" lon="-7.16215603">
        <ele>431.0</ele>
      </trkpt>
      <trkpt lat="40.0989121" lon="-7.16187673">
        <ele>432.0</ele>
      </trkpt>
      <trkpt lat="40.0989971" lon="-7.16168741">
        <ele>433.0</ele>
      </trkpt>
      <trkpt lat="40.0997538" lon="-7.16108614">
        <ele>436.0</ele>
      </trkpt>
      <trkpt lat="40.1001275" lon="-7.16128439">
        <ele>438.0</ele>
      </trkpt>
      <trkpt lat="40.100336" lon="-7.16058282">
        <ele>434.0</ele>
      </trkpt>
      <trkpt lat="40.10044" lon="-7.16021297">
        <ele>434.0</ele>
      </trkpt>
      <trkpt lat="40.1006688" lon="-7.1595579">
        <ele>434.0</ele>
      </trkpt>
      <trkpt lat="40.1007351" lon="-7.15915211">
        <ele>434.0</ele>
      </trkpt>
      <trkpt lat="40.1007946" lon="-7.15873716">
        <ele>434.0</ele>
      </trkpt>
      <trkpt lat="40.1010317" lon="-7.15801813">
        <ele>434.0</ele>
      </trkpt>
      <trkpt lat="40.1010177" lon="-7.15788688">
        <ele>434.0</ele>
      </trkpt>
      <trkpt lat="40.1012715" lon="-7.15756545">
        <ele>434.0</ele>
      </trkpt>
      <trkpt lat="40.1015072" lon="-7.15731715">
        <ele>432.0</ele>
      </trkpt>
      <trkpt lat="40.1018223" lon="-7.15666623">
        <ele>433.0</ele>
      </trkpt>
      <trkpt lat="40.1019794" lon="-7.15649245">
        <ele>433.0</ele>
      </trkpt>
      <trkpt lat="40.1021847" lon="-7.1562522">
        <ele>432.0</ele>
      </trkpt>
      <trkpt lat="40.1023348" lon="-7.15606562">
        <ele>431.0</ele>
      </trkpt>
      <trkpt lat="40.1026135" lon="-7.15563191">
        <ele>434.0</ele>
      </trkpt>
      <trkpt lat="40.1028617" lon="-7.15565354">
        <ele>435.0</ele>
      </trkpt>
      <trkpt lat="40.1030603" lon="-7.15574528">
        <ele>435.0</ele>
      </trkpt>
      <trkpt lat="40.1031475" lon="-7.15562865">
        <ele>435.0</ele>
      </trkpt>
      <trkpt lat="40.1035193" lon="-7.15503597">
        <ele>438.0</ele>
      </trkpt>
      <trkpt lat="40.1036149" lon="-7.15486133">
        <ele>439.0</ele>
      </trkpt>
      <trkpt lat="40.1037842" lon="-7.15448814">
        <ele>441.0</ele>
      </trkpt>
      <trkpt lat="40.103901" lon="-7.15421568">
        <ele>443.0</ele>
      </trkpt>
      <trkpt lat="40.1039704" lon="-7.15394809">
        <ele>445.0</ele>
      </trkpt>
      <trkpt lat="40.1039979" lon="-7.15370909">
        <ele>446.0</ele>
      </trkpt>
      <trkpt lat="40.1039785" lon="-7.15334306">
        <ele>446.0</ele>
      </trkpt>
      <trkpt lat="40.1040963" lon="-7.15312216">
        <ele>447.0</ele>
      </trkpt>
      <trkpt lat="40.1041664" lon="-7.15320679">
        <ele>447.0</ele>
      </trkpt>
      <trkpt lat="40.1044257" lon="-7.15332441">
        <ele>447.0</ele>
      </trkpt>
      <trkpt lat="40.1046855" lon="-7.15342758">
        <ele>448.0</ele>
      </trkpt>
      <trkpt lat="40.1057663" lon="-7.15401379">
        <ele>455.0</ele>
      </trkpt>
      <trkpt lat="40.1062918" lon="-7.15485507">
        <ele>453.0</ele>
      </trkpt>
      <trkpt lat="40.1071423" lon="-7.1559747">
        <ele>459.0</ele>
      </trkpt>
      <trkpt lat="40.1074347" lon="-7.15630729">
        <ele>462.0</ele>
      </trkpt>
      <trkpt lat="40.1081718" lon="-7.15703304">
        <ele>465.0</ele>
      </trkpt>
      <trkpt lat="40.1086345" lon="-7.15750353">
        <ele>470.0</ele>
      </trkpt>
      <trkpt lat="40.1088786" lon="-7.15789918">
        <ele>468.0</ele>
      </trkpt>
      <trkpt lat="40.1094478" lon="-7.15779556">
        <ele>473.0</ele>
      </trkpt>
      <trkpt lat="40.1100033" lon="-7.15762217">
        <ele>477.0</ele>
      </trkpt>
      <trkpt lat="40.1107993" lon="-7.1574444">
        <ele>479.0</ele>
      </trkpt>
      <trkpt lat="40.1112184" lon="-7.15754661">
        <ele>478.0</ele>
      </trkpt>
      <trkpt lat="40.1118755" lon="-7.1573303">
        <ele>472.0</ele>
      </trkpt>
      <trkpt lat="40.1125285" lon="-7.15744805">
        <ele>463.0</ele>
      </trkpt>
      <trkpt lat="40.1128877" lon="-7.15725843">
        <ele>461.0</ele>
      </trkpt>
      <trkpt lat="40.1133271" lon="-7.15721746">
        <ele>462.0</ele>
      </trkpt>
      <trkpt lat="40.1136392" lon="-7.15718152">
        <ele>460.0</ele>
      </trkpt>
      <trkpt lat="40.1139352" lon="-7.15734286">
        <ele>456.0</ele>
      </trkpt>
      <trkpt lat="40.1142272" lon="-7.15746834">
        <ele>454.0</ele>
      </trkpt>
      <trkpt lat="40.1144774" lon="-7.15756776">
        <ele>452.0</ele>
      </trkpt>
      <trkpt lat="40.1147092" lon="-7.15773901">
        <ele>451.0</ele>
      </trkpt>
      <trkpt lat="40.1148849" lon="-7.15796671">
        <ele>450.0</ele>
      </trkpt>
      <trkpt lat="40.1152238" lon="-7.15809294">
        <ele>449.0</ele>
      </trkpt>
      <trkpt lat="40.1157283" lon="-7.15831271">
        <ele>449.0</ele>
      </trkpt>
      <trkpt lat="40.115885" lon="-7.15848352">
        <ele>450.0</ele>
      </trkpt>
      <trkpt lat="40.1160576" lon="-7.15854134">
        <ele>450.0</ele>
      </trkpt>
      <trkpt lat="40.116244" lon="-7.15853712">
        <ele>449.0</ele>
      </trkpt>
      <trkpt lat="40.1166272" lon="-7.15869087">
        <ele>448.0</ele>
      </trkpt>
      <trkpt lat="40.1168825" lon="-7.15866409">
        <ele>445.0</ele>
      </trkpt>
      <trkpt lat="40.1171201" lon="-7.15795369">
        <ele>438.0</ele>
      </trkpt>
      <trkpt lat="40.1172344" lon="-7.15791749">
        <ele>436.0</ele>
      </trkpt>
      <trkpt lat="40.1179423" lon="-7.15791269">
        <ele>432.0</ele>
      </trkpt>
      <trkpt lat="40.1178818" lon="-7.15754026">
        <ele>431.0</ele>
      </trkpt>
      <trkpt lat="40.1179488" lon="-7.15699153">
        <ele>432.0</ele>
      </trkpt>
      <trkpt lat="40.1181954" lon="-7.15573375">
        <ele>431.0</ele>
      </trkpt>
      <trkpt lat="40.1184001" lon="-7.15424754">
        <ele>437.0</ele>
      </trkpt>
      <trkpt lat="40.1191069" lon="-7.15361367">
        <ele>436.0</ele>
      </trkpt>
      <trkpt lat="40.1192503" lon="-7.15368333">
        <ele>436.0</ele>
      </trkpt>
      <trkpt lat="40.1193923" lon="-7.1538559">
        <ele>436.0</ele>
      </trkpt>
      <trkpt lat="40.1196465" lon="-7.15407446">
        <ele>434.0</ele>
      </trkpt>
      <trkpt lat="40.1197514" lon="-7.15403355">
        <ele>434.0</ele>
      </trkpt>
      <trkpt lat="40.1204306" lon="-7.15379667">
        <ele>432.0</ele>
      </trkpt>
      <trkpt lat="40.1210237" lon="-7.15313725">
        <ele>433.0</ele>
      </trkpt>
      <trkpt lat="40.1211356" lon="-7.15316465">
        <ele>433.0</ele>
      </trkpt>
      <trkpt lat="40.121642" lon="-7.1536573">
        <ele>437.0</ele>
      </trkpt>
      <trkpt lat="40.1221302" lon="-7.15408721">
        <ele>432.0</ele>
      </trkpt>
      <trkpt lat="40.1226529" lon="-7.15385257">
        <ele>432.0</ele>
      </trkpt>
      <trkpt lat="40.122814" lon="-7.15360057">
        <ele>432.0</ele>
      </trkpt>
      <trkpt lat="40.1230023" lon="-7.15323845">
        <ele>432.0</ele>
      </trkpt>
      <trkpt lat="40.1231393" lon="-7.15299288">
        <ele>431.0</ele>
      </trkpt>
      <trkpt lat="40.1233067" lon="-7.15282028">
        <ele>430.0</ele>
      </trkpt>
      <trkpt lat="40.1233466" lon="-7.15258377">
        <ele>430.0</ele>
      </trkpt>
      <trkpt lat="40.1233756" lon="-7.15247489">
        <ele>431.0</ele>
      </trkpt>
      <trkpt lat="40.1233446" lon="-7.15223145">
        <ele>431.0</ele>
      </trkpt>
      <trkpt lat="40.1235221" lon="-7.15214785">
        <ele>432.0</ele>
      </trkpt>
      <trkpt lat="40.1243515" lon="-7.1522113">
        <ele>437.0</ele>
      </trkpt>
      <trkpt lat="40.1246732" lon="-7.15210837">
        <ele>436.0</ele>
      </trkpt>
      <trkpt lat="40.1248821" lon="-7.1520992">
        <ele>436.0</ele>
      </trkpt>
      <trkpt lat="40.1249154" lon="-7.1518707">
        <ele>437.0</ele>
      </trkpt>
      <trkpt lat="40.1249268" lon="-7.15167335">
        <ele>438.0</ele>
      </trkpt>
      <trkpt lat="40.1250338" lon="-7.15137592">
        <ele>441.0</ele>
      </trkpt>
      <trkpt lat="40.1250909" lon="-7.15125244">
        <ele>441.0</ele>
      </trkpt>
      <trkpt lat="40.1257663" lon="-7.15073845">
        <ele>444.0</ele>
      </trkpt>
      <trkpt lat="40.1262642" lon="-7.15033732">
        <ele>447.0</ele>
      </trkpt>
      <trkpt lat="40.1265147" lon="-7.15006036">
        <ele>447.0</ele>
      </trkpt>
      <trkpt lat="40.1266721" lon="-7.14986461">
        <ele>447.0</ele>
      </trkpt>
      <trkpt lat="40.1267546" lon="-7.14974775">
        <ele>448.0</ele>
      </trkpt>
      <trkpt lat="40.1272464" lon="-7.14983141">
        <ele>449.0</ele>
      </trkpt>
      <trkpt lat="40.1274156" lon="-7.14983214">
        <ele>450.0</ele>
      </trkpt>
      <trkpt lat="40.1277182" lon="-7.14995633">
        <ele>452.0</ele>
      </trkpt>
      <trkpt lat="40.1283778" lon="-7.15012567">
        <ele>455.0</ele>
      </trkpt>
      <trkpt lat="40.1287596" lon="-7.1500578">
        <ele>456.0</ele>
      </trkpt>
      <trkpt lat="40.1291471" lon="-7.15006306">
        <ele>458.0</ele>
      </trkpt>
      <trkpt lat="40.1295241" lon="-7.15009695">
        <ele>459.0</ele>
      </trkpt>
      <trkpt lat="40.1297748" lon="-7.1491463">
        <ele>459.0</ele>
      </trkpt>
      <trkpt lat="40.1299099" lon="-7.14864547">
        <ele>459.0</ele>
      </trkpt>
      <trkpt lat="40.129997" lon="-7.14826982">
        <ele>459.0</ele>
      </trkpt>
      <trkpt lat="40.1300969" lon="-7.14777493">
        <ele>458.0</ele>
      </trkpt>
      <trkpt lat="40.1302127" lon="-7.14743086">
        <ele>460.0</ele>
      </trkpt>
      <trkpt lat="40.1303066" lon="-7.14706028">
        <ele>461.0</ele>
      </trkpt>
      <trkpt lat="40.1303215" lon="-7.14603122">
        <ele>460.0</ele>
      </trkpt>
      <trkpt lat="40.1303406" lon="-7.14570121">
        <ele>459.0</ele>
      </trkpt>
      <trkpt lat="40.1306683" lon="-7.14511747">
        <ele>460.0</ele>
      </trkpt>
      <trkpt lat="40.1306997" lon="-7.14483894">
        <ele>460.0</ele>
      </trkpt>
      <trkpt lat="40.1308376" lon="-7.14455413">
        <ele>460.0</ele>
      </trkpt>
      <trkpt lat="40.1309307" lon="-7.14441382">
        <ele>460.0</ele>
      </trkpt>
      <trkpt lat="40.1310044" lon="-7.14392416">
        <ele>459.0</ele>
      </trkpt>
      <trkpt lat="40.1311146" lon="-7.14364719">
        <ele>458.0</ele>
      </trkpt>
      <trkpt lat="40.1312109" lon="-7.14332386">
        <ele>456.0</ele>
      </trkpt>
      <trkpt lat="40.1313913" lon="-7.14277842">
        <ele>454.0</ele>
      </trkpt>
      <trkpt lat="40.1315771" lon="-7.14230275">
        <ele>453.0</ele>
      </trkpt>
      <trkpt lat="40.13175" lon="-7.14229665">
        <ele>453.0</ele>
      </trkpt>
      <trkpt lat="40.132014" lon="-7.14228545">
        <ele>452.0</ele>
      </trkpt>
      <trkpt lat="40.1322205" lon="-7.14231526">
        <ele>451.0</ele>
      </trkpt>
      <trkpt lat="40.1324192" lon="-7.14238171">
        <ele>449.0</ele>
      </trkpt>
      <trkpt lat="40.1326191" lon="-7.14246169">
        <ele>449.0</ele>
      </trkpt>
      <trkpt lat="40.1329158" lon="-7.14271079">
        <ele>449.0</ele>
      </trkpt>
      <trkpt lat="40.1332012" lon="-7.14296005">
        <ele>449.0</ele>
      </trkpt>
      <trkpt lat="40.1333866" lon="-7.14317537">
        <ele>448.0</ele>
      </trkpt>
      <trkpt lat="40.1335731" lon="-7.14330782">
        <ele>448.0</ele>
      </trkpt>
      <trkpt lat="40.1338452" lon="-7.14352714">
        <ele>448.0</ele>
      </trkpt>
      <trkpt lat="40.134114" lon="-7.14373635">
        <ele>449.0</ele>
      </trkpt>
      <trkpt lat="40.1345667" lon="-7.14368799">
        <ele>452.0</ele>
      </trkpt>
      <trkpt lat="40.1348725" lon="-7.1437215">
        <ele>453.0</ele>
      </trkpt>
      <trkpt lat="40.1354318" lon="-7.14348094">
        <ele>455.0</ele>
      </trkpt>
      <trkpt lat="40.1359579" lon="-7.14351397">
        <ele>458.0</ele>
      </trkpt>
      <trkpt lat="40.1364796" lon="-7.1432029">
        <ele>460.0</ele>
      </trkpt>
      <trkpt lat="40.1369038" lon="-7.142829">
        <ele>463.0</ele>
      </trkpt>
      <trkpt lat="40.1371124" lon="-7.14261895">
        <ele>464.0</ele>
      </trkpt>
      <trkpt lat="40.1374843" lon="-7.14247168">
        <ele>463.0</ele>
      </trkpt>
      <trkpt lat="40.137646" lon="-7.14205201">
        <ele>463.0</ele>
      </trkpt>
      <trkpt lat="40.1379011" lon="-7.14148309">
        <ele>465.0</ele>
      </trkpt>
      <trkpt lat="40.1379791" lon="-7.14021813">
        <ele>471.0</ele>
      </trkpt>
      <trkpt lat="40.1379468" lon="-7.13989734">
        <ele>473.0</ele>
      </trkpt>
      <trkpt lat="40.1380864" lon="-7.13939591">
        <ele>476.0</ele>
      </trkpt>
      <trkpt lat="40.1380948" lon="-7.13913791">
        <ele>477.0</ele>
      </trkpt>
      <trkpt lat="40.1382585" lon="-7.13857504">
        <ele>479.0</ele>
      </trkpt>
      <trkpt lat="40.1384343" lon="-7.13822906">
        <ele>482.0</ele>
      </trkpt>
      <trkpt lat="40.1386815" lon="-7.13789346">
        <ele>487.0</ele>
      </trkpt>
      <trkpt lat="40.1389068" lon="-7.13772581">
        <ele>490.0</ele>
      </trkpt>
      <trkpt lat="40.1391692" lon="-7.1376651">
        <ele>489.0</ele>
      </trkpt>
      <trkpt lat="40.1393535" lon="-7.13761092">
        <ele>489.0</ele>
      </trkpt>
      <trkpt lat="40.1395101" lon="-7.13736085">
        <ele>489.0</ele>
      </trkpt>
      <trkpt lat="40.1396811" lon="-7.1370518">
        <ele>490.0</ele>
      </trkpt>
      <trkpt lat="40.1399404" lon="-7.1368482">
        <ele>491.0</ele>
      </trkpt>
      <trkpt lat="40.1402414" lon="-7.13674527">
        <ele>491.0</ele>
      </trkpt>
      <trkpt lat="40.140568" lon="-7.13662729">
        <ele>490.0</ele>
      </trkpt>
      <trkpt lat="40.1408107" lon="-7.13655005">
        <ele>492.0</ele>
      </trkpt>
      <trkpt lat="40.1410523" lon="-7.13650365">
        <ele>494.0</ele>
      </trkpt>
      <trkpt lat="40.1412953" lon="-7.13627789">
        <ele>497.0</ele>
      </trkpt>
      <trkpt lat="40.141436" lon="-7.13606708">
        <ele>498.0</ele>
      </trkpt>
      <trkpt lat="40.1415734" lon="-7.1358726">
        <ele>499.0</ele>
      </trkpt>
      <trkpt lat="40.1416978" lon="-7.13548971">
        <ele>503.0</ele>
      </trkpt>
      <trkpt lat="40.1418418" lon="-7.13512535">
        <ele>508.0</ele>
      </trkpt>
      <trkpt lat="40.1420237" lon="-7.13481354">
        <ele>511.0</ele>
      </trkpt>
      <trkpt lat="40.1421092" lon="-7.13452592">
        <ele>514.0</ele>
      </trkpt>
      <trkpt lat="40.1423591" lon="-7.13444932">
        <ele>512.0</ele>
      </trkpt>
      <trkpt lat="40.1425296" lon="-7.13433636">
        <ele>513.0</ele>
      </trkpt>
      <trkpt lat="40.1427184" lon="-7.13438226">
        <ele>512.0</ele>
      </trkpt>
      <trkpt lat="40.1429929" lon="-7.13455243">
        <ele>513.0</ele>
      </trkpt>
      <trkpt lat="40.1431945" lon="-7.13469022">
        <ele>513.0</ele>
      </trkpt>
      <trkpt lat="40.1433337" lon="-7.13489026">
        <ele>513.0</ele>
      </trkpt>
      <trkpt lat="40.1434816" lon="-7.13514689">
        <ele>512.0</ele>
      </trkpt>
      <trkpt lat="40.1437148" lon="-7.13506747">
        <ele>510.0</ele>
      </trkpt>
      <trkpt lat="40.1438446" lon="-7.13477603">
        <ele>510.0</ele>
      </trkpt>
      <trkpt lat="40.1442961" lon="-7.13448347">
        <ele>507.0</ele>
      </trkpt>
      <trkpt lat="40.1444927" lon="-7.1343555">
        <ele>504.0</ele>
      </trkpt>
      <trkpt lat="40.1448336" lon="-7.13410924">
        <ele>501.0</ele>
      </trkpt>
      <trkpt lat="40.1451003" lon="-7.13385293">
        <ele>497.0</ele>
      </trkpt>
      <trkpt lat="40.1453365" lon="-7.13370975">
        <ele>493.0</ele>
      </trkpt>
      <trkpt lat="40.1460123" lon="-7.13334869">
        <ele>495.0</ele>
      </trkpt>
      <trkpt lat="40.1461018" lon="-7.13321022">
        <ele>496.0</ele>
      </trkpt>
      <trkpt lat="40.1462349" lon="-7.13316521">
        <ele>496.0</ele>
      </trkpt>
      <trkpt lat="40.146492" lon="-7.13283303">
        <ele>498.0</ele>
      </trkpt>
      <trkpt lat="40.1466042" lon="-7.13267422">
        <ele>500.0</ele>
      </trkpt>
      <trkpt lat="40.1468336" lon="-7.13253151">
        <ele>502.0</ele>
      </trkpt>
      <trkpt lat="40.1471527" lon="-7.1324696">
        <ele>500.0</ele>
      </trkpt>
      <trkpt lat="40.1474802" lon="-7.13226392">
        <ele>499.0</ele>
      </trkpt>
      <trkpt lat="40.1478491" lon="-7.13203036">
        <ele>498.0</ele>
      </trkpt>
      <trkpt lat="40.1481489" lon="-7.13167833">
        <ele>498.0</ele>
      </trkpt>
      <trkpt lat="40.1483574" lon="-7.13155368">
        <ele>496.0</ele>
      </trkpt>
      <trkpt lat="40.1487292" lon="-7.1313999">
        <ele>490.0</ele>
      </trkpt>
      <trkpt lat="40.148947" lon="-7.13129768">
        <ele>486.0</ele>
      </trkpt>
      <trkpt lat="40.1491578" lon="-7.13115485">
        <ele>484.0</ele>
      </trkpt>
      <trkpt lat="40.1494953" lon="-7.13094781">
        <ele>481.0</ele>
      </trkpt>
      <trkpt lat="40.1496969" lon="-7.13075216">
        <ele>480.0</ele>
      </trkpt>
      <trkpt lat="40.1499499" lon="-7.13061296">
        <ele>477.0</ele>
      </trkpt>
      <trkpt lat="40.1502559" lon="-7.1304678">
        <ele>475.0</ele>
      </trkpt>
      <trkpt lat="40.1505112" lon="-7.13030333">
        <ele>476.0</ele>
      </trkpt>
      <trkpt lat="40.1507988" lon="-7.13012708">
        <ele>479.0</ele>
      </trkpt>
      <trkpt lat="40.1510493" lon="-7.12994347">
        <ele>480.0</ele>
      </trkpt>
      <trkpt lat="40.1512263" lon="-7.12979313">
        <ele>480.0</ele>
      </trkpt>
      <trkpt lat="40.1514292" lon="-7.12951112">
        <ele>482.0</ele>
      </trkpt>
      <trkpt lat="40.15162" lon="-7.12931589">
        <ele>483.0</ele>
      </trkpt>
      <trkpt lat="40.1518582" lon="-7.12906907">
        <ele>479.0</ele>
      </trkpt>
      <trkpt lat="40.1521651" lon="-7.12877757">
        <ele>474.0</ele>
      </trkpt>
      <trkpt lat="40.152401" lon="-7.1284724">
        <ele>473.0</ele>
      </trkpt>
      <trkpt lat="40.1526885" lon="-7.12846837">
        <ele>470.0</ele>
      </trkpt>
      <trkpt lat="40.1531046" lon="-7.1283369">
        <ele>467.0</ele>
      </trkpt>
      <trkpt lat="40.1533454" lon="-7.12827708">
        <ele>468.0</ele>
      </trkpt>
      <trkpt lat="40.1535627" lon="-7.12822476">
        <ele>468.0</ele>
      </trkpt>
      <trkpt lat="40.1539662" lon="-7.12824222">
        <ele>466.0</ele>
      </trkpt>
      <trkpt lat="40.1541338" lon="-7.12811721">
        <ele>466.0</ele>
      </trkpt>
      <trkpt lat="40.1543318" lon="-7.12785281">
        <ele>464.0</ele>
      </trkpt>
      <trkpt lat="40.1545712" lon="-7.12757103">
        <ele>460.0</ele>
      </trkpt>
      <trkpt lat="40.1545807" lon="-7.12792803">
        <ele>461.0</ele>
      </trkpt>
      <trkpt lat="40.1547269" lon="-7.12817123">
        <ele>459.0</ele>
      </trkpt>
      <trkpt lat="40.1546762" lon="-7.12904683">
        <ele>460.0</ele>
      </trkpt>
      <trkpt lat="40.1547919" lon="-7.12954154">
        <ele>458.0</ele>
      </trkpt>
      <trkpt lat="40.15504" lon="-7.12963225">
        <ele>456.0</ele>
      </trkpt>
      <trkpt lat="40.1552133" lon="-7.13004669">
        <ele>454.0</ele>
      </trkpt>
      <trkpt lat="40.1554906" lon="-7.13029476">
        <ele>455.0</ele>
      </trkpt>
      <trkpt lat="40.1556592" lon="-7.13088117">
        <ele>456.0</ele>
      </trkpt>
      <trkpt lat="40.1558893" lon="-7.13124885">
        <ele>457.0</ele>
      </trkpt>
      <trkpt lat="40.1560456" lon="-7.13146343">
        <ele>457.0</ele>
      </trkpt>
      <trkpt lat="40.156191" lon="-7.13165736">
        <ele>458.0</ele>
      </trkpt>
      <trkpt lat="40.1566501" lon="-7.13203469">
        <ele>459.0</ele>
      </trkpt>
      <trkpt lat="40.1568519" lon="-7.13220588">
        <ele>459.0</ele>
      </trkpt>
      <trkpt lat="40.1569936" lon="-7.13254234">
        <ele>460.0</ele>
      </trkpt>
      <trkpt lat="40.1570835" lon="-7.13291098">
        <ele>460.0</ele>
      </trkpt>
      <trkpt lat="40.1572646" lon="-7.13346147">
        <ele>464.0</ele>
      </trkpt>
      <trkpt lat="40.1574308" lon="-7.13385722">
        <ele>466.0</ele>
      </trkpt>
      <trkpt lat="40.1575697" lon="-7.13406078">
        <ele>467.0</ele>
      </trkpt>
      <trkpt lat="40.1586493" lon="-7.13520234">
        <ele>464.0</ele>
      </trkpt>
      <trkpt lat="40.1589387" lon="-7.13555688">
        <ele>466.0</ele>
      </trkpt>
      <trkpt lat="40.1589479" lon="-7.13575756">
        <ele>466.0</ele>
      </trkpt>
      <trkpt lat="40.1588007" lon="-7.13630049">
        <ele>467.0</ele>
      </trkpt>
      <trkpt lat="40.15879" lon="-7.13656284">
        <ele>468.0</ele>
      </trkpt>
      <trkpt lat="40.1588574" lon="-7.13683425">
        <ele>468.0</ele>
      </trkpt>
      <trkpt lat="40.1592019" lon="-7.13736004">
        <ele>471.0</ele>
      </trkpt>
      <trkpt lat="40.1594987" lon="-7.13782067">
        <ele>473.0</ele>
      </trkpt>
      <trkpt lat="40.1600812" lon="-7.13791884">
        <ele>474.0</ele>
      </trkpt>
      <trkpt lat="40.1604592" lon="-7.13787034">
        <ele>474.0</ele>
      </trkpt>
      <trkpt lat="40.160862" lon="-7.13773672">
        <ele>476.0</ele>
      </trkpt>
      <trkpt lat="40.161212" lon="-7.13742965">
        <ele>477.0</ele>
      </trkpt>
      <trkpt lat="40.1615213" lon="-7.1373343">
        <ele>478.0</ele>
      </trkpt>
      <trkpt lat="40.1616698" lon="-7.13722123">
        <ele>479.0</ele>
      </trkpt>
      <trkpt lat="40.1619725" lon="-7.13686081">
        <ele>480.0</ele>
      </trkpt>
      <trkpt lat="40.1622177" lon="-7.13661368">
        <ele>480.0</ele>
      </trkpt>
      <trkpt lat="40.1625233" lon="-7.13638587">
        <ele>479.0</ele>
      </trkpt>
      <trkpt lat="40.1628505" lon="-7.13634523">
        <ele>480.0</ele>
      </trkpt>
      <trkpt lat="40.1629386" lon="-7.13692951">
        <ele>479.0</ele>
      </trkpt>
      <trkpt lat="40.1630369" lon="-7.13767697">
        <ele>478.0</ele>
      </trkpt>
      <trkpt lat="40.1631785" lon="-7.13786822">
        <ele>477.0</ele>
      </trkpt>
      <trkpt lat="40.1633972" lon="-7.13788897">
        <ele>475.0</ele>
      </trkpt>
      <trkpt lat="40.1636959" lon="-7.13800502">
        <ele>471.0</ele>
      </trkpt>
      <trkpt lat="40.1639368" lon="-7.13773763">
        <ele>470.0</ele>
      </trkpt>
      <trkpt lat="40.1640888" lon="-7.13732028">
        <ele>471.0</ele>
      </trkpt>
      <trkpt lat="40.1646436" lon="-7.13657808">
        <ele>475.0</ele>
      </trkpt>
      <trkpt lat="40.1648572" lon="-7.13592501">
        <ele>479.0</ele>
      </trkpt>
      <trkpt lat="40.1658618" lon="-7.13524519">
        <ele>479.0</ele>
      </trkpt>
      <trkpt lat="40.1661123" lon="-7.1350654">
        <ele>480.0</ele>
      </trkpt>
      <trkpt lat="40.1665853" lon="-7.13485666">
        <ele>478.0</ele>
      </trkpt>
      <trkpt lat="40.1667706" lon="-7.13474751">
        <ele>479.0</ele>
      </trkpt>
      <trkpt lat="40.1672371" lon="-7.13430148">
        <ele>480.0</ele>
      </trkpt>
      <trkpt lat="40.1675076" lon="-7.13392792">
        <ele>480.0</ele>
      </trkpt>
      <trkpt lat="40.1675864" lon="-7.13388046">
        <ele>481.0</ele>
      </trkpt>
      <trkpt lat="40.1677551" lon="-7.13394622">
        <ele>483.0</ele>
      </trkpt>
      <trkpt lat="40.1678474" lon="-7.13403379">
        <ele>485.0</ele>
      </trkpt>
      <trkpt lat="40.167778" lon="-7.13425339">
        <ele>484.0</ele>
      </trkpt>
      <trkpt lat="40.1676299" lon="-7.13472845">
        <ele>485.0</ele>
      </trkpt>
      <trkpt lat="40.1675785" lon="-7.13536043">
        <ele>489.0</ele>
      </trkpt>
      <trkpt lat="40.1679611" lon="-7.13595308">
        <ele>492.0</ele>
      </trkpt>
      <trkpt lat="40.1681309" lon="-7.13643653">
        <ele>489.0</ele>
      </trkpt>
      <trkpt lat="40.1681638" lon="-7.1368851">
        <ele>490.0</ele>
      </trkpt>
      <trkpt lat="40.1683971" lon="-7.13765684">
        <ele>493.0</ele>
      </trkpt>
      <trkpt lat="40.1685339" lon="-7.13806676">
        <ele>493.0</ele>
      </trkpt>
      <trkpt lat="40.1686764" lon="-7.13852543">
        <ele>492.0</ele>
      </trkpt>
      <trkpt lat="40.1686969" lon="-7.13896527">
        <ele>489.0</ele>
      </trkpt>
      <trkpt lat="40.1685909" lon="-7.13928705">
        <ele>486.0</ele>
      </trkpt>
      <trkpt lat="40.1685774" lon="-7.13952003">
        <ele>485.0</ele>
      </trkpt>
      <trkpt lat="40.1690078" lon="-7.1393569">
        <ele>494.0</ele>
      </trkpt>
      <trkpt lat="40.1694353" lon="-7.13927147">
        <ele>501.0</ele>
      </trkpt>
      <trkpt lat="40.1696533" lon="-7.13968366">
        <ele>500.0</ele>
      </trkpt>
      <trkpt lat="40.1697753" lon="-7.13990437">
        <ele>499.0</ele>
      </trkpt>
      <trkpt lat="40.1703028" lon="-7.14094417">
        <ele>500.0</ele>
      </trkpt>
      <trkpt lat="40.1708287" lon="-7.14109644">
        <ele>508.0</ele>
      </trkpt>
      <trkpt lat="40.1710436" lon="-7.14207473">
        <ele>502.0</ele>
      </trkpt>
      <trkpt lat="40.1703932" lon="-7.14254993">
        <ele>494.0</ele>
      </trkpt>
      <trkpt lat="40.1700392" lon="-7.14323463">
        <ele>494.0</ele>
      </trkpt>
      <trkpt lat="40.1701857" lon="-7.14364741">
        <ele>490.0</ele>
      </trkpt>
      <trkpt lat="40.1703294" lon="-7.14526876">
        <ele>475.0</ele>
      </trkpt>
      <trkpt lat="40.1705094" lon="-7.14524841">
        <ele>476.0</ele>
      </trkpt>
      <trkpt lat="40.1708624" lon="-7.14532415">
        <ele>478.0</ele>
      </trkpt>
      <trkpt lat="40.1712031" lon="-7.14530266">
        <ele>479.0</ele>
      </trkpt>
      <trkpt lat="40.1722425" lon="-7.14526798">
        <ele>482.0</ele>
      </trkpt>
      <trkpt lat="40.1721826" lon="-7.14558335">
        <ele>482.0</ele>
      </trkpt>
      <trkpt lat="40.1718976" lon="-7.14636127">
        <ele>487.0</ele>
      </trkpt>
      <trkpt lat="40.1716173" lon="-7.1467285">
        <ele>489.0</ele>
      </trkpt>
      <trkpt lat="40.1714658" lon="-7.14701215">
        <ele>489.0</ele>
      </trkpt>
      <trkpt lat="40.171317" lon="-7.1476616">
        <ele>487.0</ele>
      </trkpt>
      <trkpt lat="40.1712514" lon="-7.14798339">
        <ele>486.0</ele>
      </trkpt>
      <trkpt lat="40.1712663" lon="-7.14847424">
        <ele>485.0</ele>
      </trkpt>
      <trkpt lat="40.1710834" lon="-7.1488254">
        <ele>487.0</ele>
      </trkpt>
      <trkpt lat="40.1707215" lon="-7.14984469">
        <ele>489.0</ele>
      </trkpt>
      <trkpt lat="40.1706257" lon="-7.15028999">
        <ele>488.0</ele>
      </trkpt>
      <trkpt lat="40.1704989" lon="-7.1504576">
        <ele>488.0</ele>
      </trkpt>
      <trkpt lat="40.170267" lon="-7.15128303">
        <ele>492.0</ele>
      </trkpt>
      <trkpt lat="40.1702372" lon="-7.15163084">
        <ele>492.0</ele>
      </trkpt>
      <trkpt lat="40.170195" lon="-7.15180537">
        <ele>493.0</ele>
      </trkpt>
      <trkpt lat="40.170184" lon="-7.15250937">
        <ele>491.0</ele>
      </trkpt>
      <trkpt lat="40.1701624" lon="-7.15288117">
        <ele>490.0</ele>
      </trkpt>
      <trkpt lat="40.1701173" lon="-7.15318686">
        <ele>489.0</ele>
      </trkpt>
      <trkpt lat="40.1700785" lon="-7.15356845">
        <ele>486.0</ele>
      </trkpt>
      <trkpt lat="40.1699564" lon="-7.15414896">
        <ele>487.0</ele>
      </trkpt>
      <trkpt lat="40.1699043" lon="-7.15461994">
        <ele>484.0</ele>
      </trkpt>
      <trkpt lat="40.1698837" lon="-7.15492281">
        <ele>482.0</ele>
      </trkpt>
      <trkpt lat="40.1697662" lon="-7.15539843">
        <ele>480.0</ele>
      </trkpt>
      <trkpt lat="40.1697004" lon="-7.15583999">
        <ele>479.0</ele>
      </trkpt>
      <trkpt lat="40.1696901" lon="-7.15613263">
        <ele>479.0</ele>
      </trkpt>
      <trkpt lat="40.1697114" lon="-7.1565188">
        <ele>480.0</ele>
      </trkpt>
      <trkpt lat="40.1696773" lon="-7.1569892">
        <ele>481.0</ele>
      </trkpt>
      <trkpt lat="40.1696527" lon="-7.15729758">
        <ele>482.0</ele>
      </trkpt>
      <trkpt lat="40.1696564" lon="-7.15758419">
        <ele>483.0</ele>
      </trkpt>
      <trkpt lat="40.1696849" lon="-7.15785997">
        <ele>483.0</ele>
      </trkpt>
      <trkpt lat="40.169721" lon="-7.1581971">
        <ele>483.0</ele>
      </trkpt>
      <trkpt lat="40.1694993" lon="-7.15902119">
        <ele>481.0</ele>
      </trkpt>
      <trkpt lat="40.1694281" lon="-7.15928761">
        <ele>480.0</ele>
      </trkpt>
      <trkpt lat="40.1692913" lon="-7.15962027">
        <ele>480.0</ele>
      </trkpt>
      <trkpt lat="40.1691903" lon="-7.15988326">
        <ele>481.0</ele>
      </trkpt>
      <trkpt lat="40.1692214" lon="-7.16018519">
        <ele>482.0</ele>
      </trkpt>
      <trkpt lat="40.1692022" lon="-7.16056949">
        <ele>484.0</ele>
      </trkpt>
      <trkpt lat="40.1694993" lon="-7.16070222">
        <ele>484.0</ele>
      </trkpt>
      <trkpt lat="40.1698036" lon="-7.16080576">
        <ele>485.0</ele>
      </trkpt>
      <trkpt lat="40.1703813" lon="-7.16108138">
        <ele>485.0</ele>
      </trkpt>
      <trkpt lat="40.1708737" lon="-7.16164624">
        <ele>489.0</ele>
      </trkpt>
      <trkpt lat="40.1713103" lon="-7.16227273">
        <ele>489.0</ele>
      </trkpt>
      <trkpt lat="40.171619" lon="-7.16278784">
        <ele>491.0</ele>
      </trkpt>
      <trkpt lat="40.1715996" lon="-7.16292381">
        <ele>492.0</ele>
      </trkpt>
      <trkpt lat="40.1715457" lon="-7.16305246">
        <ele>492.0</ele>
      </trkpt>
      <trkpt lat="40.17158" lon="-7.16320336">
        <ele>494.0</ele>
      </trkpt>
      <trkpt lat="40.1726656" lon="-7.16478338">
        <ele>497.0</ele>
      </trkpt>
      <trkpt lat="40.172672" lon="-7.16503113">
        <ele>499.0</ele>
      </trkpt>
      <trkpt lat="40.1722175" lon="-7.1663861">
        <ele>504.0</ele>
      </trkpt>
      <trkpt lat="40.1720249" lon="-7.16637719">
        <ele>504.0</ele>
      </trkpt>
      <trkpt lat="40.1718121" lon="-7.16669733">
        <ele>508.0</ele>
      </trkpt>
      <trkpt lat="40.1716601" lon="-7.16674474">
        <ele>509.0</ele>
      </trkpt>
      <trkpt lat="40.171546" lon="-7.16674856">
        <ele>511.0</ele>
      </trkpt>
      <trkpt lat="40.1713969" lon="-7.1667224">
        <ele>513.0</ele>
      </trkpt>
      <trkpt lat="40.1712445" lon="-7.16669232">
        <ele>516.0</ele>
      </trkpt>
      <trkpt lat="40.1710294" lon="-7.16684254">
        <ele>519.0</ele>
      </trkpt>
      <trkpt lat="40.1707511" lon="-7.16710422">
        <ele>524.0</ele>
      </trkpt>
      <trkpt lat="40.170482" lon="-7.1673704">
        <ele>527.0</ele>
      </trkpt>
      <trkpt lat="40.1702146" lon="-7.16767718">
        <ele>532.0</ele>
      </trkpt>
      <trkpt lat="40.1698169" lon="-7.16799623">
        <ele>538.0</ele>
      </trkpt>
      <trkpt lat="40.1696892" lon="-7.16821541">
        <ele>541.0</ele>
      </trkpt>
      <trkpt lat="40.1696635" lon="-7.16829183">
        <ele>541.0</ele>
      </trkpt>
      <trkpt lat="40.1698276" lon="-7.16863909">
        <ele>539.0</ele>
      </trkpt>
      <trkpt lat="40.1697648" lon="-7.16894849">
        <ele>541.0</ele>
      </trkpt>
      <trkpt lat="40.1697429" lon="-7.16927113">
        <ele>544.0</ele>
      </trkpt>
      <trkpt lat="40.1697092" lon="-7.16990455">
        <ele>551.0</ele>
      </trkpt>
      <trkpt lat="40.1697589" lon="-7.17004332">
        <ele>552.0</ele>
      </trkpt>
      <trkpt lat="40.1699007" lon="-7.17012495">
        <ele>551.0</ele>
      </trkpt>
      <trkpt lat="40.1700317" lon="-7.17015439">
        <ele>549.0</ele>
      </trkpt>
      <trkpt lat="40.1701063" lon="-7.17030639">
        <ele>550.0</ele>
      </trkpt>
      <trkpt lat="40.1700681" lon="-7.17033588">
        <ele>551.0</ele>
      </trkpt>
      <trkpt lat="40.1698237" lon="-7.17028752">
        <ele>554.0</ele>
      </trkpt>
      <trkpt lat="40.1696835" lon="-7.17029347">
        <ele>557.0</ele>
      </trkpt>
      <trkpt lat="40.1694873" lon="-7.17034866">
        <ele>562.0</ele>
      </trkpt>
      <trkpt lat="40.1693842" lon="-7.17032739">
        <ele>563.0</ele>
      </trkpt>
      <trkpt lat="40.169237" lon="-7.17005298">
        <ele>561.0</ele>
      </trkpt>
      <trkpt lat="40.1691068" lon="-7.1697936">
        <ele>560.0</ele>
      </trkpt>
      <trkpt lat="40.1690306" lon="-7.16967669">
        <ele>560.0</ele>
      </trkpt>
    </trkseg>
  </trk>
</gpx>
